Date StartTime U_cm/s V_cm/s W_cm/s Ustd_cm/s Vstd_cm/s Wstd_cm/s Uvar_(cm/s)^2 Vvar_(cm/s)^2 Wvar_(cm/s)^2 KE_(m/s)^2 TurbulentKE_(m/s)^2 HorizWindSpeed_cm/s FrictionSpeec_cm/s DragCoef SpeedOfSound_m/s SonicTemperature_C Pressure_mb 
03/27/2014  00:00:00       35.102      -40.505       12.427       43.206       66.720       47.422     1866.774     4451.536     2248.849        0.580        0.428       53.599       49.241        0.844      335.063        5.447      852.895
03/27/2014  00:01:00       40.820     -116.629      -16.182       48.393       42.371       28.349     2341.843     1795.334      803.672        1.023        0.247      123.566       10.578        0.007      335.151        5.595      852.912
03/27/2014  00:02:00      -11.964      -55.649       -9.458       44.466       41.830       20.847     1977.183     1749.783      434.579        0.374        0.208       56.920       15.358        0.073      335.177        5.638      852.943
03/27/2014  00:03:00      -70.423      -37.070       -5.398       46.705       27.511       17.351     2181.387      756.845      301.060        0.480        0.162       79.583       19.338        0.059      335.057        5.439      852.942
03/27/2014  00:04:00     -112.506      -23.684        5.322       70.499       61.234       29.361     4970.094     3749.646      862.048        1.141        0.479      114.972       33.769        0.086      334.984        5.316      852.995
03/27/2014  00:05:00     -139.076      -75.430      -18.388       61.173       58.206       29.573     3742.095     3387.888      874.540        1.669        0.400      158.214       31.308        0.039      334.924        5.217      853.042
03/27/2014  00:06:00     -107.605        2.079      -25.779       54.511       31.481       30.067     2971.450      991.081      904.011        0.856        0.243      107.625       18.601        0.030      334.961        5.278      853.051
03/27/2014  00:07:00      -73.837       50.248      -14.608       44.924       31.096       18.170     2018.201      966.966      330.155        0.575        0.166       89.313       17.201        0.037      334.907        5.189      853.073
03/27/2014  00:08:00       17.973       63.668      -11.267       23.298       45.668       14.589      542.789     2085.594      212.852        0.367        0.142       66.156       18.475        0.078      334.980        5.311      853.066
03/27/2014  00:09:00      -11.364       11.603       -1.931       15.197       17.456       13.619      230.942      304.703      185.479        0.049        0.036       16.241        4.240        0.068      334.936        5.235      853.077
03/27/2014  00:10:00       44.712       44.488       52.793       53.654       47.938       40.926     2878.711     2298.015     1674.925        0.681        0.343       63.074       29.181        0.214      334.948        5.257      853.091
03/27/2014  00:11:00       48.994       88.825       94.111       50.196       48.615       34.932     2519.682     2363.445     1220.231        1.262        0.305      101.441       25.156        0.061      334.972        5.297      853.087
03/27/2014  00:12:00      145.557       97.742       58.381       77.712       41.771       46.479     6039.192     1744.819     2160.343        2.204        0.497      175.330       47.266        0.073      334.956        5.269      853.065
03/27/2014  00:13:00       52.182      201.030      172.803       88.068       77.408       70.262     7756.035     5991.993     4936.755        4.584        0.934      207.692       73.694        0.126      334.973        5.295      853.015
03/27/2014  00:14:00      107.229      148.254      143.061      105.050      121.099       68.303    11035.450    14665.038     4665.336        4.215        1.518      182.968       70.781        0.150      334.970        5.293      853.004
03/27/2014  00:15:00        2.391        3.352       53.392       73.569       97.471       65.765     5412.365     9500.668     4325.071        1.105        0.962        4.118       48.978      141.468      334.992        5.330      853.022
03/27/2014  00:16:00       10.719       36.717       68.414       45.502       59.147       50.626     2070.404     3498.420     2563.018        0.714        0.407       38.250       44.863        1.376      334.985        5.319      853.034
03/27/2014  00:17:00      -58.818      -36.655       -1.504       66.614       54.194       41.066     4437.423     2936.962     1686.407        0.693        0.453       69.304       19.237        0.077      335.005        5.352      853.035
03/27/2014  00:18:00      -71.985      -71.638        4.957       69.563       59.836       41.666     4839.047     3580.339     1736.065        1.024        0.508      101.557       31.030        0.093      335.044        5.417      853.052
03/27/2014  00:19:00     -102.203      -93.000      -14.538      124.070       79.477       53.503    15393.438     6316.538     2862.613        2.193        1.229      138.183       26.752        0.037      334.887        5.155      853.087
03/27/2014  00:20:00      -14.574        9.133       -2.349       58.394       37.009       29.620     3409.812     1369.648      877.321        0.298        0.283       17.199       19.753        1.319      334.780        4.978      853.042
03/27/2014  00:21:00      -98.502     -172.997       -3.780       61.573       59.865       36.458     3791.194     3583.772     1329.212        2.417        0.435      199.074       31.003        0.024      334.905        5.183      853.078
03/27/2014  00:22:00      -92.038      -19.885       12.229       82.779      110.964       39.271     6852.364    12312.962     1542.242        1.486        1.035       94.161       60.482        0.413      334.851        5.096      853.099
03/27/2014  00:23:00       29.767       40.984       25.440       94.294      117.598       63.363     8891.335    13829.316     4014.821        1.497        1.337       50.653       37.305        0.542      334.883        5.150      852.963
03/27/2014  00:24:00        2.397       -5.340       36.453       60.297       82.219       48.434     3635.699     6760.011     2345.835        0.705        0.637        5.854       55.455       89.746      334.879        5.144      852.992
03/27/2014  00:25:00       58.727      -75.736       22.152       69.990       55.164       38.552     4898.532     3043.090     1486.245        0.955        0.471       95.838       38.166        0.159      334.962        5.282      853.047
03/27/2014  00:26:00      -43.179       63.733        2.995       50.124       28.979       32.216     2512.413      839.778     1037.866        0.516        0.220       76.983       30.350        0.155      334.857        5.107      853.056
03/27/2014  00:27:00      -78.655       62.048       -9.839       33.044       36.168       19.145     1091.919     1308.144      366.514        0.645        0.138      100.183       12.584        0.016      334.809        5.024      853.073
03/27/2014  00:28:00       -1.122       15.723       20.012       36.683       15.142       23.841     1345.665      229.290      568.384        0.140        0.107       15.763       25.158        2.547      334.825        5.053      853.116
03/27/2014  00:29:00     -107.445       -8.954      -13.559       60.089       23.868       16.338     3610.656      569.702      266.944        0.813        0.222      107.818       14.037        0.017      334.815        5.036      853.144
03/27/2014  00:30:00     -187.017     -128.831      -15.027      130.220      109.070       49.222    16957.277    11896.247     2422.779        4.153        1.564      227.097       53.784        0.056      334.802        5.014      853.128
03/27/2014  00:31:00     -246.174     -167.870       -7.736      146.301       81.843       50.867    21404.128     6698.353     2587.487        5.976        1.534      297.963       56.174        0.036      334.808        5.022      853.099
03/27/2014  00:32:00      -85.659     -140.145       -4.377       77.613       40.915       36.168     6023.738     1674.041     1308.150        1.800        0.450      164.250       15.573        0.009      334.848        5.089      853.103
03/27/2014  00:33:00      -90.816     -156.876        9.425      107.512       96.683       48.853    11558.892     9347.584     2386.570        2.812        1.165      181.267       42.682        0.055      334.831        5.060      853.120
03/27/2014  00:34:00     -178.717      -42.021        6.309      148.480       76.318       52.027    22046.282     5824.493     2706.831        3.216        1.529      183.591       65.646        0.128      334.747        4.922      853.130
03/27/2014  00:35:00      -68.393      -56.272       -2.992       64.574       42.165       31.721     4169.822     1777.919     1006.207        0.740        0.348       88.567       35.257        0.158      334.813        5.033      853.160
03/27/2014  00:36:00      -20.874      -94.924       10.417       42.617       62.112       21.384     1816.229     3857.858      457.278        0.784        0.307       97.192       20.085        0.043      334.780        4.980      853.188
03/27/2014  00:37:00     -121.382      -56.132       14.291      117.309       85.459       44.003    13761.453     7303.195     1936.258        2.054        1.150      133.732       42.175        0.099      334.757        4.940      853.218
03/27/2014  00:38:00     -136.577      -89.005       -5.941       77.490       67.264       41.918     6004.736     4524.388     1757.147        1.945        0.614      163.019       26.125        0.026      334.747        4.922      853.226
03/27/2014  00:39:00        7.313      -49.932        2.149       52.044       75.093       47.192     2708.572     5638.998     2227.049        0.656        0.529       50.465       51.676        1.049      334.920        5.211      853.218
03/27/2014  00:40:00      -60.786     -185.907       -1.469      121.905      115.242       55.416    14860.732    13280.710     3070.988        3.473        1.561      195.592       56.268        0.083      334.803        5.014      853.186
03/27/2014  00:41:00      -90.098      -64.029        5.058       79.274       83.185       34.194     6284.391     6919.761     1169.254        1.331        0.719      110.532       37.107        0.113      334.766        4.954      853.199
03/27/2014  00:42:00     -121.434      -85.419       15.958       97.641       84.608       36.332     9533.734     7158.541     1319.982        2.015        0.901      148.467       37.131        0.063      334.779        4.974      853.222
03/27/2014  00:43:00      -13.273       12.464       25.989       67.671       41.627       37.832     4579.324     1732.777     1431.286        0.437        0.387       18.208       41.414        5.174      334.785        4.987      853.215
03/27/2014  00:44:00      -63.068     -172.471        6.205       74.958      104.003       50.092     5618.701    10816.692     2509.213        2.635        0.947      183.641       50.333        0.075      334.809        5.022      853.223
03/27/2014  00:45:00     -228.968     -161.755      -11.613      135.088      109.107       56.696    18248.861    11904.391     3214.422        5.604        1.668      280.341       58.320        0.043      334.779        4.971      853.237
03/27/2014  00:46:00     -160.101     -220.035       -8.282       78.288      104.871       49.598     6129.028    10997.887     2459.953        4.685        0.979      272.117       41.710        0.023      334.826        5.052      853.213
03/27/2014  00:47:00     -138.254      -76.720        9.417      121.583       84.481       47.216    14782.453     7137.105     2229.304        2.461        1.207      158.114       41.924        0.070      334.792        4.996      853.177
03/27/2014  00:48:00      -89.889      -81.232        6.336       62.973       52.494       32.776     3965.545     2755.610     1074.244        1.126        0.390      121.155       32.672        0.073      334.782        4.980      853.174
03/27/2014  00:49:00      -37.974      -39.921       12.281       55.105       57.191       30.325     3036.515     3270.863      919.619        0.521        0.361       55.097       32.281        0.343      334.855        5.103      853.187
03/27/2014  00:50:00     -347.296     -253.518      -37.093      187.208      107.655       56.930    35046.885    11589.680     3241.015       11.806        2.494      429.983       37.182        0.007      334.788        4.989      853.188
03/27/2014  00:51:00      -60.689     -100.051       22.048      101.782       71.741       54.524    10359.637     5146.829     2972.851        1.633        0.924      117.019       47.670        0.166      334.803        5.015      853.174
03/27/2014  00:52:00     -131.756      -65.678       -0.048       74.380       63.280       50.056     5532.401     4004.373     2505.623        1.686        0.602      147.218       46.328        0.099      334.844        5.084      853.187
03/27/2014  00:53:00      -37.853     -119.329        4.872      125.010       60.173       39.788    15627.494     3620.774     1583.070        1.826        1.042      125.189       49.962        0.159      334.824        5.051      853.207
03/27/2014  00:54:00     -256.982     -118.024        4.272      130.132      128.921       59.825    16934.210    16620.709     3579.069        5.855        1.857      282.789       58.636        0.043      334.778        4.973      853.293
03/27/2014  00:55:00     -338.836      -48.801      -15.371      110.018      193.073       55.735    12104.052    37277.297     3106.370        8.495        2.624      342.332       46.099        0.018      334.736        4.900      853.319
03/27/2014  00:56:00      -58.928      -84.119        9.198      103.179       67.199       42.439    10645.917     4515.758     1801.060        1.379        0.848      102.706       41.470        0.163      334.755        4.936      853.357
03/27/2014  00:57:00     -120.573     -105.012        4.820      184.042      125.035       66.150    33871.558    15633.819     4375.830        3.972        2.694      159.892       73.286        0.210      334.789        4.990      853.302
03/27/2014  00:58:00     -182.792     -122.517       -2.593      139.241      107.884       57.222    19388.145    11638.907     3274.303        4.136        1.715      220.053       53.169        0.058      334.774        4.965      853.309
03/27/2014  00:59:00     -175.004     -142.736        7.793      139.333      112.103       68.796    19413.694    12567.105     4732.855        4.388        1.836      225.832       67.754        0.090      334.822        5.044      853.311
03/27/2014  01:00:00     -126.787      -71.319       -6.803       82.504       62.932       43.268     6806.898     3960.429     1872.088        1.692        0.632      145.470       39.663        0.074      334.790        4.994      853.292
03/27/2014  01:01:00     -163.354     -207.134       -3.253      109.875      105.911       50.355    12072.519    11217.196     2535.638        4.771        1.291      263.798       52.874        0.040      334.816        5.035      853.302
03/27/2014  01:02:00     -242.829     -138.195      -12.886      127.517       92.078       53.581    16260.515     8478.400     2870.963        5.291        1.380      279.399       55.916        0.040      334.805        5.017      853.321
03/27/2014  01:03:00     -162.775     -117.257        2.686      154.558      148.399       71.969    23888.154    22022.362     5179.561        4.566        2.555      200.612       80.194        0.160      334.809        5.024      853.265
03/27/2014  01:04:00     -215.979     -199.708       -8.540      111.953      111.989       59.996    12533.445    12541.458     3599.475        5.763        1.434      294.160       55.201        0.035      334.805        5.015      853.266
03/27/2014  01:05:00     -350.582     -154.650       -1.906      198.791      147.680       83.487    39517.979    21809.302     6970.123       10.755        3.415      383.176      101.134        0.070      334.824        5.049      853.286
03/27/2014  01:06:00     -139.036      -74.225        8.193      102.843      104.962       51.468    10576.771    11017.107     2648.966        2.457        1.212      157.609       50.786        0.104      334.839        5.075      853.306
03/27/2014  01:07:00     -153.789     -131.106      -18.435      123.161       81.714       50.525    15168.605     6677.196     2552.796        3.278        1.220      202.088       52.627        0.068      334.943        5.247      853.312
03/27/2014  01:08:00     -293.049     -180.278      -25.273      141.046       92.927       62.979    19894.056     8635.349     3966.371        7.575        1.625      344.061       53.259        0.024      334.838        5.072      853.277
03/27/2014  01:09:00     -162.887      -70.022       -2.884      127.668       76.133       46.328    16299.102     5796.261     2146.294        2.784        1.212      177.300       43.353        0.060      334.816        5.036      853.273
03/27/2014  01:10:00     -101.185     -211.724       10.458      159.500       98.634       55.818    25440.185     9728.623     3115.613        4.672        1.914      234.660       66.602        0.081      334.895        5.167      853.310
03/27/2014  01:11:00     -264.318     -136.668      -10.399      185.724      102.426       54.970    34493.386    10490.992     3021.681        6.832        2.400      297.561       75.923        0.065      334.858        5.105      853.296
03/27/2014  01:12:00     -162.899      -76.012       12.171      150.689      108.622       60.488    22707.191    11798.784     3658.782        3.531        1.908      179.761       81.752        0.207      334.893        5.164      853.297
03/27/2014  01:13:00     -108.286      -77.567        1.345       67.112       63.457       44.442     4503.959     4026.767     1975.095        1.412        0.525      133.201       42.655        0.103      334.930        5.226      853.304
03/27/2014  01:14:00     -100.463      -93.913        5.896       74.202       63.918       38.970     5505.957     4085.505     1518.686        1.503        0.556      137.522       41.281        0.090      334.863        5.114      853.320
03/27/2014  01:15:00     -278.795      -83.642       -5.889      121.373       85.999       55.140    14731.306     7395.875     3040.428        5.496        1.258      291.071       53.608        0.034      334.857        5.103      853.301
03/27/2014  01:16:00     -214.630     -158.263       -0.730      109.553      109.446       53.276    12001.810    11978.329     2838.286        4.896        1.341      266.671       59.975        0.051      334.876        5.135      853.342
03/27/2014  01:17:00     -228.482     -151.689        0.364      170.861      110.419       55.310    29193.328    12192.434     3059.209        5.982        2.222      274.251       59.622        0.047      334.848        5.090      853.317
03/27/2014  01:18:00     -195.602     -196.154       -5.428      163.681       93.697       65.487    26791.614     8779.124     4288.511        5.830        1.993      277.013       52.100        0.035      334.875        5.133      853.332
03/27/2014  01:19:00     -269.509     -202.930      -12.654      160.999      108.281       60.306    25920.827    11724.799     3636.825        7.762        2.064      337.366       74.557        0.049      334.847        5.086      853.322
03/27/2014  01:20:00     -376.968     -234.125       -0.437      223.325      149.887       89.775    49873.905    22466.247     8059.572       13.864        4.020      443.756      110.157        0.062      334.901        5.177      853.311
03/27/2014  01:21:00     -268.165     -240.331       -3.361      141.980      102.539       74.156    20158.190    10514.195     5499.055        8.292        1.809      360.100       77.629        0.046      334.871        5.126      853.360
03/27/2014  01:22:00     -284.599     -217.192       -4.462      183.944      132.590       74.970    33835.360    17580.187     5620.481        9.260        2.852      358.007       82.176        0.053      334.862        5.111      853.344
03/27/2014  01:23:00      -98.228     -154.879       10.208       98.275      118.585       53.953     9657.958    14062.370     2910.931        3.018        1.332      183.402       51.031        0.077      334.881        5.144      853.330
03/27/2014  01:24:00     -386.904     -206.420      -11.914      241.367      125.061       68.754    58258.157    15640.373     4727.092       13.552        3.931      438.524       83.173        0.036      334.816        5.033      853.352
03/27/2014  01:25:00     -321.169     -164.605      -11.683      190.060      156.159       84.182    36122.733    24385.514     7086.595        9.897        3.380      360.893       87.378        0.059      334.841        5.077      853.400
03/27/2014  01:26:00     -482.952     -245.904      -16.048      216.768      184.392       93.412    46988.371    34000.559     8725.830       19.182        4.486      541.951      106.782        0.039      334.889        5.157      853.413
03/27/2014  01:27:00     -188.161     -311.367       -4.904      183.093      161.932       73.787    33522.969    26221.917     5444.484        9.877        3.259      363.804       57.330        0.025      334.911        5.194      853.417
03/27/2014  01:28:00     -134.886     -183.683       33.862      148.135      151.273       73.768    21944.103    22883.436     5441.765        5.166        2.513      227.890       77.305        0.115      334.911        5.193      853.397
03/27/2014  01:29:00      -99.313     -125.104       13.549      121.850      107.676       55.468    14847.314    11594.212     3076.693        2.760        1.476      159.731       50.149        0.099      334.922        5.212      853.415
03/27/2014  01:30:00     -326.067     -149.840      -10.026      158.501      116.696       63.978    25122.499    13617.860     4093.125        8.584        2.142      358.848       72.351        0.041      334.887        5.153      853.399
03/27/2014  01:31:00     -233.874      -94.057       21.082      158.754      121.231       75.148    25202.873    14696.862     5647.287        5.476        2.277      252.079       87.363        0.120      334.848        5.088      853.409
03/27/2014  01:32:00     -206.771      -81.509      -13.894      143.548      124.289       74.420    20605.907    15447.734     5538.264        4.558        2.080      222.257       80.358        0.131      334.806        5.020      853.403
03/27/2014  01:33:00     -188.784     -134.863      -11.420       94.577      103.722       57.196     8944.880    10758.200     3271.335        3.846        1.149      232.007       53.768        0.054      334.804        5.015      853.399
03/27/2014  01:34:00     -275.947     -167.191        1.873      129.717       98.687       61.160    16826.595     9739.139     3740.566        6.720        1.515      322.645       61.332        0.036      334.790        4.992      853.369
03/27/2014  01:35:00     -139.402     -288.782        2.863      144.604      164.632       68.795    20910.257    27103.701     4732.745        7.778        2.637      320.668       58.244        0.033      334.849        5.089      853.418
03/27/2014  01:36:00     -234.023      -35.963        3.621      161.664      122.678       67.016    26135.207    15049.800     4491.176        5.087        2.284      236.770       74.783        0.100      334.869        5.124      853.414
03/27/2014  01:37:00     -258.309     -133.705       -3.925      127.800      107.547       61.004    16332.722    11566.453     3721.516        5.811        1.581      290.862       64.876        0.050      334.853        5.096      853.427
03/27/2014  01:38:00      -81.853      -61.926       10.112       79.607       62.411       37.229     6337.237     3895.082     1385.971        1.113        0.581      102.639       37.110        0.131      334.872        5.131      853.468
03/27/2014  01:39:00     -214.169      -93.353        2.587      115.734       84.382       50.289    13394.404     7120.276     2529.033        3.881        1.152      233.631       57.401        0.060      334.817        5.038      853.501
03/27/2014  01:40:00     -338.407     -106.111      -14.349      200.730      108.768       71.072    40292.495    11830.393     5051.213        9.157        2.859      354.653       84.392        0.057      334.889        5.158      853.517
03/27/2014  01:41:00     -307.180     -106.106       23.530      211.659      150.914       80.253    44799.477    22775.168     6440.469        9.008        3.701      324.989       98.621        0.092      334.905        5.183      853.509
03/27/2014  01:42:00     -305.545      -94.103      -11.081      135.436       87.212       53.137    18343.022     7606.014     2823.557        6.555        1.439      319.708       57.579        0.032      334.867        5.119      853.501
03/27/2014  01:43:00     -120.037      -33.229       31.615      113.363       92.821       50.632    12851.194     8615.675     2563.600        2.027        1.202      124.552       55.383        0.198      334.876        5.137      853.497
03/27/2014  01:44:00     -202.211      -33.878       14.598      139.287      104.817       60.102    19400.777    10986.636     3612.304        3.812        1.700      205.029       54.552        0.071      334.886        5.152      853.504
03/27/2014  01:45:00     -204.053     -102.929        6.960      193.139       98.437       49.037    37302.715     9689.822     2404.612        5.083        2.470      228.543       64.316        0.079      334.916        5.203      853.527
03/27/2014  01:46:00      -46.642      -48.810       13.265       66.940       68.736       33.314     4480.981     4724.689     1109.843        0.752        0.516       67.513       28.087        0.173      334.913        5.199      853.524
03/27/2014  01:47:00      -91.270     -120.498       -8.762      109.649       84.478       36.779    12022.975     7136.592     1352.686        2.172        1.026      151.162       29.244        0.037      334.947        5.254      853.548
03/27/2014  01:48:00      -51.625      -25.407       15.610       61.195       86.632       39.311     3744.782     7505.018     1545.350        0.817        0.640       57.538       29.975        0.271      335.030        5.394      853.518
03/27/2014  01:49:00     -173.479      -62.604       -5.371       90.101       57.055       32.057     8118.273     3255.218     1027.663        2.322        0.620      184.430       26.905        0.021      334.914        5.199      853.535
03/27/2014  01:50:00     -260.435      -89.488       -7.526      104.017      104.598       46.295    10819.571    10940.831     2143.268        4.989        1.195      275.381       35.968        0.017      334.913        5.197      853.564
03/27/2014  01:51:00     -125.616      -43.672        9.692      104.353       86.904       43.778    10889.586     7552.284     1916.474        1.907        1.018      132.991       41.204        0.096      334.938        5.241      853.588
03/27/2014  01:52:00     -143.792     -110.966        7.973      140.363       88.848       44.028    19701.848     7893.918     1938.503        3.129        1.477      181.630       44.366        0.060      334.928        5.224      853.616
03/27/2014  01:53:00     -143.773      -91.440       -3.478       83.470       86.649       45.259     6967.293     7508.020     2048.391        2.278        0.826      170.388       23.193        0.019      334.933        5.230      853.622
03/27/2014  01:54:00     -127.428     -142.169        4.595       87.336       56.685       42.795     7627.584     3213.233     1831.453        2.457        0.634      190.918       39.914        0.044      334.943        5.248      853.646
03/27/2014  01:55:00     -172.774     -120.025        6.851      113.792       72.049       52.739    12948.607     5191.113     2781.377        3.261        1.046      210.373       60.174        0.082      334.897        5.170      853.625
03/27/2014  01:56:00     -127.328      -42.477        7.389       65.780       57.925       30.119     4326.945     3355.362      907.175        1.333        0.429      134.227       24.788        0.034      334.890        5.158      853.660
03/27/2014  01:57:00     -114.033      -66.000      -15.815       61.534       70.542       32.131     3786.488     4976.196     1032.376        1.370        0.490      131.756       28.205        0.046      334.885        5.152      853.703
03/27/2014  01:58:00      -20.539      -71.290       27.961       66.938       75.813       37.954     4480.684     5747.539     1440.522        0.898        0.583       74.190       29.826        0.162      334.905        5.186      853.701
03/27/2014  01:59:00      -55.831      -65.912       -9.940       86.279       42.656       18.806     7443.986     1819.564      353.668        0.859        0.481       86.380       13.047        0.023      334.968        5.290      853.746
03/27/2014  02:00:00     -117.473     -125.043       -6.187       94.490       57.220       36.003     8928.280     3274.180     1296.225        2.148        0.675      171.568       38.428        0.050      334.870        5.127      853.770
03/27/2014  02:01:00      -53.240     -109.504       12.710       63.668      100.264       31.309     4053.585    10052.880      980.251        1.503        0.754      121.761       24.672        0.041      334.914        5.201      853.726
03/27/2014  02:02:00      -82.162     -124.453        2.219      101.499       83.092       37.208    10301.994     6904.341     1384.455        2.041        0.930      149.128       49.142        0.109      334.937        5.238      853.785
03/27/2014  02:03:00        7.727      -69.382       24.981       53.846       85.255       42.461     2899.429     7268.465     1802.969        0.873        0.599       69.811       48.578        0.484      335.066        5.455      853.788
03/27/2014  02:04:00       14.975      -78.864      -30.674       62.909       60.743       30.920     3957.591     3689.721      956.024        0.799        0.430       80.273       30.778        0.147      335.073        5.465      853.830
03/27/2014  02:05:00     -180.697     -101.349        4.042       72.698       55.420       36.175     5284.996     3071.392     1308.596        2.630        0.483      207.179       33.329        0.026      334.976        5.302      853.863
03/27/2014  02:06:00     -202.679       -8.327        1.660      119.490       92.106       52.145    14277.896     8483.437     2719.053        3.331        1.274      202.850       55.254        0.074      334.926        5.220      853.845
03/27/2014  02:07:00     -260.321      -54.820        7.802      121.705      120.023       70.405    14812.152    14405.618     4956.863        5.250        1.709      266.030       67.681        0.065      334.905        5.184      853.816
03/27/2014  02:08:00     -191.695     -107.468       -2.433      112.566       71.055       39.971    12671.060     5048.767     1597.689        3.381        0.966      219.765       44.343        0.041      334.934        5.233      853.851
03/27/2014  02:09:00       55.122      -80.873       30.853      115.129      120.567       78.086    13254.620    14536.332     6097.349        2.220        1.694       97.872       85.954        0.771      334.937        5.237      853.868
03/27/2014  02:10:00      -37.483       37.526       25.255       77.936       44.574       47.802     6074.071     1986.808     2284.999        0.690        0.517       53.039       38.276        0.521      334.949        5.259      853.778
03/27/2014  02:11:00      -88.828     -113.637        9.286      102.485       65.738       46.168    10503.270     4321.487     2131.505        1.892        0.848      144.235       39.678        0.076      335.012        5.364      853.824
03/27/2014  02:12:00       42.975      -12.971       43.513       62.803      107.970       77.896     3944.158    11657.574     6067.772        1.278        1.083       44.890       84.706        3.561      335.006        5.353      853.824
03/27/2014  02:13:00       61.438      -28.211       38.319       44.949       71.605       51.781     2020.375     5127.303     2681.234        0.793        0.491       67.606       58.527        0.749      334.966        5.288      853.776
03/27/2014  02:14:00       39.163       12.165       51.544       59.248       65.138       60.962     3510.297     4242.959     3716.354        0.790        0.573       41.009       55.684        1.844      334.951        5.262      853.735
03/27/2014  02:15:00        2.502       35.555       96.624       54.621      104.311       54.835     2983.460    10880.848     3006.827        1.374        0.844       35.643       69.867        3.842      334.942        5.247      853.693
03/27/2014  02:16:00      -47.605      -42.510       -3.839       38.432       48.277       21.488     1477.030     2330.669      461.735        0.418        0.213       63.822       18.757        0.086      335.058        5.441      853.713
03/27/2014  02:17:00      -10.436      -40.123        1.655       29.694       28.666       24.381      881.738      821.726      594.440        0.201        0.115       41.458       15.720        0.144      335.047        5.423      853.720
03/27/2014  02:18:00      -28.601      -88.010      -11.751       51.794       43.925       28.023     2682.645     1929.391      785.307        0.705        0.270       92.541       19.486        0.044      335.018        5.374      853.755
03/27/2014  02:19:00     -124.316      -50.950       -6.930       71.989       50.918       36.293     5182.393     2592.636     1317.199        1.359        0.455      134.352       41.291        0.094      334.937        5.238      853.841
03/27/2014  02:20:00       18.010       22.264       18.567       66.049       62.884       36.044     4362.424     3954.368     1299.134        0.539        0.481       28.636       41.122        2.062      334.908        5.191      853.800
03/27/2014  02:21:00      -71.782     -106.444        6.259       87.510       80.970       47.026     7657.978     6556.196     2211.478        1.647        0.821      128.386       41.589        0.105      334.891        5.163      853.852
03/27/2014  02:22:00      -34.145        0.141       20.796      120.649       64.213       57.455    14556.076     4123.305     3301.099        1.179        1.099       34.145       35.535        1.083      334.851        5.095      853.775
03/27/2014  02:23:00     -218.000      -69.684      -14.337      123.574       86.840       49.958    15270.541     7541.201     2495.791        3.894        1.265      228.866       57.703        0.064      334.818        5.039      853.755
03/27/2014  02:24:00     -346.485     -158.698       -0.598      151.462      140.258       62.350    22940.802    19672.384     3887.492        9.586        2.325      381.100       63.026        0.027      334.772        4.962      853.731
03/27/2014  02:25:00     -259.717     -164.983       -8.799      139.922      131.615       66.950    19578.302    17322.624     4482.311        6.806        2.069      307.688       72.093        0.055      334.801        5.011      853.745
03/27/2014  02:26:00      -93.312      -66.824        3.242       85.315       44.914       30.545     7278.634     2017.253      933.014        1.170        0.511      114.772       21.203        0.034      334.821        5.046      853.788
03/27/2014  02:27:00       27.848      -65.431        2.781       55.636       72.115       32.998     3095.343     5200.635     1088.887        0.722        0.469       71.110       36.902        0.269      335.013        5.366      853.801
03/27/2014  02:28:00       45.834       -4.694       47.827       47.046       73.023       53.282     2213.357     5332.409     2839.022        0.740        0.519       46.074       55.698        1.461      334.918        5.209      853.805
03/27/2014  02:29:00       37.350       37.961       53.492       38.216       55.395       40.317     1460.469     3068.644     1625.432        0.592        0.308       53.254       34.064        0.409      334.868        5.124      853.819
03/27/2014  02:30:00       52.055       62.048       86.034       64.718       54.792       43.629     4188.406     3002.169     1903.510        1.153        0.455       80.992       41.129        0.258      334.881        5.147      853.808
03/27/2014  02:31:00      136.212      137.962       74.123       62.528       45.958       55.515     3909.694     2112.160     3081.922        2.609        0.455      193.874       42.912        0.049      334.859        5.108      853.779
03/27/2014  02:32:00      157.436       86.247       62.492       95.580       72.330       71.954     9135.602     5231.592     5177.316        2.783        0.977      179.512       65.969        0.135      334.801        5.010      853.757
03/27/2014  02:33:00      214.481      113.273       17.453       72.144       46.192       46.414     5204.751     2133.711     2154.248        3.431        0.475      242.554       25.184        0.011      334.768        4.956      853.755
03/27/2014  02:34:00      156.022       75.923        4.428       60.214       38.514       32.146     3625.707     1483.362     1033.364        1.813        0.307      173.514       21.127        0.015      334.797        5.006      853.759
03/27/2014  02:35:00      118.758       68.084       10.581       44.436       39.631       32.882     1974.576     1570.651     1081.207        1.174        0.231      136.890       18.447        0.018      334.729        4.893      853.760
03/27/2014  02:36:00       79.693       84.350       69.035       64.692       46.725       51.171     4185.064     2183.214     2618.522        1.361        0.449      116.043       48.817        0.177      334.722        4.880      853.772
03/27/2014  02:37:00       92.286       95.885       89.058       60.471       66.828       55.159     3656.737     4465.962     3042.521        1.840        0.558      133.081       41.474        0.097      334.846        5.088      853.793
03/27/2014  02:38:00       61.348       67.587       91.387       55.578       77.936       41.334     3088.939     6074.033     1708.466        1.378        0.544       91.277       34.563        0.143      334.923        5.217      853.818
03/27/2014  02:39:00       32.414       45.097       74.055       44.632       57.783       33.100     1992.033     3338.869     1095.583        0.750        0.321       55.538       37.048        0.445      334.878        5.142      853.852
03/27/2014  02:40:00       59.106      -19.271       29.472       45.170       53.254       37.566     2040.291     2835.950     1411.208        0.551        0.314       62.168       40.515        0.425      334.892        5.165      853.888
03/27/2014  02:41:00       61.387      -43.081       18.037       47.965       57.372       42.398     2300.599     3291.515     1797.558        0.667        0.369       74.996       42.487        0.321      334.946        5.254      853.928
03/27/2014  02:42:00       31.495      -36.658       37.476       52.148       49.544       35.812     2719.459     2454.632     1282.515        0.510        0.323       48.330       28.801        0.355      334.981        5.312      853.939
03/27/2014  02:43:00       -5.000        4.144       14.341       26.127       20.880       18.981      682.640      435.992      360.280        0.086        0.074        6.494       10.795        2.763      334.979        5.310      853.924
03/27/2014  02:44:00      -23.111       19.116       14.646       43.202       27.932       24.118     1866.380      780.214      581.662        0.217        0.161       29.992       26.479        0.779      334.933        5.233      853.894
03/27/2014  02:45:00        2.263        1.955        7.289       18.211       19.840       17.364      331.632      393.607      301.526        0.054        0.051        2.990       16.116       29.048      334.913        5.200      853.910
03/27/2014  02:46:00      -27.653       27.714        2.331       24.065       21.469       14.937      579.123      460.901      223.122        0.140        0.063       39.150       12.307        0.099      334.841        5.080      853.908
03/27/2014  02:47:00      -37.518       55.382       -4.285       45.216       25.154       18.646     2044.445      632.742      347.661        0.376        0.151       66.894       25.113        0.141      334.863        5.117      853.879
03/27/2014  02:48:00      -51.950      103.361      -11.399       51.785       46.921       25.115     2681.655     2201.572      630.773        0.951        0.276      115.681       24.101        0.043      335.005        5.351      853.854
03/27/2014  02:49:00     -157.429      139.831      -36.447       46.466       62.416       28.286     2159.063     3895.776      800.112        2.626        0.343      210.563       32.645        0.024      334.778        4.972      853.836
03/27/2014  02:50:00      -82.811      124.809      -22.484       59.177       45.568       30.698     3501.903     2076.421      942.368        1.473        0.326      149.783       34.323        0.053      334.831        5.062      853.829
03/27/2014  02:51:00      -31.943      124.566      -23.331       36.035       60.615       20.938     1298.494     3674.129      438.418        1.125        0.271      128.596       23.863        0.034      334.836        5.071      853.850
03/27/2014  02:52:00       -3.124       54.783       -1.282       23.943       34.745       20.348      573.265     1207.186      414.061        0.260        0.110       54.872       18.080        0.109      334.830        5.063      853.902
03/27/2014  02:53:00      -20.352       69.645        8.913       36.297       74.798       23.306     1317.441     5594.772      543.179        0.640        0.373       72.558       31.043        0.183      334.773        4.967      853.959
03/27/2014  02:54:00       10.767      131.528       -2.963       43.085       65.545       35.082     1856.300     4296.160     1230.712        1.240        0.369      131.968       36.139        0.075      334.802        5.014      853.959
03/27/2014  02:55:00      122.845      113.536        6.278       68.303       41.858       40.043     4665.303     1752.071     1603.412        1.802        0.401      167.276       27.496        0.027      334.654        4.768      853.905
03/27/2014  02:56:00     -117.438       61.573      -29.527      117.726       61.772       29.604    13859.331     3815.801      876.405        1.850        0.928      132.601       27.885        0.044      334.765        4.951      853.914
03/27/2014  02:57:00     -246.085       22.588      -41.054       46.840       42.671       23.872     2193.974     1820.816      569.893        3.367        0.229      247.119       17.634        0.005      334.771        4.957      853.931
03/27/2014  02:58:00     -106.193      -67.206       -9.113       78.844       47.311       44.130     6216.408     2238.337     1947.461        1.314        0.520      125.673       50.253        0.160      334.720        4.877      853.918
03/27/2014  02:59:00      -84.720        5.028      -21.973       45.255       72.359       29.705     2047.995     5235.761      882.370        0.792        0.408       84.869       21.549        0.064      334.730        4.893      853.919
03/27/2014  03:00:00      -77.100       29.321      -18.230       47.238       78.032       29.774     2231.426     6088.961      886.479        0.817        0.460       82.487       23.620        0.082      334.722        4.881      853.915
03/27/2014  03:01:00      -24.985      -52.552       19.954       68.742      108.436       51.215     4725.406    11758.282     2622.927        1.144        0.955       58.189       57.191        0.966      334.737        4.907      853.928
03/27/2014  03:02:00       -3.523      -47.801        7.641       85.515       97.261       52.871     7312.828     9459.633     2795.364        1.096        0.978       47.931       62.781        1.716      334.763        4.950      853.893
03/27/2014  03:03:00     -208.612        7.823      -18.875      115.340      121.955       45.699    13303.338    14873.076     2088.383        3.709        1.513      208.759       47.819        0.052      334.682        4.812      853.893
03/27/2014  03:04:00     -220.304      117.877      -11.894      177.389      120.000       67.173    31466.755    14399.883     4512.220        5.646        2.519      249.858       75.240        0.091      334.632        4.731      853.820
03/27/2014  03:05:00     -248.513      -61.950      -21.271       81.951       87.517       49.212     6716.041     7659.207     2421.846        4.142        0.840      256.118       47.443        0.034      334.642        4.745      853.887
03/27/2014  03:06:00     -244.016      -95.784      -34.525       99.670      101.915       47.902     9934.137    10386.707     2294.642        4.626        1.131      262.142       47.379        0.033      334.640        4.743      853.897
03/27/2014  03:07:00     -350.310       -7.151      -38.713       98.754       95.616       48.405     9752.358     9142.364     2343.023        7.275        1.062      350.383       53.336        0.023      334.584        4.648      853.918
03/27/2014  03:08:00     -241.023      -52.528      -22.514      156.606      122.217       65.004    24525.476    14937.034     4225.549        5.251        2.184      246.680       82.444        0.112      334.559        4.608      853.901
03/27/2014  03:09:00     -201.208      -22.636       -0.843       80.473       89.391       47.770     6475.850     7990.774     2281.935        2.887        0.837      202.477       44.711        0.049      334.553        4.596      853.904
03/27/2014  03:10:00     -163.372      -44.838        6.551       92.282       70.715       45.822     8515.897     5000.549     2099.700        2.218        0.781      169.414       51.805        0.094      334.545        4.586      853.890
03/27/2014  03:11:00     -258.729     -152.115      -26.371      126.532      174.279       64.354    16010.468    30373.072     4141.379        7.064        2.526      300.133       64.101        0.046      334.585        4.649      853.905
03/27/2014  03:12:00     -132.600      -36.779       -6.976       98.073       49.646       37.769     9618.366     2464.690     1426.501        1.624        0.675      137.606       53.853        0.153      334.569        4.627      853.922
03/27/2014  03:13:00     -143.575     -155.617        5.249      184.206      129.507       68.835    33931.949    16772.138     4738.263        5.014        2.772      211.732       70.485        0.111      334.583        4.649      853.963
03/27/2014  03:14:00     -240.088     -185.630        0.879      163.119      116.078       66.328    26607.795    13474.173     4399.348        6.828        2.224      303.481       87.373        0.083      334.558        4.605      853.944
03/27/2014  03:15:00     -274.907     -188.279        0.227      172.345      126.373       71.408    29702.861    15970.111     5099.171        8.089        2.539      333.201       83.187        0.062      334.575        4.635      853.961
03/27/2014  03:16:00     -235.254     -142.709       -4.012      153.564      124.078       61.338    23581.848    15395.446     3762.361        5.922        2.137      275.155       55.991        0.041      334.560        4.609      853.963
03/27/2014  03:17:00     -149.815     -104.853      -10.167      140.694       68.279       43.242    19794.692     4662.001     1869.871        2.993        1.316      182.862       42.896        0.055      334.578        4.640      853.966
03/27/2014  03:18:00     -114.062      -75.937       -1.988       91.223       80.528       44.472     8321.555     6484.738     1977.731        1.778        0.839      137.027       45.435        0.110      334.628        4.723      853.975
03/27/2014  03:19:00     -119.853     -165.861        6.147       91.992       70.790       51.796     8462.437     5011.252     2682.809        2.903        0.808      204.632       49.125        0.058      334.625        4.719      854.050
03/27/2014  03:20:00     -199.921     -294.345        3.853      271.662      150.769       81.375    73800.168    22731.258     6621.883       11.487        5.158      355.819      104.368        0.086      334.661        4.776      854.060
03/27/2014  03:21:00     -231.834     -236.525      -13.615      155.584      161.207       79.074    24206.445    25987.565     6252.687        8.315        2.822      331.197       86.673        0.068      334.670        4.793      854.053
03/27/2014  03:22:00     -141.683        8.493      -12.333      151.407       81.134       60.774    22924.095     6582.726     3693.510        2.674        1.660      141.937       78.405        0.305      334.646        4.754      854.049
03/27/2014  03:23:00     -105.660     -102.865       16.921       76.271       84.594       44.519     5817.293     7156.121     1981.918        1.849        0.748      147.463       38.762        0.069      334.625        4.719      854.049
03/27/2014  03:24:00     -430.172     -115.591      -16.919      263.276      174.443       77.837    69314.405    30430.281     6058.550       15.223        5.290      445.432       97.516        0.048      334.599        4.675      854.049
03/27/2014  03:25:00     -320.682     -245.880       -7.459      200.067      168.369       91.504    40026.821    28348.261     8372.978       12.003        3.837      404.097      100.999        0.062      334.611        4.694      854.073
03/27/2014  03:26:00     -337.510     -260.543      -13.955      168.180      135.365      101.104    28284.371    18323.622    10222.023       11.940        2.842      426.375       91.563        0.046      334.593        4.664      854.024
03/27/2014  03:27:00     -199.129      -24.209       24.179      192.789      115.593       97.982    37167.554    13361.765     9600.518        5.046        3.006      200.596      115.081        0.329      334.607        4.686      854.004
03/27/2014  03:28:00     -345.183     -283.404      -12.509      162.814      150.382       82.682    26508.555    22614.834     6836.380       12.778        2.798      446.620       84.168        0.036      334.602        4.678      854.022
03/27/2014  03:29:00     -291.167     -183.868       16.329      260.057      161.112      109.262    67629.539    25957.035    11938.089       11.217        5.276      344.363      101.415        0.087      334.608        4.688      854.046
03/27/2014  03:30:00     -360.193     -220.077      -21.570      153.341      119.021       73.484    23513.544    14165.944     5399.956       11.085        2.154      422.105       69.081        0.027      334.584        4.648      854.065
03/27/2014  03:31:00     -200.522     -128.369       13.510      147.196      122.907       61.795    21666.731    15106.127     3818.572        4.872        2.030      238.091       75.439        0.100      334.575        4.635      854.032
03/27/2014  03:32:00     -268.012     -172.389       -0.815      163.160      122.516       65.939    26621.340    15010.093     4347.989        7.376        2.299      318.667       65.297        0.042      334.552        4.596      854.015
03/27/2014  03:33:00     -238.241     -126.895       -0.980      195.181      194.714       90.484    38095.524    37913.611     8187.361        7.851        4.210      269.928      111.790        0.172      334.534        4.564      854.023
03/27/2014  03:34:00     -343.985     -143.228      -26.917      122.520      149.672       75.541    15011.085    22401.820     5706.405        9.133        2.156      372.613       60.231        0.026      334.534        4.566      853.971
03/27/2014  03:35:00     -149.692      -73.353        9.238      121.259       89.179       50.768    14703.706     7952.870     2577.353        2.655        1.262      166.698       48.869        0.086      334.559        4.609      853.970
03/27/2014  03:36:00     -126.823      -11.976        3.982      128.781       72.261       56.919    16584.448     5221.628     3239.760        2.064        1.252      127.388       62.057        0.237      334.577        4.639      853.962
03/27/2014  03:37:00     -177.515      -90.688        6.338      165.426      112.988       69.415    27365.763    12766.256     4818.434        4.235        2.248      199.339       88.566        0.197      334.512        4.531      853.985
03/27/2014  03:38:00     -299.726     -140.775      -14.474      153.279      117.855       71.750    23494.320    13889.854     5147.996        7.619        2.127      331.139       75.667        0.052      334.472        4.465      853.916
03/27/2014  03:39:00     -477.656     -132.932      -25.640      205.680      201.192       85.143    42304.296    40478.075     7249.294       16.824        4.502      495.809       86.280        0.030      334.496        4.501      853.899
03/27/2014  03:40:00     -205.568      -38.497       -0.857      154.902       94.100       51.959    23994.721     8854.722     2699.759        3.964        1.777      209.142       61.182        0.086      334.488        4.492      853.900
03/27/2014  03:41:00     -176.277     -119.967       10.245      148.280      109.075       65.060    21986.960    11897.414     4232.779        4.184        1.906      213.227       69.025        0.105      334.418        4.375      853.892
03/27/2014  03:42:00     -335.674     -155.366      -17.080      154.307      147.271       68.304    23810.754    21688.787     4665.475        9.363        2.508      369.886       75.045        0.041      334.392        4.331      853.894
03/27/2014  03:43:00     -343.445     -164.424       -9.419      149.135      115.731       75.231    22241.100    13393.590     5659.774        9.318        2.065      380.775       85.032        0.050      334.394        4.334      853.891
03/27/2014  03:44:00     -287.623      -78.542        4.671      162.147      120.059       78.301    26291.752    14414.045     6130.985        6.787        2.342      298.154       83.350        0.078      334.400        4.345      853.885
03/27/2014  03:45:00     -272.925     -122.519       12.188      185.967      110.152       74.013    34583.715    12133.423     5477.877        7.091        2.610      299.164       73.402        0.060      334.385        4.319      853.887
03/27/2014  03:46:00     -289.685     -109.755      -16.284      150.959      108.017       61.899    22788.482    11667.623     3831.479        6.725        1.914      309.780       60.984        0.039      334.342        4.249      853.926
03/27/2014  03:47:00     -233.475      -40.521       -7.062      109.838       89.431       44.751    12064.494     7997.898     2002.653        3.913        1.103      236.965       52.150        0.048      334.332        4.230      853.941
03/27/2014  03:48:00     -237.825      -89.746      -12.558      140.269      103.845       54.485    19675.285    10783.709     2968.625        4.909        1.671      254.195       56.613        0.050      334.342        4.250      853.958
03/27/2014  03:49:00     -349.699      -54.227      -12.597      187.696      137.840       65.984    35229.970    18999.973     4353.896        9.197        2.929      353.878       81.048        0.052      334.392        4.332      853.874
03/27/2014  03:50:00     -141.728      -64.783        6.900      117.323       77.475       56.083    13764.751     6002.431     3145.344        2.362        1.146      155.832       51.365        0.109      334.392        4.333      853.883
03/27/2014  03:51:00     -240.792      -83.016       11.511      195.821      110.657       60.699    38345.772    12244.877     3684.361        5.963        2.714      254.701       60.864        0.057      334.385        4.320      853.923
03/27/2014  03:52:00     -250.515     -149.059      -12.763      145.648      128.021       63.823    21213.361    16389.397     4073.418        6.340        2.084      291.507       65.031        0.050      334.452        4.431      853.891
03/27/2014  03:53:00     -211.900      -79.241       10.782      152.203      123.713       64.412    23165.869    15304.819     4148.883        4.695        2.131      226.232       69.462        0.094      334.390        4.328      853.927
03/27/2014  03:54:00     -130.648      -99.473       -1.614      105.753       86.637       54.837    11183.672     7505.930     3007.063        2.433        1.085      164.206       59.198        0.130      334.416        4.372      853.983
03/27/2014  03:55:00     -550.453      -78.673      -52.508      264.298      185.568       91.480    69853.376    34435.534     8368.556       21.228        5.633      556.046      109.480        0.039      334.384        4.318      854.005
03/27/2014  03:56:00     -524.330     -100.575      -41.264      275.277      155.732       85.711    75777.255    24252.378     7346.451       19.704        5.369      533.889      107.618        0.041      334.395        4.337      854.000
03/27/2014  03:57:00     -410.248      -99.811      -14.279      281.946      127.936       89.646    79493.404    16367.547     8036.421       14.116        5.195      422.215      114.772        0.074      334.425        4.387      853.933
03/27/2014  03:58:00     -326.599     -143.893      -27.513      106.615      113.769       55.169    11366.675    12943.484     3043.627        7.774        1.368      356.892       37.198        0.011      334.431        4.397      853.976
03/27/2014  03:59:00     -328.437     -216.989      -10.656      189.921      195.567       79.522    36070.129    38246.445     6323.703       11.784        4.032      393.644       81.605        0.043      334.428        4.391      853.974
03/27/2014  04:00:00     -267.391     -171.038       14.842      173.965      144.304       83.754    30263.828    20823.788     7014.705        7.953        2.905      317.415       90.068        0.081      334.412        4.365      853.955
03/27/2014  04:01:00      -84.946      -41.772       -1.118      111.605       84.698       49.246    12455.773     7173.756     2425.121        1.550        1.103       94.661       39.950        0.178      334.448        4.426      853.965
03/27/2014  04:02:00     -251.853      -87.585      -15.786      105.993       82.694       50.695    11234.488     6838.357     2569.957        4.599        1.032      266.648       38.879        0.021      334.393        4.331      853.946
03/27/2014  04:03:00     -171.130      -67.565       14.073      128.622       99.123       54.371    16543.597     9825.395     2956.256        3.168        1.466      183.985       62.479        0.115      334.412        4.366      853.958
03/27/2014  04:04:00     -213.445     -137.290       -1.230      151.300      102.711       71.656    22891.777    10549.464     5134.573        5.148        1.929      253.786       72.653        0.082      334.402        4.348      853.962
03/27/2014  04:05:00     -230.623     -108.351        4.773      125.602      127.967       65.878    15775.891    16375.459     4339.976        5.071        1.825      254.807       75.899        0.089      334.394        4.336      853.957
03/27/2014  04:06:00     -267.859      -98.133       -4.913      160.527      123.021       64.751    25769.050    15134.094     4192.644        6.324        2.255      285.269       72.621        0.065      334.448        4.423      853.986
03/27/2014  04:07:00     -267.742      -74.208       -7.739      118.597       86.946       52.584    14065.302     7559.541     2765.111        5.082        1.219      277.836       58.496        0.044      334.455        4.437      854.011
03/27/2014  04:08:00     -232.285       22.092       -8.991      100.335       86.061       60.835    10067.207     7406.447     3700.899        3.785        1.059      233.333       55.411        0.056      334.456        4.436      854.027
03/27/2014  04:09:00     -235.950      -42.944       -9.221       78.932       77.758       37.007     6230.307     6046.263     1369.537        3.562        0.682      239.826       25.579        0.011      334.433        4.400      854.054
03/27/2014  04:10:00     -157.373       -6.601       -6.669       67.573       59.962       44.103     4566.080     3595.431     1945.072        1.748        0.505      157.511       41.234        0.069      334.432        4.402      854.042
03/27/2014  04:11:00     -123.609      -50.755        2.282       86.247       74.750       40.169     7438.546     5587.595     1613.565        1.625        0.732      133.624       44.075        0.109      334.406        4.358      854.035
03/27/2014  04:12:00     -130.181      -19.553        4.991      114.020       71.563       48.562    13000.521     5121.334     2358.275        1.891        1.024      131.641       55.933        0.181      334.428        4.393      854.037
03/27/2014  04:13:00     -129.002     -108.241       -5.810       79.006       80.160       36.072     6241.895     6425.660     1301.161        2.118        0.698      168.397       42.806        0.065      334.512        4.530      854.078
03/27/2014  04:14:00      -69.746      -53.326        0.865      137.495       56.756       41.751    18904.801     3221.298     1743.175        1.578        1.193       87.796       54.341        0.383      334.552        4.597      854.062
03/27/2014  04:15:00     -151.838      -81.177       -6.096       91.764       89.075       54.993     8420.714     7934.403     3024.258        2.453        0.969      172.176       38.790        0.051      334.560        4.612      854.082
03/27/2014  04:16:00     -185.796     -141.542       18.251      151.755      117.282       72.939    23029.433    13755.013     5320.149        4.849        2.105      233.569       80.575        0.119      334.566        4.619      854.051
03/27/2014  04:17:00     -125.149      -87.576       -9.231       98.235       86.127       37.956     9650.075     7417.838     1440.650        2.096        0.925      152.748       46.974        0.095      334.590        4.660      854.067
03/27/2014  04:18:00       -0.212        4.986       -7.737       36.990       38.364       31.613     1368.257     1471.832      999.366        0.196        0.192        4.990       30.869       38.266      334.565        4.620      854.062
03/27/2014  04:19:00       -2.221       41.129        9.605       28.554       34.803       28.898      815.327     1211.238      835.101        0.232        0.143       41.189       21.866        0.282      334.661        4.779      854.040
03/27/2014  04:20:00       34.049       38.818       -1.249       37.203       24.617       23.709     1384.040      605.980      562.119        0.261        0.128       51.635       15.675        0.092      334.609        4.696      854.082
03/27/2014  04:21:00       -8.849        6.512       -2.123       37.660       52.319       17.661     1418.257     2737.259      311.912        0.230        0.223       10.987       23.494        4.573      334.550        4.596      854.141
03/27/2014  04:22:00       39.596       49.020       54.335       58.107       58.899       39.583     3376.382     3469.121     1566.803        0.767        0.421       63.014       25.178        0.160      334.601        4.680      854.175
03/27/2014  04:23:00       87.519       54.265       12.303       37.185       34.966       31.465     1382.697     1222.637      990.046        0.717        0.180      102.977       20.236        0.039      334.500        4.512      854.175
03/27/2014  04:24:00       38.041       48.017       -6.172       48.037       30.158       27.291     2307.579      909.526      744.787        0.388        0.198       61.260       18.018        0.087      334.458        4.444      854.168
03/27/2014  04:25:00        7.578       78.148      -10.128       26.711       36.549       19.978      713.486     1335.849      399.129        0.436        0.122       78.514       19.238        0.060      334.477        4.476      854.184
03/27/2014  04:26:00      -16.937      124.569      -18.666       24.947       25.808       18.973      622.360      666.055      359.958        0.890        0.082      125.715       11.663        0.009      334.500        4.514      854.185
03/27/2014  04:27:00      -28.980       96.921       -2.098       42.140       37.427       27.001     1775.783     1400.817      729.029        0.707        0.195      101.161       24.659        0.059      334.509        4.529      854.188
03/27/2014  04:28:00       24.207       91.438       -3.405       31.455       36.432       25.183      989.416     1327.263      634.198        0.595        0.148       94.588       16.967        0.032      334.587        4.658      854.165
03/27/2014  04:29:00       55.835       48.661        0.831       38.523       37.054       24.067     1484.055     1372.987      579.197        0.446        0.172       74.064       11.061        0.022      334.558        4.611      854.137
03/27/2014  04:30:00       57.646       39.562        3.264       36.436       31.168       25.159     1327.566      971.436      632.985        0.391        0.147       69.916       15.610        0.050      334.538        4.575      854.170
03/27/2014  04:31:00       88.152       58.225        6.801       35.669       35.930       32.281     1272.270     1290.972     1042.095        0.741        0.180      105.645       10.344        0.010      334.503        4.518      854.199
03/27/2014  04:32:00       27.715       16.215        3.145       34.379       18.628       17.190     1181.911      347.008      295.508        0.143        0.091       32.110       14.323        0.199      334.539        4.578      854.200
03/27/2014  04:33:00       10.587       71.801       -8.678       41.961       37.373       22.257     1760.733     1396.742      495.371        0.450        0.183       72.577       14.550        0.040      334.528        4.560      854.186
03/27/2014  04:34:00      -10.416      114.195       -6.435       46.483       52.985       32.300     2160.698     2807.361     1043.265        0.960        0.301      114.669       32.407        0.080      334.570        4.630      854.158
03/27/2014  04:35:00      -20.646      131.103       -7.094       30.289       31.533       21.780      917.403      994.311      474.357        1.002        0.119      132.719       19.685        0.022      334.588        4.659      854.184
03/27/2014  04:36:00      -59.950       28.914       -7.652       29.013       39.115       23.284      841.729     1529.946      542.143        0.370        0.146       66.558       19.686        0.087      334.574        4.636      854.210
03/27/2014  04:37:00      -22.340       59.969      -11.075       28.718       37.097       17.923      824.704     1376.167      321.252        0.337        0.126       63.995       20.161        0.099      334.489        4.497      854.232
03/27/2014  04:38:00       11.800       79.475      -11.155       22.803       32.160       16.383      519.984     1034.269      268.397        0.420        0.091       80.346       13.549        0.028      334.495        4.505      854.239
03/27/2014  04:39:00       88.812       51.469       -8.321       52.761       19.104       27.548     2783.679      364.961      758.916        0.726        0.195      102.648       26.582        0.067      334.491        4.500      854.258
03/27/2014  04:40:00       21.754       31.557       51.661       38.977       48.104       31.451     1519.217     2313.969      989.183        0.448        0.241       38.329       25.699        0.450      334.645        4.754      854.250
03/27/2014  04:41:00      -17.676       -8.325       17.404       43.605       35.113       16.996     1901.363     1232.889      288.851        0.205        0.171       19.538       20.252        1.074      334.611        4.698      854.259
03/27/2014  04:42:00       -6.547       -9.462        8.484       39.364       53.879       27.444     1549.527     2902.933      753.166        0.270        0.260       11.506       29.142        6.415      334.635        4.737      854.236
03/27/2014  04:43:00      -22.833     -110.678       16.335       42.758       86.842       31.469     1828.228     7541.578      990.294        1.170        0.518      113.009       21.724        0.037      334.667        4.790      854.232
03/27/2014  04:44:00       18.070       12.947       37.394       23.507       12.868       18.696      552.578      165.598      349.528        0.148        0.053       22.229       10.005        0.203      334.541        4.582      854.224
03/27/2014  04:45:00      -20.555       83.416      -20.209       57.255       58.371       22.604     3278.162     3407.165      510.957        0.749        0.360       85.911       29.711        0.120      334.489        4.495      854.244
03/27/2014  04:46:00       66.518       55.103        1.687       62.582       54.235       34.455     3916.490     2941.409     1187.119        0.775        0.402       86.377       20.637        0.057      334.388        4.329      854.222
03/27/2014  04:47:00      111.460       61.777       22.873       48.998       41.279       35.173     2400.846     1703.990     1237.139        1.105        0.267      127.435       26.541        0.043      334.442        4.417      854.219
03/27/2014  04:48:00       81.301       59.989        1.702       54.623       40.377       25.460     2983.670     1630.304      648.226        0.774        0.263      101.037       25.590        0.064      334.429        4.395      854.246
03/27/2014  04:49:00      -78.773        2.984      -12.665       66.389       61.543       27.891     4407.481     3787.550      777.924        0.767        0.449       78.829       22.047        0.078      334.484        4.485      854.248
03/27/2014  04:50:00     -174.786      -83.923       -4.237      103.585       71.765       45.872    10729.896     5150.149     2104.237        2.779        0.899      193.889       45.119        0.054      334.457        4.441      854.279
03/27/2014  04:51:00     -108.400      -66.559      -20.233      113.252       54.106       38.827    12826.072     2927.495     1507.550        1.692        0.863      127.204       35.361        0.077      334.467        4.457      854.287
03/27/2014  04:52:00       35.385       21.146       41.239       58.933       61.482       44.929     3473.051     3779.976     2018.625        0.633        0.464       41.222       35.573        0.745      334.571        4.631      854.267
03/27/2014  04:53:00      -91.081      -25.219      -10.968       75.739       54.481       27.310     5736.388     2968.209      745.824        0.925        0.473       94.508       32.709        0.120      334.502        4.515      854.301
03/27/2014  04:54:00     -242.086      -27.213      -21.838       97.076       93.319       56.245     9423.756     8708.413     3163.512        4.056        1.065      243.611       45.628        0.035      334.434        4.401      854.322
03/27/2014  04:55:00     -175.218       21.117      -24.739       57.923       63.397       30.866     3355.057     4019.154      952.685        2.004        0.416      176.486       32.261        0.033      334.412        4.367      854.286
03/27/2014  04:56:00      -74.900      -68.363       17.991       81.725       66.244       37.375     6678.952     4388.318     1396.863        1.153        0.623      101.408       46.221        0.208      334.426        4.391      854.314
03/27/2014  04:57:00      -40.772      -75.135       -1.212       42.473       43.275       34.011     1803.956     1872.728     1156.733        0.607        0.242       85.484       26.148        0.094      334.453        4.436      854.289
03/27/2014  04:58:00      -47.776     -125.981      -11.698       47.468       72.055       27.024     2253.252     5191.961      730.286        1.323        0.409      134.736       28.196        0.044      334.505        4.522      854.287
03/27/2014  04:59:00     -172.048      -18.018        7.227       81.797       68.012       44.276     6690.682     4625.568     1960.407        2.162        0.664      172.989       43.793        0.064      334.410        4.362      854.298
03/27/2014  05:00:00      -64.543      -71.846        2.149       57.044       47.780       39.505     3254.022     2282.909     1560.651        0.821        0.355       96.579       23.294        0.058      334.497        4.508      854.284
03/27/2014  05:01:00      -41.526     -108.134        7.375       52.402       35.907       25.369     2745.944     1289.347      643.570        0.907        0.234      115.833        5.225        0.002      334.527        4.557      854.236
03/27/2014  05:02:00      -84.923      -12.935      -11.048       23.474       40.128       18.918      551.029     1610.286      357.900        0.501        0.126       85.903       16.798        0.038      334.492        4.499      854.284
03/27/2014  05:03:00      -86.676       24.874      -18.769       45.249       35.901       18.145     2047.469     1288.901      329.241        0.607        0.183       90.175        8.338        0.009      334.423        4.385      854.318
03/27/2014  05:04:00     -136.653      -17.784        9.898       88.156       77.282       45.226     7771.478     5972.521     2045.361        1.744        0.789      137.806       37.586        0.074      334.362        4.286      854.299
03/27/2014  05:05:00       -2.302      -32.145       15.796       59.519       76.105       69.790     3542.470     5791.956     4870.670        0.774        0.710       32.227       35.030        1.182      334.449        4.429      854.319
03/27/2014  05:06:00       40.025       -8.300       52.461       48.415       64.082       51.850     2344.026     4106.470     2688.465        0.678        0.457       40.876       46.238        1.280      334.462        4.450      854.334
03/27/2014  05:07:00       13.182        4.720        2.467       30.028       25.813       32.164      901.703      666.327     1034.530        0.140        0.130       14.002       16.215        1.341      334.447        4.426      854.347
03/27/2014  05:08:00       22.688       47.716       -3.111       29.990       36.783       13.889      899.393     1352.997      192.907        0.262        0.122       52.835        6.416        0.015      334.420        4.381      854.361
03/27/2014  05:09:00       65.028       49.276        1.924       41.752       28.839       25.472     1743.195      831.664      648.800        0.494        0.161       81.589       17.682        0.047      334.374        4.306      854.388
03/27/2014  05:10:00       32.016       28.077        5.670       31.023       27.696       23.602      962.416      767.060      557.051        0.207        0.114       42.584        5.690        0.018      334.391        4.334      854.422
03/27/2014  05:11:00       79.671       39.199       14.972       32.779       22.490       27.956     1074.440      505.810      781.557        0.523        0.118       88.792       21.143        0.057      334.367        4.294      854.443
03/27/2014  05:12:00      120.163       62.534       14.019       23.906       22.226       20.713      571.515      493.987      429.016        1.002        0.075      135.461       10.553        0.006      334.337        4.244      854.431
03/27/2014  05:13:00       49.063       42.985        4.038       29.172       23.758       22.170      851.027      564.438      491.517        0.309        0.095       65.229       12.681        0.038      334.345        4.257      854.444
03/27/2014  05:14:00      112.238       84.166        9.617       50.369       41.060       26.831     2537.026     1685.909      719.893        1.236        0.247      140.290       16.032        0.013      334.367        4.292      854.409
03/27/2014  05:15:00       11.239       33.690       18.786       31.023       23.343       23.441      962.430      544.913      549.491        0.184        0.103       35.515       11.694        0.108      334.428        4.395      854.394
03/27/2014  05:16:00       -2.195       60.887        2.139       29.828       52.293       20.957      889.683     2734.573      439.192        0.389        0.203       60.927       21.863        0.129      334.411        4.368      854.400
03/27/2014  05:17:00      -54.103       35.517      -15.023       46.887       25.495       22.672     2198.433      650.006      514.014        0.389        0.168       64.719       22.630        0.122      334.423        4.386      854.420
03/27/2014  05:18:00     -140.084       25.754      -26.863       50.003       30.016       26.648     2500.320      900.954      710.116        1.256        0.206      142.432       15.164        0.011      334.426        4.391      854.433
03/27/2014  05:19:00     -137.818      -46.608       -3.362       55.163       45.800       24.679     3042.970     2097.606      609.056        1.346        0.287      145.486       17.566        0.015      334.509        4.529      854.451
03/27/2014  05:20:00      -17.439       28.263       18.185       54.719       48.347       28.240     2994.209     2337.407      797.480        0.378        0.306       33.210       24.172        0.530      334.483        4.486      854.440
03/27/2014  05:21:00      -12.084      -15.452       -8.070       21.063       25.806       18.254      443.662      665.928      333.222        0.095        0.072       19.616       12.002        0.374      334.427        4.395      854.451
03/27/2014  05:22:00      -27.125       40.526       17.190       23.410       19.441       17.082      548.041      377.958      291.805        0.195        0.061       48.766       10.161        0.043      334.464        4.455      854.495
03/27/2014  05:23:00       69.743       50.953       16.157       32.242       23.787       21.652     1039.568      565.800      468.800        0.490        0.104       86.373        9.936        0.013      334.391        4.335      854.485
03/27/2014  05:24:00       87.449       78.638       29.615       40.116       37.597       36.715     1609.309     1413.514     1347.970        0.954        0.219      117.606       25.118        0.046      334.378        4.313      854.493
03/27/2014  05:25:00      128.417       90.109       40.765       66.257       44.450       41.858     4389.925     1975.760     1752.091        1.719        0.406      156.878       40.998        0.068      334.398        4.344      854.505
03/27/2014  05:26:00       30.402       20.558       12.380       67.905       56.893       25.227     4611.025     3236.850      636.377        0.499        0.424       36.700       32.758        0.797      334.436        4.409      854.534
03/27/2014  05:27:00      -10.345      -34.790        2.163       20.426       31.479       13.622      417.212      990.950      185.557        0.146        0.080       36.296       13.110        0.130      334.487        4.494      854.564
03/27/2014  05:28:00       30.241        8.950        5.874       15.624       14.028       14.031      244.110      196.779      196.880        0.083        0.032       31.538        8.558        0.074      334.414        4.372      854.569
03/27/2014  05:29:00       57.348       30.585       10.889       51.580       26.679       26.133     2660.480      711.776      682.910        0.420        0.203       64.994       16.516        0.065      334.453        4.436      854.566
03/27/2014  05:30:00        5.024        0.148       16.962       14.593       20.051       12.736      212.949      402.025      162.198        0.054        0.039        5.026       11.551        5.281      334.437        4.409      854.569
03/27/2014  05:31:00      -40.322      -23.343       -5.499       50.379       20.806       15.020     2538.027      432.896      225.605        0.270        0.160       46.591       11.015        0.056      334.490        4.497      854.607
03/27/2014  05:32:00       44.522      -65.856        4.638       33.029       47.995       28.033     1090.929     2303.487      785.832        0.526        0.209       79.494       14.165        0.032      334.631        4.731      854.613
03/27/2014  05:33:00       -7.499       70.658      126.542       34.369      126.376       77.394     1181.243    15970.842     5989.844        2.210        1.157       71.055       88.986        1.568      334.564        4.617      854.550
03/27/2014  05:34:00      -63.415      -99.341        1.097       90.674       55.337       46.468     8221.745     3062.131     2159.321        1.366        0.672      117.856       28.744        0.059      334.666        4.789      854.622
03/27/2014  05:35:00     -110.541      -44.444        0.211       56.405       94.660       39.759     3181.522     8960.433     1580.764        1.396        0.686      119.141       39.127        0.108      334.532        4.564      854.651
03/27/2014  05:36:00     -194.775      -54.874        3.364       64.361       51.490       38.260     4142.321     2651.193     1463.857        2.461        0.413      202.357       32.598        0.026      334.468        4.459      854.657
03/27/2014  05:37:00     -134.728     -105.036       -7.771      100.899       72.966       41.277    10180.637     5324.043     1703.793        2.322        0.860      170.834       48.399        0.080      334.520        4.544      854.694
03/27/2014  05:38:00      -90.598      -33.967       -1.059       74.172       62.526       32.357     5501.506     3909.535     1046.995        0.991        0.523       96.756       36.744        0.144      334.535        4.569      854.716
03/27/2014  05:39:00      -71.479      -48.665        2.104       77.511       58.752       35.864     6007.998     3451.824     1286.242        0.911        0.537       86.473       38.743        0.201      334.552        4.597      854.741
03/27/2014  05:40:00     -229.540     -212.397       -7.009      107.435      132.022       59.576    11542.258    17429.827     3549.353        6.518        1.626      312.731       62.640        0.040      334.600        4.675      854.772
03/27/2014  05:41:00     -105.474     -146.895       -8.547       67.046       48.068       35.411     4495.227     2310.544     1253.929        2.042        0.403      180.840       15.306        0.007      334.700        4.843      854.804
03/27/2014  05:42:00      -42.688     -156.245        2.417       49.824       72.681       34.846     2482.387     5282.526     1214.242        1.761        0.449      161.971       24.525        0.023      334.688        4.825      854.820
03/27/2014  05:43:00      -20.868     -120.680        8.105       48.011       60.035       35.450     2305.040     3604.176     1256.700        1.111        0.358      122.471       18.398        0.023      334.702        4.848      854.823
03/27/2014  05:44:00     -101.142      -18.796       -2.961       96.820       65.961       39.668     9374.070     4350.842     1573.581        1.294        0.765      102.874       52.276        0.258      334.672        4.797      854.821
03/27/2014  05:45:00      -96.935       18.594      -14.383       41.000       32.861       22.112     1680.988     1079.863      488.933        0.660        0.162       98.702       17.808        0.033      334.633        4.732      854.819
03/27/2014  05:46:00     -131.797      -10.705       -7.655       48.696       46.484       23.695     2371.328     2160.753      561.476        1.132        0.255      132.231       21.534        0.027      334.623        4.715      854.874
03/27/2014  05:47:00     -132.841        9.968      -13.790       41.340       34.136       19.181     1708.985     1165.284      367.919        1.059        0.162      133.214       19.554        0.022      334.622        4.714      854.920
03/27/2014  05:48:00     -167.318       23.069      -12.795       67.211       35.327       20.762     4517.286     1247.998      431.065        1.744        0.310      168.901       19.956        0.014      334.621        4.711      854.942
03/27/2014  05:49:00      -92.088      -10.231        1.551       50.533       49.606       25.078     2553.586     2460.721      628.931        0.711        0.282       92.654       25.728        0.077      334.624        4.719      854.943
03/27/2014  05:50:00     -101.012      -19.346      -13.448       41.889       37.475       24.538     1754.677     1404.368      602.137        0.726        0.188      102.848       23.274        0.051      334.611        4.698      854.948
03/27/2014  05:51:00     -219.663      -39.252        1.250      104.751       66.832       39.877    10972.874     4466.482     1590.204        3.341        0.851      223.142       45.449        0.041      334.648        4.754      854.968
03/27/2014  05:52:00     -218.508      -81.244        0.914      148.618       77.387       49.367    22087.373     5988.788     2437.080        4.242        1.526      233.123       59.360        0.065      334.684        4.815      854.977
03/27/2014  05:53:00     -127.236      -48.632        7.705       92.462       64.073       41.992     8549.250     4105.298     1763.362        1.651        0.721      136.213       34.556        0.064      334.704        4.851      854.991
03/27/2014  05:54:00     -107.537      -86.507       -2.066       63.609       68.045       32.506     4046.048     4630.124     1056.661        1.439        0.487      138.014       29.514        0.046      334.697        4.838      854.992
03/27/2014  05:55:00     -284.155     -113.096      -13.347      117.236      135.117       58.344    13744.230    18256.670     3403.989        6.455        1.770      305.834       59.787        0.038      334.676        4.802      855.019
03/27/2014  05:56:00     -377.732     -213.486      -13.729      178.732      115.080       69.758    31945.025    13243.517     4866.211       11.924        2.503      433.887       80.579        0.034      334.717        4.869      854.980
03/27/2014  05:57:00     -147.129      -26.371       -0.165      113.771       67.572       45.852    12943.746     4565.945     2102.429        2.097        0.981      149.474       55.932        0.140      334.720        4.877      854.999
03/27/2014  05:58:00     -226.249      -72.419        3.784      132.214       75.051       43.221    17480.509     5632.716     1868.035        4.071        1.249      237.556       49.977        0.044      334.671        4.794      854.998
03/27/2014  05:59:00     -209.438      -98.291        0.235       96.013       82.080       48.020     9218.546     6737.148     2305.938        3.589        0.913      231.356       44.563        0.037      334.669        4.789      855.016
03/27/2014  06:00:00     -336.686      -96.394      -22.488      129.287       86.271       55.161    16715.255     7442.696     3042.711        7.517        1.360      350.214       44.965        0.016      334.648        4.754      855.035
03/27/2014  06:01:00     -199.450     -162.451      -10.395      102.894       97.734       44.414    10587.212     9551.896     1972.579        4.419        1.106      257.236       36.518        0.020      334.647        4.752      854.999
03/27/2014  06:02:00     -190.729     -154.791       -2.943      115.645       95.691       54.853    13373.768     9156.710     3008.859        4.294        1.277      245.638       61.601        0.063      334.634        4.732      854.999
03/27/2014  06:03:00     -106.956      -92.339       -6.129      122.638      107.606       48.844    15039.970    11579.079     2385.693        2.450        1.450      141.301       54.377        0.148      334.681        4.811      855.015
03/27/2014  06:04:00     -211.508      -29.070       -2.075      110.764       52.303       47.962    12268.700     2735.574     2300.398        3.144        0.865      213.496       61.739        0.084      334.633        4.730      855.016
03/27/2014  06:05:00     -299.591      -60.362      -22.221      108.417      120.002       51.352    11754.352    14400.513     2637.042        6.134        1.440      305.611       41.622        0.019      334.598        4.670      855.010
03/27/2014  06:06:00     -220.355      -82.538       -2.971      107.512      111.293       46.558    11558.816    12386.141     2167.677        4.074        1.306      235.305       38.336        0.027      334.596        4.669      855.030
03/27/2014  06:07:00     -166.053     -141.009      -15.263      160.820      143.114       50.157    25862.922    20481.758     2515.686        4.827        2.443      217.846       61.042        0.079      334.609        4.691      855.036
03/27/2014  06:08:00     -281.489      -64.882       -4.311      133.114      110.345       58.602    17719.225    12175.920     3434.136        5.839        1.666      288.870       41.327        0.020      334.578        4.639      855.036
03/27/2014  06:09:00     -591.178     -110.486       -2.010      166.885      197.925       91.420    27850.572    39174.433     8357.672       21.853        3.769      601.414       90.774        0.023      334.528        4.556      854.986
03/27/2014  06:10:00     -319.491     -129.407      -11.173      158.506      155.972       60.195    25124.294    24327.360     3623.436        8.600        2.654      344.704       57.799        0.028      334.578        4.639      855.014
03/27/2014  06:11:00     -267.549      -62.750       -9.200      106.202       90.828       51.170    11278.842     8249.801     2618.327        4.887        1.107      274.809       44.434        0.026      334.548        4.588      855.029
03/27/2014  06:12:00     -190.404      -83.900      -11.125      110.699       77.086       43.642    12254.297     5942.256     1904.600        3.175        1.005      208.069       34.163        0.027      334.533        4.564      855.040
03/27/2014  06:13:00     -185.341      -52.421       -0.831      119.755       65.482       52.953    14341.367     4287.910     2803.985        2.926        1.072      192.612       62.781        0.106      334.537        4.574      855.034
03/27/2014  06:14:00     -210.921      -73.024       11.084      124.362       90.866       52.711    15466.028     8256.546     2778.461        3.822        1.325      223.204       53.869        0.058      334.522        4.546      855.041
03/27/2014  06:15:00     -255.853      -25.030       -4.025      116.519       77.267       50.522    13576.607     5970.171     2552.445        4.410        1.105      257.074       54.726        0.045      334.490        4.494      855.060
03/27/2014  06:16:00     -288.113      -48.365      -23.709       94.666       97.475       47.241     8961.662     9501.409     2231.755        5.330        1.035      292.144       49.368        0.029      334.480        4.477      855.050
03/27/2014  06:17:00     -279.702      -88.849       -3.502      130.892       87.925       64.643    17132.671     7730.757     4178.665        5.759        1.452      293.475       69.081        0.055      334.496        4.504      855.069
03/27/2014  06:18:00     -270.219     -107.589      -11.286      152.075      129.642       68.702    23126.657    16806.984     4719.954        6.468        2.233      290.850       77.393        0.071      334.534        4.566      855.056
03/27/2014  06:19:00     -192.786     -113.418       10.070      136.765      129.322       64.978    18704.801    16724.168     4222.079        4.488        1.983      223.674       64.309        0.083      334.561        4.611      855.067
03/27/2014  06:20:00     -122.593     -104.337        3.962      122.015      119.683       73.015    14887.638    14324.116     5331.151        3.023        1.727      160.981       73.014        0.206      334.586        4.654      855.090
03/27/2014  06:21:00     -441.847     -123.948      -26.348      126.294      100.891       59.776    15950.261    10179.035     3573.220       12.049        1.485      458.903       60.268        0.017      334.550        4.592      855.129
03/27/2014  06:22:00     -275.667      -78.739       -6.084      150.676      127.622       55.035    22703.382    16287.363     3028.819        6.212        2.101      286.691       58.041        0.041      334.529        4.557      855.157
03/27/2014  06:23:00     -168.544      -30.410       -6.966      109.568      102.914       63.405    12005.128    10591.302     4020.200        2.799        1.331      171.265       55.964        0.107      334.546        4.587      855.159
03/27/2014  06:24:00     -186.439       -1.594      -11.007      114.312       79.586       42.696    13067.127     6333.975     1822.963        2.805        1.061      186.446       36.664        0.039      334.506        4.521      855.169
03/27/2014  06:25:00     -165.649      -61.024        9.540       96.961       78.797       42.815     9401.498     6208.903     1833.092        2.435        0.872      176.532       45.110        0.065      334.496        4.504      855.191
03/27/2014  06:26:00     -356.979     -160.359      -26.412      180.505      108.733       65.353    32581.978    11822.803     4271.008       10.125        2.434      391.343       56.333        0.021      334.527        4.554      855.222
03/27/2014  06:27:00     -234.599      -22.946      -10.179      133.445      128.972       63.757    17807.507    16633.839     4064.992        4.708        1.925      235.719       65.733        0.078      334.508        4.522      855.218
03/27/2014  06:28:00     -231.389      -68.646       -6.860       90.818       79.114       46.843     8247.913     6259.019     2194.224        3.750        0.835      241.357       44.629        0.034      334.519        4.540      855.219
03/27/2014  06:29:00     -136.490      -37.120        6.573       66.015       50.054       38.786     4357.990     2505.428     1504.356        1.421        0.418      141.447       33.908        0.057      334.520        4.544      855.239
03/27/2014  06:30:00     -230.741     -106.897       -6.385       97.588      102.800       59.481     9523.357    10567.892     3538.024        4.416        1.181      254.300       61.973        0.059      334.534        4.567      855.258
03/27/2014  06:31:00     -248.340     -245.042        8.651      207.512      152.643       75.506    43061.370    23299.819     5701.135        9.691        3.603      348.882       98.349        0.079      334.616        4.703      855.285
03/27/2014  06:32:00     -354.448      -92.569      -26.915      154.752      128.842       66.990    23948.237    16600.377     4487.650        8.997        2.252      366.336       58.485        0.025      334.564        4.614      855.275
03/27/2014  06:33:00     -451.543      -62.825      -33.478      167.109      140.390       75.617    27925.254    19709.380     5717.966       13.114        2.668      455.892       88.040        0.037      334.576        4.636      855.284
03/27/2014  06:34:00     -354.459     -202.959      -13.388      161.221      171.960       79.626    25992.154    29570.397     6340.304       11.445        3.095      408.453       74.683        0.033      334.594        4.665      855.287
03/27/2014  06:35:00     -373.838     -202.908      -11.061      127.089      116.247       72.436    16151.712    13513.360     5246.997       10.797        1.746      425.355       74.384        0.031      334.582        4.644      855.284
03/27/2014  06:36:00     -205.063     -130.297        2.748      161.133      108.963       70.000    25963.765    11872.998     4899.950        5.088        2.137      242.957       68.246        0.079      334.616        4.704      855.285
03/27/2014  06:37:00     -243.831     -138.153       -7.699      104.136      104.679       49.687    10844.363    10957.725     2468.840        5.143        1.214      280.250       49.931        0.032      334.634        4.732      855.291
03/27/2014  06:38:00     -296.223       51.821      -10.867      155.924       87.825       59.080    24312.442     7713.188     3490.419        6.303        1.776      300.722       62.019        0.043      334.568        4.621      855.285
03/27/2014  06:39:00     -220.977     -162.472       -5.742      149.890      146.145       62.902    22466.872    21358.399     3956.647        6.151        2.389      274.277       61.948        0.051      334.579        4.640      855.296
03/27/2014  06:40:00     -307.982     -178.241       10.506      193.885      137.336       74.261    37591.461    18861.175     5514.650        9.434        3.098      355.841       87.415        0.060      334.616        4.702      855.279
03/27/2014  06:41:00     -275.770     -118.877       -0.073      124.457      119.720       61.768    15489.612    14332.979     3815.267        6.190        1.682      300.301       59.956        0.040      334.614        4.699      855.277
03/27/2014  06:42:00     -448.949     -107.160      -28.861      122.103      116.625       77.445    14909.212    13601.479     5997.784       12.418        1.725      461.561       64.616        0.020      334.612        4.694      855.265
03/27/2014  06:43:00     -305.508     -118.332        3.775      186.110      172.988       88.389    34636.841    29925.019     7812.594        8.985        3.619      327.624      105.544        0.104      334.606        4.686      855.268
03/27/2014  06:44:00     -190.868     -106.609       16.451      194.496      108.747       72.768    37828.710    11825.884     5295.171        5.150        2.747      218.624       84.735        0.150      334.612        4.696      855.268
03/27/2014  06:45:00     -260.146     -149.489        2.528      186.641      132.611       79.396    34834.875    17585.749     6303.714        7.437        2.936      300.038       71.827        0.057      334.572        4.629      855.289
03/27/2014  06:46:00     -133.829     -141.069        6.943      151.189      130.286       78.658    22858.168    16974.545     6187.072        4.193        2.301      194.450       96.604        0.247      334.568        4.624      855.312
03/27/2014  06:47:00     -313.861      -42.468      -33.943      221.773      115.788       64.754    49183.203    13406.798     4193.037        8.411        3.339      316.721       82.856        0.068      334.559        4.607      855.300
03/27/2014  06:48:00     -270.472      -31.311       -1.247      144.683       84.424       66.236    20933.228     7127.473     4387.159        5.329        1.622      272.279       69.335        0.065      334.526        4.552      855.295
03/27/2014  06:49:00     -412.177     -104.581      -11.282      194.665      142.096       78.844    37894.513    20191.232     6216.384       12.262        3.215      425.238       86.655        0.042      334.511        4.528      855.297
03/27/2014  06:50:00     -476.802     -110.382      -29.560      221.842      194.729       84.047    49213.912    37919.279     7063.915       16.728        4.710      489.412       89.061        0.033      334.522        4.544      855.324
03/27/2014  06:51:00     -473.582     -261.198      -19.372      241.576      163.227       95.105    58358.776    26643.052     9045.052       19.344        4.702      540.836      102.308        0.036      334.535        4.566      855.281
03/27/2014  06:52:00     -305.803     -107.233        1.621      151.368      121.558       78.952    22912.326    14776.244     6233.398        7.446        2.196      324.059       69.770        0.046      334.536        4.571      855.314
03/27/2014  06:53:00     -238.272     -103.010        0.150      187.028      178.472       79.413    34979.659    31852.193     6306.384        7.025        3.657      259.585       91.673        0.125      334.557        4.604      855.316
03/27/2014  06:54:00     -209.500      -67.815        8.037      139.490      119.856       74.092    19457.379    14365.414     5489.651        4.393        1.966      220.202       63.850        0.084      334.548        4.589      855.317
03/27/2014  06:55:00     -372.242      -63.185        6.989      244.793      155.902       88.126    59923.619    24305.389     7766.228       11.728        4.600      377.567      107.527        0.081      334.522        4.547      855.324
03/27/2014  06:56:00     -273.192     -110.084        4.530      204.414      126.841       89.646    41785.159    16088.715     8036.361        7.633        3.296      294.538       97.101        0.109      334.546        4.585      855.315
03/27/2014  06:57:00     -416.330     -114.372      -15.022      246.843      147.383       89.796    60931.488    21721.646     8063.261       13.866        4.536      431.754      111.836        0.067      334.518        4.541      855.321
03/27/2014  06:58:00     -317.644     -166.549       -3.283      194.866      154.207       84.806    37972.637    23779.714     7191.984        9.878        3.447      358.659       88.202        0.060      334.544        4.581      855.338
03/27/2014  06:59:00     -330.854      -90.257      -13.911      208.129      149.195       86.127    43317.773    22259.162     7417.890        9.539        3.650      342.944       91.191        0.071      334.525        4.551      855.359
03/27/2014  07:00:00     -403.167      -68.653       -1.763      298.942      162.521       91.917    89366.185    26413.007     8448.689       14.572        6.211      408.971      127.046        0.097      334.522        4.547      855.366
03/27/2014  07:01:00     -308.343     -131.965      -14.108      145.749      153.741       85.625    21242.640    23636.220     7331.719        8.244        2.611      335.395       82.932        0.061      334.513        4.531      855.386
03/27/2014  07:02:00     -480.505     -123.582      -15.753      191.692      125.090       76.757    36745.868    15647.461     5891.688       15.233        2.914      496.143       85.054        0.029      334.498        4.506      855.414
03/27/2014  07:03:00     -390.825      -71.995      -12.938      148.173      126.659       76.725    21955.119    16042.552     5886.741       10.098        2.194      397.401       78.030        0.039      334.501        4.511      855.421
03/27/2014  07:04:00     -293.702      -84.024       -4.182      179.119      140.962       69.113    32083.563    19870.246     4776.563        7.502        2.837      305.485       78.651        0.066      334.529        4.558      855.412
03/27/2014  07:05:00     -510.259      -80.519      -22.414      181.446      136.163       82.765    32922.567    18540.288     6850.061       16.282        2.916      516.573       64.455        0.016      334.508        4.523      855.428
03/27/2014  07:06:00     -297.785     -129.228      -16.240      192.639      134.932       81.029    37109.893    18206.758     6565.750        8.375        3.094      324.616       85.726        0.070      334.535        4.567      855.439
03/27/2014  07:07:00     -524.962     -175.825      -29.114      249.864      196.778       93.154    62431.954    38721.565     8677.743       20.857        5.492      553.623       97.099        0.031      334.554        4.598      855.431
03/27/2014  07:08:00     -413.772     -121.827      -19.167      170.615      186.724       79.604    29109.528    34865.770     6336.772       12.835        3.516      431.334       87.094        0.041      334.558        4.606      855.498
03/27/2014  07:09:00     -237.892      -98.309       -7.793      221.096      151.158       81.096    48883.601    22848.638     6576.552        7.230        3.915      257.405      105.508        0.168      334.593        4.663      855.529
03/27/2014  07:10:00     -344.657      -53.974       -5.893      238.303      157.949       98.847    56788.541    24947.817     9770.678       10.660        4.575      348.857      120.460        0.119      334.575        4.634      855.551
03/27/2014  07:11:00     -367.469     -194.152        1.382      266.556      136.247       89.937    71052.129    18563.320     8088.577       13.520        4.885      415.606      125.335        0.091      334.572        4.630      855.576
03/27/2014  07:12:00     -232.982     -110.650        0.221      129.974      111.488       72.859    16893.124    12429.524     5308.400        5.057        1.732      257.922       69.413        0.072      334.583        4.647      855.597
03/27/2014  07:13:00     -394.824      -20.642      -19.990      254.275      137.105       99.184    64655.967    18797.699     9837.515       12.498        4.665      395.363      111.008        0.079      334.569        4.622      855.611
03/27/2014  07:14:00     -440.838       -6.763      -26.896      195.821      106.627       79.929    38345.741    11369.381     6388.596       12.559        2.805      440.890      101.474        0.053      334.572        4.629      855.590
03/27/2014  07:15:00     -432.027     -109.036      -14.370      171.659      174.140       81.629    29466.827    30324.798     6663.260       13.259        3.323      445.574       85.004        0.036      334.592        4.660      855.596
03/27/2014  07:16:00     -299.832     -118.218       -2.603      181.475      156.046       77.258    32933.046    24350.251     5968.816        8.355        3.163      322.296       77.613        0.058      334.643        4.748      855.589
03/27/2014  07:17:00     -242.307     -130.658       14.529      170.774      113.408       81.167    29163.921    12861.367     6588.077        6.229        2.431      275.289       93.417        0.115      334.687        4.823      855.614
03/27/2014  07:18:00     -401.889     -105.100      -19.590      173.923      113.646       68.324    30249.198    12915.415     4668.143       11.038        2.392      415.404       70.519        0.029      334.632        4.727      855.666
03/27/2014  07:19:00     -229.947      -29.115       -0.795      138.769      136.221       67.711    19256.939    18556.071     4584.811        4.805        2.120      231.783       60.535        0.068      334.676        4.801      855.668
03/27/2014  07:20:00     -303.100      -54.357      -12.262      154.452      126.878       59.970    23855.338    16098.034     3596.361        6.925        2.177      307.936       69.752        0.051      334.662        4.778      855.711
03/27/2014  07:21:00     -287.935      -99.567      -19.095      121.273      106.384       59.837    14707.175    11317.498     3580.441        6.139        1.480      304.664       57.620        0.036      334.691        4.825      855.713
03/27/2014  07:22:00     -168.645      -19.154       16.128      136.846      104.553       66.257    18726.756    10931.265     4390.036        3.155        1.702      169.729       73.057        0.185      334.733        4.896      855.749
03/27/2014  07:23:00     -280.032     -113.478      -16.523      122.381       97.675       52.509    14976.990     9540.406     2757.190        5.942        1.364      302.150       49.814        0.027      334.694        4.832      855.780
03/27/2014  07:24:00     -113.081      -52.250        4.699       95.401       83.834       44.795     9101.398     7028.201     2006.602        1.683        0.907      124.569       49.856        0.160      334.768        4.957      855.768
03/27/2014  07:25:00     -214.471      -33.548      -15.687      145.555       78.583       51.761    21186.139     6175.224     2679.154        3.870        1.502      217.079       70.377        0.105      334.771        4.961      855.798
03/27/2014  07:26:00     -227.650      -48.942       -6.705       95.719      101.374       45.674     9162.070    10276.590     2086.079        3.789        1.076      232.851       47.630        0.042      334.784        4.981      855.820
03/27/2014  07:27:00     -375.366     -102.172      -22.299      125.927      131.556       55.810    15857.690    17307.109     3114.801        9.405        1.814      389.023       35.113        0.008      334.752        4.928      855.818
03/27/2014  07:28:00     -376.225      -35.290      -29.986      141.353      116.619       58.138    19980.721    13599.965     3380.037        9.032        1.848      377.876       71.598        0.036      334.788        4.988      855.836
03/27/2014  07:29:00     -349.085     -117.256      -13.595      164.838       95.554       55.166    27171.687     9130.519     3043.250        8.756        1.967      368.251       62.053        0.028      334.846        5.087      855.850
03/27/2014  07:30:00     -280.123      -73.587       -0.887      169.995      134.115       67.411    28898.370    17986.879     4544.218        6.765        2.571      289.627       59.358        0.042      334.841        5.077      855.867
03/27/2014  07:31:00     -263.390      -31.560      -15.732      203.028      119.890       65.497    41220.466    14373.586     4289.829        6.524        2.994      265.274       78.589        0.088      334.899        5.173      855.889
03/27/2014  07:32:00     -300.807      -45.578       -4.890      145.111      101.080       61.133    21057.058    10217.126     3737.212        6.379        1.751      304.241       64.462        0.045      334.888        5.155      855.899
03/27/2014  07:33:00     -295.084      -49.865       -3.651      122.849      102.336       55.733    15091.825    10472.599     3106.184        5.912        1.434      299.267       57.933        0.037      334.897        5.171      855.908
03/27/2014  07:34:00     -416.127     -120.318      -12.342      190.025      120.692       77.532    36109.536    14566.577     6011.209       12.223        2.834      433.172       91.709        0.045      334.863        5.112      855.904
03/27/2014  07:35:00     -583.314     -244.024      -26.250      184.701      181.658       83.465    34114.335    32999.616     6966.364       23.727        3.704      632.300       87.888        0.019      334.805        5.017      855.926
03/27/2014  07:36:00     -291.389      -24.873       -5.233      189.807      182.745       85.538    36026.583    33395.667     7316.753        8.113        3.837      292.449       84.817        0.084      334.902        5.179      855.918
03/27/2014  07:37:00     -294.937      -80.439      -18.216      169.441      113.361       67.201    28710.288    12850.739     4515.912        6.992        2.304      305.709       70.443        0.053      334.921        5.210      855.955
03/27/2014  07:38:00     -309.784     -155.821        0.385      144.686      127.622       76.457    20933.951    16287.404     5845.629        8.165        2.153      346.766       84.521        0.059      334.919        5.207      855.964
03/27/2014  07:39:00     -297.884      -37.751       -9.476      169.553      122.980       63.233    28748.293    15124.132     3998.436        6.905        2.394      300.266       71.176        0.056      334.959        5.272      856.023
03/27/2014  07:40:00     -351.365       -7.993      -17.876      161.063      137.497       70.342    25941.130    18905.476     4947.952        8.681        2.490      351.456       67.603        0.037      334.955        5.266      856.053
03/27/2014  07:41:00     -395.412     -133.065      -23.163      235.697      169.106       86.148    55553.088    28596.901     7421.501       13.306        4.579      417.202      113.967        0.075      334.935        5.234      856.070
03/27/2014  07:42:00     -364.759     -121.810       -4.595      213.800      120.601       77.730    45710.406    14544.718     6041.899       10.709        3.315      384.561       94.224        0.060      334.900        5.174      856.037
03/27/2014  07:43:00     -341.054      -20.050        6.094      178.361      165.745       86.546    31812.638    27471.302     7490.279        9.175        3.339      341.643       90.045        0.069      334.913        5.196      856.078
03/27/2014  07:44:00     -343.796      -67.377      -16.580      195.941      156.429       68.593    38392.917    24469.922     4704.982        9.528        3.378      350.336       83.054        0.056      334.925        5.217      856.071
03/27/2014  07:45:00     -489.542     -128.450      -10.779      200.718      156.380       80.194    40287.678    24454.777     6431.148       16.371        3.559      506.113       88.056        0.030      334.901        5.177      856.082
03/27/2014  07:46:00     -472.866      -45.802      -28.640      223.409      161.140       99.805    49911.523    25966.073     9960.965       15.616        4.292      475.080      105.544        0.049      334.891        5.161      856.082
03/27/2014  07:47:00     -547.398      -84.192      -29.007      218.354      194.116       89.653    47678.262    37680.938     8037.587       20.047        4.670      553.834       81.853        0.022      334.875        5.134      856.094
03/27/2014  07:48:00     -496.626     -203.906      -23.845      249.108      232.857       83.600    62054.928    54222.448     6988.905       20.600        6.163      536.856       96.904        0.033      334.908        5.189      856.121
03/27/2014  07:49:00     -406.499     -219.443       -4.058      198.581      180.825       94.625    39434.498    32697.773     8953.810       14.723        4.054      461.949       98.536        0.045      334.889        5.156      856.109
03/27/2014  07:50:00     -295.643      -98.626        4.427      154.597      143.437       70.815    23900.093    20574.261     5014.833        7.331        2.474      311.660       66.240        0.045      334.966        5.284      856.131
03/27/2014  07:51:00     -397.783      -80.077      -28.859      140.636      109.019       61.580    19778.434    11885.140     3792.040       10.046        1.773      405.763       63.833        0.025      334.932        5.228      856.151
03/27/2014  07:52:00     -482.618     -179.381       -4.604      174.445      171.839       82.182    30431.123    29528.757     6753.952       16.590        3.336      514.876       79.319        0.024      334.882        5.145      856.114
03/27/2014  07:53:00     -440.348     -209.583      -12.712      235.171      146.811      108.173    55305.522    21553.561    11701.477       16.326        4.428      487.680      128.540        0.069      334.922        5.211      856.106
03/27/2014  07:54:00     -356.179     -139.582       -6.240      133.088      125.715       71.905    17712.284    15804.248     5170.278        9.253        1.934      382.553       70.732        0.034      334.925        5.217      856.125
03/27/2014  07:55:00     -369.286      -51.104      -14.677      202.677      119.267       81.890    41077.843    14224.511     6706.011       10.059        3.100      372.805       58.075        0.024      334.931        5.226      856.084
03/27/2014  07:56:00     -436.073     -181.123       -3.122      219.674      197.869      108.884    48256.806    39152.281    11855.760       16.110        4.963      472.192      115.172        0.059      334.948        5.256      856.056
03/27/2014  07:57:00     -519.028     -253.735      -26.588      268.829      175.995       87.814    72269.224    30974.246     7711.318       22.269        5.548      577.730       99.261        0.030      334.960        5.276      856.077
03/27/2014  07:58:00     -443.560     -203.616      -11.021      213.467      166.495      100.547    45568.264    27720.601    10109.741       16.085        4.170      488.062      109.132        0.050      334.953        5.265      856.050
03/27/2014  07:59:00     -275.278     -108.895       -1.263      169.627      158.951       88.846    28773.390    25265.293     7893.592        7.477        3.097      296.034       87.024        0.086      334.979        5.306      856.057
03/27/2014  08:00:00     -417.026     -197.066      -17.812      144.075      148.791       69.968    20757.543    22138.760     4895.547       13.042        2.390      461.243       53.725        0.014      334.941        5.244      856.056
03/27/2014  08:01:00     -514.050     -229.551      -25.599      173.619      138.146       81.152    30143.588    19084.253     6585.673       18.669        2.791      562.975       68.798        0.015      334.887        5.154      856.077
03/27/2014  08:02:00     -491.689     -117.391      -20.378      174.766      149.590       71.492    30543.182    22377.315     5111.079       15.698        2.902      505.509       70.120        0.019      334.928        5.221      856.050
03/27/2014  08:03:00     -280.083     -222.400       12.666      192.405      181.855       93.546    37019.668    33071.136     8750.940       10.344        3.942      357.643       82.843        0.054      335.021        5.376      856.092
03/27/2014  08:04:00     -334.059     -271.971       -8.643      162.571      140.341       91.601    26429.256    19695.588     8390.777       12.007        2.726      430.771       86.181        0.040      335.001        5.343      856.095
03/27/2014  08:05:00     -435.885     -230.399      -35.329      198.570      136.691       86.239    39430.061    18684.328     7437.104       15.493        3.278      493.031       93.894        0.036      334.991        5.326      856.142
03/27/2014  08:06:00     -290.960     -113.035       22.647      174.325      205.770       90.773    30389.339    42341.172     8239.761        8.944        4.049      312.146      100.514        0.104      335.040        5.408      856.110
03/27/2014  08:07:00     -493.320     -261.605      -19.274      262.517      188.530       98.455    68915.270    35543.634     9693.463       21.314        5.708      558.393       92.060        0.027      335.049        5.422      856.094
03/27/2014  08:08:00     -443.070     -149.736      -11.588      244.154      181.426      110.060    59611.269    32915.319    12113.279       16.173        5.232      467.688      117.512        0.063      335.054        5.431      856.112
03/27/2014  08:09:00     -536.172     -137.970      -27.449      227.863      190.000      101.820    51921.423    36100.177    10367.364       20.281        4.919      553.639       96.735        0.031      335.021        5.376      856.131
03/27/2014  08:10:00     -172.772      -89.322       21.855      174.641      136.088       76.914    30499.418    18519.918     5915.743        4.661        2.747      194.496       84.926        0.191      335.181        5.643      856.180
03/27/2014  08:11:00     -321.946     -108.284       -5.970      220.803      165.419       88.719    48753.923    27363.335     7871.005        9.968        4.199      339.668      104.229        0.094      335.150        5.591      856.207
03/27/2014  08:12:00     -318.089     -142.833       -0.960      213.640      174.981       83.192    45642.217    30618.463     6920.959       10.237        4.159      348.686      106.535        0.093      335.089        5.491      856.183
03/27/2014  08:13:00     -310.589     -229.089       -3.365      221.971      272.734       92.229    49270.959    74383.738     8506.265       14.053        6.608      385.937      107.479        0.078      335.117        5.535      856.181
03/27/2014  08:14:00     -490.606     -242.719        6.633      277.249      232.486      115.777    76867.244    54049.562    13404.314       22.196        7.216      547.363      139.238        0.065      335.004        5.348      856.159
03/27/2014  08:15:00     -580.574     -195.533      -22.984      208.412      156.736      100.810    43435.661    24566.188    10162.618       22.698        3.908      612.617       93.337        0.023      335.019        5.374      856.149
03/27/2014  08:16:00     -465.011     -306.391        0.193      246.727      185.028      105.504    60874.001    34235.348    11131.179       20.815        5.312      556.876      119.992        0.046      335.057        5.437      856.142
03/27/2014  08:17:00     -327.158     -180.143       -2.228      187.225      139.936       70.623    35053.243    19582.154     4987.663        9.954        2.981      373.475       80.901        0.047      335.106        5.517      856.159
03/27/2014  08:18:00     -504.913     -341.189       -3.377      233.281      189.103       93.400    54419.902    35759.938     8723.535       23.511        4.945      609.383      103.427        0.029      335.007        5.354      856.128
03/27/2014  08:19:00     -450.234     -317.821       -3.723      238.772      185.579      120.068    57012.022    34439.550    14416.353       20.478        5.293      551.109      112.827        0.042      335.073        5.464      856.129
03/27/2014  08:20:00     -481.494     -264.334      -18.066      230.996      203.981       92.781    53359.096    41608.166     8608.320       20.278        5.179      549.280      108.816        0.039      335.066        5.452      856.134
03/27/2014  08:21:00     -524.732     -288.454      -17.822      185.543      138.369       97.668    34426.295    19145.981     9539.050       21.098        3.156      598.790       90.029        0.023      335.064        5.449      856.137
03/27/2014  08:22:00     -582.318     -350.815      -35.681      233.272      197.997      101.773    54415.877    39202.959    10357.771       28.369        5.199      679.827       98.087        0.021      335.053        5.430      856.123
03/27/2014  08:23:00     -294.816     -162.532       20.551      293.991      220.178      119.146    86430.466    48478.439    14195.726       13.140        7.455      336.649      130.992        0.151      335.171        5.626      856.145
03/27/2014  08:24:00     -485.958     -294.242      -17.002      246.842      181.675      108.329    60930.978    33005.856    11735.213       21.433        5.284      568.097      110.735        0.038      335.075        5.467      856.158
03/27/2014  08:25:00     -361.642     -191.426       -1.427      209.163      156.617       90.777    43748.990    24528.992     8240.465       12.196        3.826      409.181       91.279        0.050      335.145        5.582      856.133
03/27/2014  08:26:00     -459.507     -280.627      -11.367      239.360      181.138      111.384    57293.344    32810.803    12406.356       19.625        5.126      538.421      115.664        0.046      335.150        5.591      856.125
03/27/2014  08:27:00     -470.038     -247.141      -22.319      206.773      178.250       93.620    42755.116    31773.217     8764.757       18.289        4.165      531.050       95.387        0.032      335.143        5.579      856.141
03/27/2014  08:28:00     -389.154     -247.519       -4.076      216.235      143.037       90.049    46757.735    20459.663     8108.776       14.401        3.766      461.201      104.909        0.052      335.198        5.671      856.155
03/27/2014  08:29:00     -487.131     -275.733       -7.224      184.984      183.556       93.843    34218.900    33692.809     8806.451       19.503        3.836      559.755      101.388        0.033      335.177        5.636      856.147
03/27/2014  08:30:00     -382.473     -290.283      -19.259      220.922      165.959      105.017    48806.336    27542.454    11028.477       15.913        4.369      480.156      112.228        0.055      335.243        5.744      856.135
03/27/2014  08:31:00     -440.417     -240.391       -5.514      216.852      193.464       94.112    47024.857    37428.373     8857.045       17.253        4.666      501.752       96.596        0.037      335.214        5.697      856.141
03/27/2014  08:32:00     -396.876      -68.742      -20.086      175.671      180.533       89.535    30860.206    32592.200     8016.455       11.704        3.573      402.785       84.455        0.044      335.269        5.787      856.150
03/27/2014  08:33:00     -397.734     -108.839        3.046      271.422      212.506      109.083    73669.686    45158.589    11899.161       15.036        6.536      412.357      131.825        0.102      335.275        5.797      856.171
03/27/2014  08:34:00     -477.169     -301.834       -8.376      291.598      250.805      138.958    85029.568    62903.347    19309.405       24.302        8.362      564.619      126.243        0.050      335.150        5.590      856.096
03/27/2014  08:35:00     -564.827     -308.306       -9.885      267.956      221.665      120.667    71800.339    49135.336    14560.540       27.481        6.775      643.493      140.921        0.048      335.077        5.469      856.080
03/27/2014  08:36:00     -530.221     -242.551      -11.321      267.017      260.875      117.881    71297.922    68055.635    13895.854       24.664        7.662      583.065      122.265        0.044      335.076        5.468      856.104
03/27/2014  08:37:00     -493.654     -312.413       -3.501      302.358      239.613      132.847    91420.515    57414.447    17648.436       25.386        8.324      584.206      159.363        0.074      335.098        5.505      856.057
03/27/2014  08:38:00     -553.318     -369.339      -35.772      246.104      202.651      109.231    60567.136    41067.496    11931.482       27.869        5.678      665.261      112.123        0.028      335.090        5.492      856.043
03/27/2014  08:39:00     -567.841     -254.812      -23.391      333.798      196.105      102.329   111421.417    38456.982    10471.278       27.410        8.017      622.393      130.177        0.044      335.103        5.513      856.044
03/27/2014  08:40:00     -530.411     -256.306      -18.704      272.704      184.340      123.639    74367.247    33981.303    15286.586       23.548        6.182      589.092      120.942        0.042      335.086        5.485      856.017
03/27/2014  08:41:00     -467.937     -215.282      -13.290      219.136      177.144      108.873    48020.376    31379.849    11853.256       17.835        4.563      515.084      100.697        0.038      335.075        5.466      855.991
03/27/2014  08:42:00     -284.937     -148.159        5.497      187.050      152.292       86.834    34987.823    23192.726     7540.096        8.443        3.286      321.154      105.783        0.108      335.200        5.674      855.985
03/27/2014  08:43:00     -323.624     -242.804       -0.684      186.201      183.575       94.753    34670.679    33699.599     8978.192       12.050        3.867      404.582       95.952        0.056      335.220        5.706      855.975
03/27/2014  08:44:00     -432.642     -328.130      -11.903      229.210      197.243      103.562    52537.264    38904.981    10725.159       19.856        5.108      543.000      107.171        0.039      335.135        5.566      855.948
03/27/2014  08:45:00     -417.035     -258.975       -5.548      244.020      214.335      105.331    59545.568    45939.524    11094.558       17.877        5.829      490.904      117.753        0.058      335.138        5.572      855.936
03/27/2014  08:46:00     -546.861     -201.477      -37.616      283.243      238.067      126.524    80226.667    56675.896    16008.244       24.696        7.646      582.795      127.190        0.048      335.141        5.577      855.932
03/27/2014  08:47:00     -631.704     -392.477      -33.263      244.266      231.196      120.832    59665.729    53451.745    14600.422       34.093        6.386      743.699       94.402        0.016      335.049        5.422      855.913
03/27/2014  08:48:00     -504.620     -347.190      -15.224      286.579      273.156      137.174    82127.422    74614.030    18816.587       27.545        8.778      612.521      147.337        0.058      335.090        5.491      855.858
03/27/2014  08:49:00     -485.492     -149.510      -23.445      260.052      186.216      109.983    67627.007    34676.555    12096.355       18.648        5.720      507.992      112.384        0.049      335.135        5.566      855.909
03/27/2014  08:50:00     -363.418     -119.349       -1.212      218.113      229.167       98.917    47573.406    52517.302     9784.514       12.808        5.494      382.514      102.545        0.072      335.210        5.691      855.944
03/27/2014  08:51:00     -528.938     -275.402      -27.193      274.568      191.401      106.433    75387.752    36634.410    11327.943       23.983        6.168      596.340      122.937        0.042      335.147        5.585      855.971
03/27/2014  08:52:00     -531.781     -281.012      -19.321      260.082      223.040       98.908    67642.551    49746.651     9782.798       24.463        6.359      601.464      123.444        0.042      335.117        5.537      855.969
03/27/2014  08:53:00     -382.448     -181.153        6.677      215.603      192.241       99.811    46484.635    36956.475     9962.215       13.625        4.670      423.182      112.359        0.070      335.213        5.695      856.036
03/27/2014  08:54:00     -577.313     -169.308      -15.991      332.568      227.116      128.845   110601.678    51581.785    16600.969       27.046        8.939      601.628      146.558        0.059      335.162        5.611      855.999
03/27/2014  08:55:00     -639.105     -442.173      -35.707      257.802      224.790      123.650    66461.837    50530.338    15289.226       36.874        6.614      777.157      143.507        0.034      335.034        5.399      856.034
03/27/2014  08:56:00     -443.950     -246.004       -2.631      224.902      217.377      116.942    50580.704    47252.843    13675.474       18.454        5.575      507.552      124.245        0.060      335.131        5.560      855.996
03/27/2014  08:57:00     -500.337     -291.976      -10.037      216.970      209.620      101.994    47076.060    43940.738    10402.820       21.853        5.071      579.298      125.121        0.047      335.158        5.604      856.055
03/27/2014  08:58:00     -592.113     -205.937      -31.047      267.440      204.803      113.794    71524.354    41944.361    12949.138       26.017        6.321      626.904      123.266        0.039      335.111        5.526      856.067
03/27/2014  08:59:00     -471.782     -258.319      -28.429      218.681      208.418      105.468    47821.279    43438.167    11123.421       19.623        5.119      537.872      117.810        0.048      335.139        5.571      856.095
03/27/2014  09:00:00     -538.952     -178.583       -0.039      292.528      242.577      121.338    85572.914    58843.662    14722.940       24.072        7.957      567.768      136.649        0.058      335.091        5.493      856.080
03/27/2014  09:01:00     -673.328     -143.068      -39.920      259.347      243.619      109.170    67260.649    59350.408    11918.179       30.695        6.926      688.360      125.037        0.033      335.090        5.489      856.100
03/27/2014  09:02:00     -381.460     -169.985       -9.432      174.603      162.248       85.374    30486.168    26324.353     7288.723       11.928        3.205      417.620       88.632        0.045      335.158        5.603      856.127
03/27/2014  09:03:00     -443.269     -308.689      -16.697      270.826      178.781       98.407    73346.718    31962.677     9683.949       20.350        5.750      540.163      115.977        0.046      335.192        5.661      856.110
03/27/2014  09:04:00     -409.105     -224.454      -26.239      259.163      193.216       93.885    67165.579    37332.612     8814.457       16.585        5.666      466.633       97.245        0.043      335.253        5.761      856.110
03/27/2014  09:05:00     -582.275     -329.483      -15.506      268.157      254.993      123.809    71908.273    65021.404    15328.791       30.002        7.613      669.032      123.336        0.034      335.223        5.712      856.091
03/27/2014  09:06:00     -480.115      -68.864       -2.710      273.864      144.564      106.786    75001.585    20898.784    11403.203       17.126        5.365      485.029      135.766        0.078      335.253        5.760      856.140
03/27/2014  09:07:00     -359.173     -111.425        3.582      243.654      167.660      106.582    59367.143    28109.710    11359.698       12.012        4.942      376.060      129.854        0.119      335.286        5.818      856.177
03/27/2014  09:08:00     -361.157     -141.923       -4.467      264.735      171.871       95.317    70084.675    29539.778     9085.313       12.963        5.435      388.042      100.003        0.066      335.274        5.796      856.183
03/27/2014  09:09:00     -449.349     -350.976        7.780      338.790      245.426      144.091   114778.684    60234.086    20762.335       26.043        9.789      570.174      171.533        0.091      335.221        5.707      856.158
03/27/2014  09:10:00     -447.408     -194.354        2.539      292.509      205.704      109.475    85561.502    42314.220    11984.735       18.888        6.993      487.798      133.107        0.074      335.225        5.717      856.200
03/27/2014  09:11:00     -607.577     -369.610      -28.330      305.191      237.023      124.829    93141.596    56179.976    15582.276       33.570        8.245      711.169      140.739        0.039      335.219        5.705      856.179
03/27/2014  09:12:00     -411.237     -192.463      -12.029      246.811      199.390       92.402    60915.542    39756.402     8538.168       15.773        5.461      454.046      112.975        0.062      335.319        5.870      856.220
03/27/2014  09:13:00     -631.515     -399.035      -27.113      350.732      264.840      143.960   123012.792    70139.999    20724.513       38.628       10.694      747.021      167.485        0.050      335.208        5.688      856.182
03/27/2014  09:14:00     -398.287     -237.881        2.542      379.568      261.098      138.249   144072.140    68172.009    19112.735       22.325       11.568      463.918      190.189        0.168      335.316        5.867      856.200
03/27/2014  09:15:00     -374.459     -201.446      -13.046      290.193      199.782      104.725    84212.046    39913.023    10967.274       15.800        6.755      425.206      126.880        0.089      335.364        5.944      856.267
03/27/2014  09:16:00     -471.204     -311.716       -8.123      305.872      228.928      141.824    93557.435    52407.838    20114.158       24.264        8.304      564.978      160.200        0.080      335.302        5.842      856.264
03/27/2014  09:17:00     -520.237      -83.007      -28.033      231.360      165.626       97.238    53527.302    27431.981     9455.320       18.435        4.521      526.817      102.367        0.038      335.348        5.920      856.296
03/27/2014  09:18:00     -466.464     -172.739      -16.353      260.602      214.288      108.180    67913.194    45919.243    11702.951       18.659        6.277      497.421      127.112        0.065      335.380        5.970      856.305
03/27/2014  09:19:00     -425.062     -185.748        3.026      242.846      204.674      114.982    58974.104    41891.297    13220.917       16.461        5.704      463.875      119.763        0.067      335.387        5.983      856.325
03/27/2014  09:20:00     -485.986     -207.834      -20.181      324.045      229.680      121.818   105005.027    52753.129    14839.505       22.616        8.630      528.561      154.657        0.086      335.337        5.901      856.346
03/27/2014  09:21:00     -588.785     -216.049      -39.172      246.378      203.136      101.357    60702.106    41264.073    10273.143       25.354        5.612      627.172      100.536        0.026      335.360        5.940      856.350
03/27/2014  09:22:00     -577.331     -158.767      -11.204      274.386      225.468      116.155    75287.434    50835.792    13491.988       24.910        6.981      598.764      133.347        0.050      335.337        5.900      856.391
03/27/2014  09:23:00     -359.742     -194.403       -1.983      239.641      196.924      117.430    57427.756    38779.207    13789.877       13.858        5.500      408.909      144.696        0.125      335.372        5.958      856.375
03/27/2014  09:24:00     -263.569      -82.675        7.541      216.521      206.214      101.883    46881.274    42524.368    10380.221        8.805        4.989      276.231      124.080        0.202      335.462        6.109      856.415
03/27/2014  09:25:00     -509.855     -205.023      -22.836      274.980      264.593       96.703    75613.958    70009.250     9351.444       22.871        7.749      549.533      110.443        0.040      335.408        6.020      856.448
03/27/2014  09:26:00     -260.423     -155.818        1.387      180.183      167.811       96.636    32465.976    28160.501     9338.430        8.102        3.498      303.479      105.168        0.120      335.504        6.178      856.461
03/27/2014  09:27:00     -245.414     -211.439       15.874      262.269      217.485      105.455    68785.050    47299.697    11120.847       11.617        6.360      323.936      107.227        0.110      335.461        6.107      856.463
03/27/2014  09:28:00     -255.375      -96.392       23.988      282.777      165.186      102.495    79962.778    27286.429    10505.179        9.640        5.888      272.961      124.922        0.209      335.582        6.310      856.466
03/27/2014  09:29:00     -387.271     -208.814        4.981      205.010      201.951       89.792    42029.284    40784.059     8062.684       14.222        4.544      439.980       89.314        0.041      335.504        6.179      856.512
03/27/2014  09:30:00     -339.801      -46.832       10.771      258.474      148.432       96.459    66808.983    22031.960     9304.279       10.794        4.907      343.013      111.481        0.106      335.611        6.358      856.561
03/27/2014  09:31:00     -411.266     -213.349        1.693      268.614      222.984      120.169    72153.667    49722.007    14440.520       17.546        6.816      463.311      131.657        0.081      335.545        6.246      856.557
03/27/2014  09:32:00     -234.649     -170.591       -1.077      237.146      173.326      104.074    56238.000    30041.768    10831.367        9.062        4.856      290.106      120.061        0.171      335.628        6.387      856.591
03/27/2014  09:33:00     -449.217      -67.037      -18.858      226.018      155.699       90.000    51084.356    24242.100     8099.962       14.502        4.171      454.192      102.834        0.051      335.620        6.372      856.619
03/27/2014  09:34:00     -281.885      -36.998       11.555      165.719      112.637       75.156    27462.685    12686.988     5648.376        6.337        2.290      284.303       87.651        0.095      335.758        6.601      856.656
03/27/2014  09:35:00      -67.467      -61.546       -0.804      159.193      109.838       92.704    25342.294    12064.389     8594.102        2.716        2.300       91.322       91.832        1.011      336.015        7.033      856.720
03/27/2014  09:36:00     -174.835      -93.074        3.764      149.299      126.538       88.418    22290.081    16011.991     7817.762        4.267        2.306      198.066       80.751        0.166      335.906        6.849      856.762
03/27/2014  09:37:00     -254.517     -186.493       10.046      164.248      157.133       82.412    26977.526    24690.858     6791.818        7.905        2.923      315.529       83.270        0.070      335.720        6.536      856.776
03/27/2014  09:38:00     -386.553     -223.457      -14.547      185.607      256.831      109.307    34449.774    65962.362    11947.968       15.594        5.618      446.493      108.157        0.059      335.650        6.421      856.798
03/27/2014  09:39:00     -338.659     -172.893       -5.228      227.447      167.141      117.851    51732.062    27936.109    13888.929       11.906        4.678      380.240      125.352        0.109      335.658        6.437      856.845
03/27/2014  09:40:00     -461.883     -326.673      -17.441      227.799      250.220      126.389    51892.321    62609.923    15974.054       22.539        6.524      565.730      129.301        0.052      335.590        6.323      856.800
03/27/2014  09:41:00     -509.330     -205.239      -12.954      299.196      207.549      104.174    89518.299    43076.568    10852.288       22.255        7.172      549.126      125.742        0.052      335.556        6.266      856.866
03/27/2014  09:42:00     -563.413     -193.668      -25.342      245.940      167.162       89.677    60486.373    27943.073     8041.932       22.601        4.824      595.769      108.934        0.033      335.527        6.218      856.875
03/27/2014  09:43:00     -246.868      -37.085       29.125      197.653      145.692      102.128    39066.839    21226.213    10430.056        6.693        3.536      249.638      108.955        0.190      335.784        6.646      856.874
03/27/2014  09:44:00     -433.049      -18.468      -16.124      227.286      169.849       89.591    51659.095    28848.547     8026.503       13.832        4.427      433.442       99.535        0.053      335.703        6.509      856.906
03/27/2014  09:45:00     -413.879      -75.957        0.713      279.261      200.297       98.805    77986.787    40118.861     9762.428       15.244        6.393      420.791      126.873        0.091      335.773        6.628      856.885
03/27/2014  09:46:00     -627.600     -132.792      -21.160      258.218      172.106      118.299    66676.608    29620.512    13994.726       26.111        5.515      641.495      122.717        0.037      335.557        6.267      856.892
03/27/2014  09:47:00     -427.131     -193.958       -8.784      222.211      184.094       99.926    49377.697    33890.710     9985.166       15.668        4.663      469.107       84.820        0.033      335.588        6.318      856.906
03/27/2014  09:48:00     -265.011     -146.844       -1.145      181.044      155.569       85.510    32776.940    24201.651     7312.023        7.803        3.215      302.975       88.781        0.086      335.787        6.651      856.968
03/27/2014  09:49:00     -245.776     -175.595       22.253      194.884      194.150      105.659    37979.671    37694.312    11163.789        8.927        4.342      302.059      103.857        0.118      335.794        6.661      856.922
03/27/2014  09:50:00     -389.641     -102.763      -19.079      238.989      156.345       83.311    57115.816    24443.863     6940.737       12.560        4.425      402.965       88.394        0.048      335.667        6.450      856.930
03/27/2014  09:51:00     -280.068      -39.336      -21.350      213.914      210.508      100.532    45759.138    44313.467    10106.594        9.029        5.009      282.817      108.075        0.146      335.883        6.811      856.941
03/27/2014  09:52:00     -785.300     -254.996      -25.382      284.344      229.593      116.088    80851.369    52713.024    13476.372       41.467        7.352      825.662      122.652        0.022      335.580        6.307      856.904
03/27/2014  09:53:00     -527.481     -122.917      -11.340      269.815      191.404       87.661    72800.376    36635.633     7684.375       20.527        5.856      541.613      109.611        0.041      335.740        6.571      856.940
03/27/2014  09:54:00     -467.295      -28.796       -4.617      241.845      188.344      101.986    58489.173    35473.424    10401.159       16.177        5.218      468.181      103.939        0.049      335.808        6.686      856.936
03/27/2014  09:55:00     -608.719     -173.599       -5.758      279.912      214.787      120.620    78350.477    46133.302    14549.100       26.984        6.952      632.990      137.028        0.047      335.654        6.430      856.904
03/27/2014  09:56:00     -481.195     -171.638        6.130      267.050      199.998      104.980    71315.731    39999.246    11020.728       19.167        6.117      510.890      100.242        0.038      335.772        6.625      856.906
03/27/2014  09:57:00     -799.659     -329.180      -38.676      277.298      220.900      122.870    76894.212    48796.789    15097.036       44.502        7.039      864.762      122.272        0.020      335.542        6.240      856.916
03/27/2014  09:58:00     -708.025     -283.552      -12.231      290.623      254.437      127.786    84461.631    64738.308    16329.201       37.366        8.276      762.693      143.155        0.035      335.559        6.270      856.951
03/27/2014  09:59:00     -571.078     -334.261      -31.563      257.146      199.312      105.542    66124.089    39725.467    11139.084       27.790        5.849      661.710      122.848        0.034      335.659        6.435      856.936
03/27/2014  10:00:00     -525.139     -277.040      -10.940      360.963      277.901      146.407   130294.642    77228.812    21434.977       29.075       11.448      593.736      180.173        0.092      335.703        6.511      856.936
03/27/2014  10:01:00     -541.253     -229.530       -6.848      318.412      289.377      158.451   101385.899    83739.159    25106.693       27.792       10.512      587.911      140.493        0.057      335.681        6.473      856.904
03/27/2014  10:02:00     -585.440     -205.540      -17.314      352.818      260.811      125.075   124480.398    68022.515    15643.812       29.667       10.407      620.473      155.575        0.063      335.678        6.469      856.932
03/27/2014  10:03:00     -524.711     -311.001      -12.062      353.991      244.120      140.678   125309.608    59594.563    19790.334       28.840       10.235      609.954      156.612        0.066      335.619        6.371      856.976
03/27/2014  10:04:00     -539.041     -309.594      -44.591      252.050      249.876      107.910    63529.308    62437.807    11644.539       26.298        6.881      621.621      104.184        0.028      335.702        6.509      856.958
03/27/2014  10:05:00     -552.821     -256.269      -38.954      305.410      207.687      115.781    93275.014    43133.861    13405.312       26.128        7.491      609.331       85.832        0.020      335.692        6.491      856.959
03/27/2014  10:06:00     -629.031     -312.949      -20.766      291.718      246.652      130.885    85099.636    60837.428    17130.810       32.853        8.153      702.579      140.416        0.040      335.726        6.548      857.001
03/27/2014  10:07:00     -380.313     -206.959       17.660      285.822      214.566      129.946    81693.950    46038.407    16886.025       16.617        7.231      432.978      159.700        0.136      335.867        6.784      857.051
03/27/2014  10:08:00     -416.150      -66.180       25.323      370.623      226.439      136.007   137361.452    51274.441    18498.005       19.263       10.357      421.380      168.508        0.160      335.963        6.943      857.002
03/27/2014  10:09:00     -464.159     -240.114       -8.557      328.470      289.818      150.196   107892.821    83994.295    22558.835       24.377       10.722      522.588      169.333        0.105      335.853        6.759      857.040
03/27/2014  10:10:00     -608.930     -344.686      -15.407      347.295      219.857      113.986   120614.132    48337.017    12992.730       33.586        9.097      699.717      130.955        0.035      335.783        6.643      857.082
03/27/2014  10:11:00     -494.447     -272.262       -1.160      333.613      259.714      150.218   111297.479    67451.334    22565.494       25.992       10.066      564.451      183.868        0.106      335.878        6.802      857.114
03/27/2014  10:12:00     -530.753     -103.219        8.586      289.537      198.227      111.510    83831.910    39294.032    12434.393       21.397        6.778      540.697      127.604        0.056      335.813        6.693      857.125
03/27/2014  10:13:00     -546.793     -136.662       -9.703      298.957      217.015      117.494    89375.099    47095.398    13804.753       23.398        7.514      563.612      139.286        0.061      335.854        6.761      857.165
03/27/2014  10:14:00     -553.629     -275.343       -3.890      292.918      258.730      143.631    85800.844    66941.452    20629.827       27.782        8.669      618.319      130.356        0.044      335.770        6.621      857.158
03/27/2014  10:15:00     -668.168     -306.546      -38.706      358.478      259.622      138.408   128506.519    67403.707    19156.913       37.845       10.753      735.132      151.527        0.042      335.709        6.521      857.108
03/27/2014  10:16:00     -731.669     -156.576      -50.143      344.119      291.642      141.362   118418.064    85054.789    19983.247       39.287       11.173      748.235      177.656        0.056      335.613        6.361      857.177
03/27/2014  10:17:00     -644.566     -212.515      -15.640      330.499      306.911      130.579   109229.277    94194.403    17050.903       34.063       11.024      678.695      127.476        0.035      335.661        6.442      857.205
03/27/2014  10:18:00     -630.692     -213.985      -21.192      291.891      281.717      141.333    85200.428    79364.442    19975.013       31.424        9.227      666.005      143.319        0.046      335.661        6.440      857.283
03/27/2014  10:19:00     -619.132     -275.426      -17.216      363.383      280.242      123.603   132047.183    78535.329    15277.769       34.262       11.293      677.631      146.776        0.047      335.708        6.518      857.278
03/27/2014  10:20:00     -495.162     -166.741        3.996      340.142      224.984      119.711   115696.725    50617.968    14330.693       22.679        9.032      522.482      139.301        0.071      335.775        6.631      857.322
03/27/2014  10:21:00     -592.126     -150.618      -18.005      247.487      210.120      119.416    61249.902    44150.268    14260.190       24.662        5.983      610.982      138.609        0.051      335.669        6.454      857.327
03/27/2014  10:22:00     -496.956     -155.206       -7.328      261.660      201.584      113.045    68466.125    40636.224    12779.067       19.647        6.094      520.629      129.131        0.062      335.816        6.698      857.361
03/27/2014  10:23:00     -550.764     -366.972       -6.726      321.210      283.419      151.756   103175.729    80326.274    23029.734       32.225       10.327      661.823      169.469        0.066      335.698        6.501      857.301
03/27/2014  10:24:00     -504.249     -342.875       -0.342      412.390      239.457      151.990   170065.225    57339.525    23100.923       31.112       12.525      609.779      177.061        0.084      335.784        6.645      857.349
03/27/2014  10:25:00     -430.381     -166.757       30.804      375.080      287.260      172.549   140684.876    82518.400    29773.118       23.343       12.649      461.558      201.759        0.191      335.796        6.666      857.407
03/27/2014  10:26:00     -593.708     -293.562      -27.586      277.680      226.266      117.964    77106.260    51196.283    13915.401       29.080        7.111      662.321      140.573        0.045      335.702        6.507      857.425
03/27/2014  10:27:00     -426.406     -184.261        4.812      255.490      220.670      108.212    65275.025    48695.404    11709.814       17.071        6.284      464.515      124.499        0.072      335.876        6.797      857.433
03/27/2014  10:28:00     -515.749     -282.944      -23.897      263.692      174.546       98.013    69533.237    30466.303     9606.561       22.809        5.480      588.264      104.200        0.031      335.724        6.545      857.469
03/27/2014  10:29:00     -509.975     -235.418      -26.796      260.860      183.217      102.794    68047.928    33568.461    10566.693       21.418        5.609      561.690      113.470        0.041      335.736        6.564      857.452
03/27/2014  10:30:00     -443.784     -181.234      -10.935      265.194      276.340      119.814    70327.628    76363.556    14355.360       19.545        8.052      479.364      115.807        0.058      335.806        6.683      857.446
03/27/2014  10:31:00     -334.499     -182.462       -5.955      247.824      218.565      128.239    61416.904    47770.451    16445.280       13.540        6.282      381.028      129.279        0.115      335.938        6.902      857.422
03/27/2014  10:32:00     -369.285     -213.751        0.396      219.260      172.463      105.581    48075.074    29743.599    11147.398       13.550        4.448      426.686      109.010        0.065      335.955        6.930      857.418
03/27/2014  10:33:00     -616.152     -288.270        2.622      377.458      266.649      140.076   142474.387    71101.872    19621.187       34.793       11.660      680.252      185.212        0.074      335.809        6.687      857.445
03/27/2014  10:34:00     -589.070     -286.372      -24.233      280.761      218.825      116.297    78826.531    47884.308    13524.989       28.489        7.012      654.990      140.255        0.046      335.827        6.717      857.400
03/27/2014  10:35:00     -361.111     -162.959       -3.821      303.956      214.236       99.785    92389.085    45897.008     9957.134       15.258        7.412      396.178      123.556        0.097      336.030        7.056      857.437
03/27/2014  10:36:00     -518.866     -320.635       -3.563      252.914      217.873      119.928    63965.371    47468.449    14382.794       24.890        6.291      609.941      127.190        0.043      335.888        6.819      857.452
03/27/2014  10:37:00     -410.463     -312.221       -4.006      311.117      217.213      124.149    96793.772    47181.335    15412.861       21.265        7.969      515.715      152.982        0.088      335.959        6.937      857.458
03/27/2014  10:38:00     -613.933     -358.018      -33.883      262.772      206.561      105.156    69048.921    42667.472    11057.721       31.448        6.139      710.697      123.572        0.030      335.802        6.676      857.467
03/27/2014  10:39:00     -548.819     -116.385      -28.809      275.630      165.951      110.081    75971.870    27539.731    12117.879       21.558        5.781      561.024      127.331        0.052      335.915        6.864      857.466
03/27/2014  10:40:00     -685.078     -209.512      -17.526      263.907      187.685      123.885    69646.834    35225.487    15347.420       31.685        6.011      716.399      137.763        0.037      335.722        6.541      857.456
03/27/2014  10:41:00     -404.539     -184.395      -16.256      212.254      205.288       95.648    45051.804    42143.275     9148.487       14.711        4.817      444.582      115.269        0.067      335.933        6.894      857.474
03/27/2014  10:42:00     -288.204     -154.146       -1.114      236.483      194.848      105.153    55924.357    37965.649    11057.082       10.586        5.247      326.837      103.182        0.100      336.063        7.112      857.457
03/27/2014  10:43:00     -237.632     -193.692       24.069      205.120      190.436      115.775    42074.061    36265.871    13403.883        9.314        4.587      306.571      119.655        0.152      336.138        7.236      857.436
03/27/2014  10:44:00     -387.852     -177.322      -12.120      235.243      180.429       94.448    55339.346    32554.544     8920.441       13.940        4.841      426.465      110.976        0.068      336.003        7.009      857.466
03/27/2014  10:45:00     -514.128     -307.522      -23.881      278.262      211.993      127.333    77429.714    44941.082    16213.778       24.900        6.929      599.081      145.045        0.059      335.841        6.740      857.438
03/27/2014  10:46:00     -394.242     -272.596       14.211      237.770      220.095      102.973    56534.656    48441.865    10603.528       17.274        5.779      479.307      119.032        0.062      335.959        6.937      857.473
03/27/2014  10:47:00     -500.772     -209.583      -18.690      369.957      229.924      126.108   136867.824    52865.061    15903.210       25.030       10.282      542.860      162.174        0.089      336.035        7.063      857.493
03/27/2014  10:48:00     -522.645     -288.664      -16.521      288.461      211.446      121.911    83209.799    44709.538    14862.266       24.974        7.139      597.064      142.548        0.057      335.901        6.840      857.502
03/27/2014  10:49:00     -487.639     -164.925       -2.898      356.845      210.838      116.015   127338.057    44452.623    13459.438       22.509        9.263      514.774      137.163        0.071      335.943        6.909      857.469
03/27/2014  10:50:00     -550.335     -251.720      -38.630      272.950      249.596      120.962    74501.702    62297.956    14631.906       25.955        7.572      605.171      131.768        0.047      335.924        6.877      857.461
03/27/2014  10:51:00     -497.404     -114.551      -14.183      266.591      217.496      116.336    71070.754    47304.298    13534.117       19.630        6.595      510.424      146.114        0.082      335.955        6.930      857.503
03/27/2014  10:52:00     -471.948     -250.419        1.232      253.919      222.416      125.197    64474.812    49468.909    15674.376       20.751        6.481      534.270      134.041        0.063      335.888        6.817      857.519
03/27/2014  10:53:00     -246.254     -226.950       26.927      302.345      266.471      159.497    91412.538    71006.529    25439.421       15.033        9.393      334.884      187.760        0.314      336.066        7.115      857.470
03/27/2014  10:54:00     -454.084     -226.062      -13.855      243.143      246.897      106.174    59118.757    60958.068    11272.857       19.439        6.567      507.244      121.596        0.057      335.944        6.911      857.513
03/27/2014  10:55:00     -495.712      -92.766        1.824      269.420      175.008      100.737    72587.314    30627.634    10148.042       18.383        5.668      504.317      120.583        0.057      336.027        7.050      857.522
03/27/2014  10:56:00     -334.842     -237.975       17.038      265.767      187.575      124.361    70632.180    35184.242    15465.682       14.514        6.064      410.794      131.631        0.103      336.168        7.285      857.526
03/27/2014  10:57:00     -399.642     -335.027        1.816      256.288      217.977      120.631    65683.417    47513.843    14551.894       19.983        6.387      521.495      141.524        0.074      336.051        7.091      857.553
03/27/2014  10:58:00     -561.618     -219.809      -38.844      296.329      210.126      114.297    87811.065    44153.084    13063.819       25.510        7.251      603.101      120.326        0.040      335.995        6.997      857.531
03/27/2014  10:59:00     -444.149      -95.942      -21.371      281.477      180.475       97.611    79229.391    32571.267     9527.811       16.411        6.066      454.394      114.588        0.064      335.994        6.996      857.516
03/27/2014  11:00:00     -484.929      -86.377       -2.357      238.892      215.065      111.206    57069.492    46252.998    12366.798       17.913        5.784      492.562      121.912        0.061      336.012        7.026      857.454
03/27/2014  11:01:00     -489.933     -164.474      -22.792      253.614      229.635      106.612    64320.013    52732.157    11366.038       19.799        6.421      516.804      111.386        0.046      336.030        7.054      857.469
03/27/2014  11:02:00     -420.757     -181.696        1.114      276.227      251.703      112.150    76301.200    63354.620    12577.511       18.111        7.612      458.312      120.681        0.069      336.040        7.072      857.466
03/27/2014  11:03:00     -342.152     -147.705       10.309      259.336      203.530      130.325    67255.022    41424.657    16984.668       13.230        6.283      372.673      140.260        0.142      335.995        6.996      857.489
03/27/2014  11:04:00     -382.335     -186.634      -13.804      263.669      154.773      122.810    69521.099    23954.796    15082.310       14.486        5.428      425.455      134.904        0.101      336.032        7.059      857.484
03/27/2014  11:05:00     -529.685     -161.633      -30.730      225.912      169.356       98.667    51036.097    28681.576     9735.256       19.853        4.473      553.797      111.856        0.041      336.092        7.159      857.551
03/27/2014  11:06:00     -606.461     -131.442       -8.318      322.509      175.969      125.479   104011.916    30965.072    15744.905       26.790        7.536      620.542      136.438        0.048      335.945        6.913      857.556
03/27/2014  11:07:00     -502.727     -134.979      -22.630      280.990      187.881       98.777    78955.159    35299.139     9756.961       19.771        6.201      520.532      132.109        0.064      335.980        6.973      857.560
03/27/2014  11:08:00     -443.142      -42.939      -12.648      229.876      145.014       88.742    52843.115    21029.015     7875.054       14.005        4.087      445.217       97.934        0.048      336.122        7.208      857.573
03/27/2014  11:09:00     -513.521      -77.150        0.424      318.552      212.249      117.104   101475.492    45049.827    13713.327       21.492        8.012      519.284      156.310        0.091      336.124        7.211      857.578
03/27/2014  11:10:00     -374.703     -121.897       -9.928      187.136      186.029       83.577    35019.836    34606.879     6985.064       11.597        3.831      394.032       90.487        0.053      336.199        7.339      857.601
03/27/2014  11:11:00     -237.088      -95.418       12.287      208.182      200.183      106.199    43339.729    40073.139    11278.191        8.006        4.735      255.569       93.508        0.134      336.238        7.402      857.618
03/27/2014  11:12:00     -275.634     -130.021        7.543      245.471      174.996       84.579    60255.903    30623.512     7153.586        9.547        4.902      304.762       99.566        0.107      336.190        7.322      857.648
03/27/2014  11:13:00     -304.983     -208.963       13.911      306.699      213.854      159.670    94064.190    45733.422    25494.406       15.105        8.265      369.703      183.293        0.246      336.101        7.174      857.646
03/27/2014  11:14:00     -382.575     -228.963      -34.446      212.409      165.658       89.916    45117.550    27442.704     8084.870       14.029        4.032      445.855       90.031        0.041      336.086        7.149      857.641
03/27/2014  11:15:00     -368.123     -186.496       19.919      240.689      238.063      115.006    57931.199    56673.948    13226.424       14.924        6.392      412.668      129.560        0.099      336.146        7.247      857.670
03/27/2014  11:16:00     -322.703     -239.618       -3.261      288.328      214.703      129.693    83133.202    46097.542    16820.330       15.378        7.303      401.938      148.966        0.137      336.092        7.159      857.677
03/27/2014  11:17:00     -320.695      -57.723       -9.517      248.021      203.188      103.742    61514.499    41285.298    10762.404       10.989        5.678      325.848      125.502        0.148      336.187        7.318      857.658
03/27/2014  11:18:00     -355.810     -177.937      -13.751      259.026      214.447      106.869    67094.450    45987.670    11421.003       14.145        6.225      397.821      127.146        0.102      336.180        7.305      857.683
03/27/2014  11:19:00     -471.339     -192.402      -22.445      313.270      213.349      126.846    98138.340    45517.751    16089.979       20.968        7.987      509.096      160.054        0.099      336.069        7.121      857.684
03/27/2014  11:20:00     -636.042     -140.491      -23.682      260.869      234.427      101.924    68052.644    54956.020    10388.545       27.910        6.670      651.373      130.246        0.040      335.939        6.902      857.660
03/27/2014  11:21:00     -402.111      -80.168       -9.172      245.104      167.037       96.767    60075.905    27901.261     9363.768       13.275        4.867      410.024      109.407        0.071      336.125        7.214      857.685
03/27/2014  11:22:00     -408.312     -141.217       -7.490      315.612      152.819       89.573    99610.642    23353.595     8023.398       15.883        6.549      432.043      125.523        0.084      336.190        7.323      857.704
03/27/2014  11:23:00     -465.037     -122.063       -3.632      214.720      156.883       96.556    46104.738    24612.379     9323.089       15.559        4.002      480.789       98.984        0.042      336.101        7.173      857.736
03/27/2014  11:24:00     -310.787     -129.498      -19.848      200.332      156.212       79.758    40132.859    24402.301     6361.334        9.231        3.545      336.687       84.041        0.062      336.249        7.420      857.774
03/27/2014  11:25:00     -385.012     -276.181      -19.317      284.555      203.470      116.504    80971.397    41400.082    13573.118       18.039        6.797      473.826      134.318        0.080      336.041        7.074      857.765
03/27/2014  11:26:00     -452.098     -177.820      -23.893      235.434      149.742       81.542    55428.969    22422.590     6649.137       16.053        4.225      485.812       94.510        0.038      336.080        7.138      857.775
03/27/2014  11:27:00     -323.170     -167.628       -2.038      207.563      196.928       94.975    43082.571    38780.723     9020.168       11.169        4.544      364.057      107.362        0.087      336.207        7.350      857.771
03/27/2014  11:28:00     -393.714     -180.920      -28.006      253.482      200.782      108.693    64253.308    40313.503    11814.248       15.243        5.819      433.293      124.400        0.082      336.187        7.318      857.781
03/27/2014  11:29:00     -289.605     -163.149       -1.274      227.759      192.287      111.535    51874.187    36974.317    12440.057       10.587        5.064      332.398      118.434        0.127      336.134        7.228      857.762
03/27/2014  11:30:00     -408.672     -188.342      -12.867      229.876      165.947       88.779    52843.160    27538.428     7881.703       14.544        4.413      449.984       93.204        0.043      336.176        7.300      857.762
03/27/2014  11:31:00     -370.820     -223.132       -4.131      200.939      198.876       97.920    40376.330    39551.571     9588.315       13.840        4.476      432.776      102.677        0.056      336.222        7.377      857.743
03/27/2014  11:32:00     -521.898      -97.767      -23.916      249.634      210.909      110.831    62317.159    44482.398    12283.482       20.077        5.954      530.977      121.404        0.052      336.121        7.207      857.748
03/27/2014  11:33:00     -394.822     -200.208      -20.213      227.213      193.285       98.145    51625.795    37359.008     9632.513       14.748        4.931      442.682      109.202        0.061      336.096        7.164      857.716
03/27/2014  11:34:00     -225.330      -85.344        8.390      211.566      110.161       71.508    44760.045    12135.554     5113.366        6.006        3.100      240.950      101.504        0.177      336.366        7.617      857.753
03/27/2014  11:35:00     -529.008     -137.255      -23.976      263.385      235.052      109.269    69371.612    55249.316    11939.635       21.788        6.828      546.524      123.582        0.051      336.188        7.317      857.759
03/27/2014  11:36:00     -534.420     -197.675      -26.008      235.883      184.617       96.056    55640.595    34083.368     9226.717       21.213        4.948      569.807       92.829        0.027      336.184        7.312      857.805
03/27/2014  11:37:00     -421.478     -309.191       19.505      270.426      214.480      125.313    73130.463    46001.863    15703.358       20.420        6.742      522.726      144.659        0.077      336.076        7.131      857.778
03/27/2014  11:38:00     -375.100     -166.137      -15.718      221.964      269.337       99.533    49268.104    72542.538     9906.891       15.011        6.586      410.246      110.268        0.072      336.186        7.316      857.810
03/27/2014  11:39:00     -406.023     -104.021      -11.275      243.922      170.867      101.902    59498.104    29195.384    10384.056       13.742        4.954      419.137      107.921        0.066      336.156        7.265      857.817
03/27/2014  11:40:00     -504.818     -105.576      -14.961      254.208      224.764      109.188    64621.934    50518.861    11922.088       19.661        6.353      515.740      126.596        0.060      336.089        7.155      857.773
03/27/2014  11:41:00     -580.606     -188.927       -1.686      244.691      256.140      108.074    59873.867    65607.871    11679.983       25.495        6.858      610.571      127.070        0.043      336.181        7.307      857.785
03/27/2014  11:42:00     -412.231      -95.496       -9.180      295.303      237.658      112.871    87203.879    56481.417    12739.755       16.775        7.821      423.147      135.820        0.103      336.201        7.340      857.787
03/27/2014  11:43:00     -364.817     -240.793       -2.674      262.721      175.248      105.163    69022.402    30712.002    11059.185       15.091        5.540      437.119      126.112        0.083      336.277        7.468      857.780
03/27/2014  11:44:00     -482.856     -236.437       -5.561      265.866      232.837      120.269    70684.759    54213.216    14464.708       21.420        6.968      537.636      127.080        0.056      336.313        7.528      857.809
03/27/2014  11:45:00     -472.782     -109.279      -15.349      201.163      177.294       97.964    40466.685    31433.136     9597.034       15.858        4.075      485.247       98.413        0.041      336.406        7.683      857.877
03/27/2014  11:46:00     -543.581     -195.816      -15.897      368.365      216.207      125.812   135692.940    46745.461    15828.720       26.613        9.913      577.775      154.126        0.071      336.364        7.612      857.842
03/27/2014  11:47:00     -532.828      -67.875      -33.730      258.356      169.116      102.329    66747.781    28600.173    10471.209       19.771        5.291      537.134      114.440        0.045      336.339        7.570      857.869
03/27/2014  11:48:00     -370.419      -93.220      -12.229      226.362      175.042       95.066    51239.745    30639.814     9037.586       11.847        4.546      381.969      107.173        0.079      336.367        7.617      857.872
03/27/2014  11:49:00     -633.389     -129.653      -33.837      238.033      234.074       95.417    56659.611    54790.721     9104.342       26.982        6.028      646.522      118.494        0.034      336.209        7.353      857.869
03/27/2014  11:50:00     -517.680      -97.678      -41.258      292.959      200.553      121.779    85825.244    40221.655    14830.005       21.003        7.044      526.815      136.115        0.067      336.298        7.502      857.860
03/27/2014  11:51:00     -609.595     -149.510      -10.670      274.973      175.823      112.957    75610.390    30913.807    12759.367       25.665        5.964      627.662      119.402        0.036      336.338        7.568      857.868
03/27/2014  11:52:00     -363.290     -205.266       15.029      246.532      189.696      126.042    60777.906    35984.544    15886.600       14.347        5.632      417.270      143.379        0.118      336.516        7.868      857.877
03/27/2014  11:53:00     -632.990     -130.083      -20.438      334.211      213.811      127.919   111697.252    45715.352    16363.244       29.586        8.689      646.218      154.571        0.057      336.469        7.788      857.902
03/27/2014  11:54:00     -713.052     -186.072      -28.695      305.767      224.997      129.793    93493.734    50623.660    16846.267       35.239        8.048      736.930      143.640        0.038      336.358        7.602      857.916
03/27/2014  11:55:00     -734.121     -190.031      -20.443      291.953      221.454      113.155    85236.605    49041.944    12804.019       36.124        7.354      758.317      134.593        0.032      336.317        7.533      857.908
03/27/2014  11:56:00     -413.131     -151.276       15.388      370.136      214.162      112.537   137000.894    45865.562    12664.633       19.463        9.777      439.956      139.398        0.100      336.574        7.964      857.972
03/27/2014  11:57:00     -302.125      -67.941        5.357      225.239      173.192      101.532    50732.469    29995.627    10308.792        9.346        4.552      309.670      111.350        0.129      336.704        8.183      857.993
03/27/2014  11:58:00     -632.954     -375.001      -33.434      339.982      268.052      147.811   115587.616    71852.129    21848.062       37.579       10.464      735.701      176.397        0.057      336.449        7.754      857.949
03/27/2014  11:59:00     -557.884     -147.506       -6.700      224.002      220.151      111.110    50176.836    48466.681    12345.529       22.199        5.549      577.056       86.638        0.023      336.590        7.991      857.921
03/27/2014  12:00:00     -556.580     -310.709       -5.041      340.506      262.762      139.228   115944.102    69044.109    19384.508       30.532       10.219      637.434      163.779        0.066      336.651        8.093      857.918
03/27/2014  12:01:00     -578.386     -296.287      -21.657      323.768      242.686      135.786   104826.018    58896.403    18437.813       30.244        9.108      649.858      143.535        0.049      336.691        8.159      857.888
03/27/2014  12:02:00     -452.033     -259.381      -26.479      258.765      224.727      132.819    66959.321    50502.208    17640.887       20.368        6.755      521.165      136.294        0.068      336.686        8.151      857.953
03/27/2014  12:03:00     -468.297     -370.460       14.127      310.996      250.566      142.072    96718.537    62783.433    20184.479       26.818        8.984      597.112      156.261        0.068      336.608        8.022      857.892
03/27/2014  12:04:00     -510.853     -339.406       -1.904      301.541      255.347      115.418    90927.037    65201.858    13321.402       27.278        8.473      613.325      128.316        0.044      336.599        8.007      857.890
03/27/2014  12:05:00     -513.739     -323.133        1.920      296.044      261.160      130.650    87641.803    68204.472    17069.386       27.060        8.646      606.913      156.823        0.067      336.618        8.037      857.903
03/27/2014  12:06:00     -504.810     -286.275        9.419      383.888      224.808      153.681   147370.172    50538.778    23617.926       27.916       11.076      580.333      191.686        0.109      336.588        7.987      857.871
03/27/2014  12:07:00     -529.856     -151.063        2.552      259.278      224.678       99.496    67225.204    50479.981     9899.488       21.556        6.380      550.970      106.405        0.037      336.710        8.192      857.911
03/27/2014  12:08:00     -647.883     -350.184      -20.217      259.875      206.634      113.483    67535.158    42697.562    12878.366       33.293        6.156      736.465      122.739        0.028      336.565        7.948      857.914
03/27/2014  12:09:00     -598.155     -442.358      -19.672      265.406      236.564      138.146    70440.409    55962.414    19084.380       34.964        7.274      743.956      126.585        0.029      336.561        7.942      857.878
03/27/2014  12:10:00     -407.666     -216.705       10.616      296.174      216.396      114.304    87718.911    46827.250    13065.353       18.041        7.381      461.684      137.847        0.089      336.771        8.293      857.882
03/27/2014  12:11:00     -458.719     -235.244        1.486      269.376      220.446      120.638    72563.230    48596.464    14553.554       20.071        6.786      515.522      150.238        0.085      336.834        8.398      857.874
03/27/2014  12:12:00     -367.686     -265.510        0.880      221.145      174.163       99.595    48905.236    30332.678     9919.222       14.741        4.458      453.529      124.391        0.075      337.029        8.726      857.886
03/27/2014  12:13:00     -420.864     -294.875      -32.196      209.378      184.791       96.013    43839.223    34147.614     9218.570       17.614        4.360      513.885      104.298        0.041      337.185        8.985      857.882
03/27/2014  12:14:00     -599.182     -239.421      -30.640      309.679      219.766      111.789    95901.162    48297.113    12496.853       28.696        7.835      645.245      117.753        0.033      336.941        8.577      857.843
03/27/2014  12:15:00     -451.860     -230.310        8.687      288.143      206.645      104.693    83026.315    42702.218    10960.659       19.696        6.834      507.169      114.929        0.051      336.780        8.309      857.803
03/27/2014  12:16:00     -447.754     -194.991       -0.953      291.618      242.098      106.526    85040.772    58611.617    11347.751       19.672        7.750      488.370      122.551        0.063      336.889        8.491      857.811
03/27/2014  12:17:00     -587.980     -221.291      -38.530      258.805      229.069      106.072    66979.839    52472.581    11251.252       26.341        6.535      628.244      118.192        0.035      336.722        8.211      857.828
03/27/2014  12:18:00     -438.268     -313.004      -11.938      281.613      206.653      112.293    79305.892    42705.440    12609.658       21.238        6.731      538.563      152.180        0.080      336.896        8.502      857.793
03/27/2014  12:19:00     -406.867     -293.313       12.833      280.849      282.830      107.993    78876.393    79992.724    11662.512       21.110        8.527      501.571      119.138        0.056      336.948        8.589      857.854
03/27/2014  12:20:00     -491.259     -243.982      -25.222      298.325      203.109      122.010    88998.046    41253.318    14886.524       22.329        7.257      548.509      138.347        0.064      336.931        8.561      857.878
03/27/2014  12:21:00     -554.235     -398.514        1.892      379.981      269.901      166.042   144385.598    72846.495    27569.830       35.535       12.240      682.634      214.347        0.099      336.789        8.323      857.895
03/27/2014  12:22:00     -258.601     -117.557       29.187      197.721      179.421       93.244    39093.560    32191.861     8694.383        8.075        3.999      284.067      100.274        0.125      337.129        8.893      857.986
03/27/2014  12:23:00     -383.576      -25.970      -19.126      158.991      154.393       70.422    25278.143    23837.171     4959.279       10.111        2.704      384.454       74.362        0.037      337.071        8.795      857.947
03/27/2014  12:24:00     -486.766     -119.727      -16.509      270.994      190.979      134.676    73438.004    36472.900    18137.619       18.977        6.402      501.274      141.909        0.080      337.238        9.076      857.941
03/27/2014  12:25:00     -442.117     -226.603       11.016      308.673      271.569      127.075    95278.956    73749.623    16148.098       21.602        9.259      496.806      131.776        0.070      337.076        8.804      857.987
03/27/2014  12:26:00     -512.539     -283.819        8.358      231.528      190.646      117.597    53605.228    36345.818    13829.138       22.353        5.189      585.875      111.021        0.036      336.803        8.347      858.004
03/27/2014  12:27:00     -489.651     -279.397      -16.706      303.007      171.850      120.422    91813.385    29532.329    14501.438       22.695        6.792      563.756      134.707        0.057      336.735        8.234      858.022
03/27/2014  12:28:00     -279.340     -163.942       19.984      225.389      174.028       83.301    50799.986    30285.779     6939.065        9.665        4.401      323.895      108.089        0.111      336.863        8.447      857.998
03/27/2014  12:29:00     -381.441     -294.473        5.824      217.157      185.931      108.290    47157.293    34570.214    11726.736       16.283        4.673      481.884      110.482        0.053      336.890        8.490      857.981
03/27/2014  12:30:00     -532.099     -230.450       -5.746      353.418      267.494      123.682   124904.469    71553.164    15297.127       27.397       10.588      579.859      142.164        0.060      336.861        8.442      857.987
03/27/2014  12:31:00     -577.738     -422.021      -22.277      278.000      237.871      124.672    77283.959    56582.671    15543.074       33.086        7.470      715.460      138.161        0.037      336.716        8.201      857.998
03/27/2014  12:32:00     -390.676     -416.529        0.764      291.129      228.891      148.392    84756.146    52391.113    22020.128       24.261        7.958      571.073      158.654        0.077      336.566        7.950      858.060
03/27/2014  12:33:00     -458.169     -222.498      -12.945      202.112      189.106      109.973    40849.369    35761.021    12094.123       17.413        4.435      509.337      123.839        0.059      336.787        8.321      858.029
03/27/2014  12:34:00     -537.564     -119.694       -4.594      276.973      219.591      113.982    76714.077    48220.423    12991.981       22.060        6.896      550.728      132.820        0.058      336.871        8.459      858.069
03/27/2014  12:35:00     -475.889     -322.520      -11.040      294.077      259.166      121.555    86481.309    67166.881    14775.665       24.948        8.421      574.882      130.147        0.051      336.856        8.436      858.111
03/27/2014  12:36:00     -637.897     -343.316      -15.983      250.452      195.321      111.433    62726.212    38150.447    12417.257       31.914        5.665      724.415      122.920        0.029      336.672        8.128      858.097
03/27/2014  12:37:00     -480.965     -351.927      -22.085      332.940      174.056      107.931   110849.062    30295.321    11649.118       25.420        7.640      595.969      135.718        0.052      336.813        8.362      858.109
03/27/2014  12:38:00     -352.546     -148.898        1.830      236.928      159.687      101.192    56134.961    25500.037    10239.831       11.915        4.594      382.700      112.706        0.087      337.260        9.112      858.140
03/27/2014  12:39:00     -199.960      -73.875       38.506      211.786      173.599      105.949    44853.157    30136.650    11225.284        6.655        4.311      213.170      109.706        0.265      337.497        9.508      858.167
03/27/2014  12:40:00     -530.545     -234.474      -40.120      255.148      189.211       98.316    65100.406    35800.691     9666.024       22.429        5.528      580.048      103.175        0.032      336.821        8.376      858.193
03/27/2014  12:41:00     -408.096      -60.926        6.761      228.141      206.634       98.727    52048.100    42697.442     9747.075       13.738        5.225      412.619      121.050        0.086      337.061        8.777      858.172
03/27/2014  12:42:00     -509.916     -119.010      -28.138      202.508      199.021       91.452    41009.455    39609.439     8363.441       18.196        4.449      523.620       85.599        0.027      337.091        8.828      858.193
03/27/2014  12:43:00     -562.643      -96.320      -12.508      271.585      213.121      113.176    73758.230    45420.368    12808.807       22.897        6.599      570.828      118.226        0.043      336.958        8.606      858.149
03/27/2014  12:44:00     -519.683     -215.827      -23.136      283.189      208.254      110.708    80195.785    43369.889    12256.300       22.648        6.791      562.718      131.025        0.054      336.911        8.528      858.108
03/27/2014  12:45:00     -293.689     -122.604        5.574      168.527      163.569       94.391    28401.315    26754.782     8909.696        8.268        3.203      318.253       86.486        0.074      337.087        8.821      858.070
03/27/2014  12:46:00     -402.569     -195.580        7.717      234.093      213.405      108.985    54799.472    45541.878    11877.777       15.627        5.611      447.564      109.129        0.059      337.040        8.743      858.092
03/27/2014  12:47:00     -565.144     -311.208      -23.128      269.121      254.087      101.065    72426.301    64560.397    10214.079       28.196        7.360      645.165       98.632        0.023      336.753        8.264      858.036
03/27/2014  12:48:00     -271.273     -115.077        4.938      241.728      177.190       93.581    58432.545    31396.330     8757.405        9.270        4.929      294.672      121.203        0.169      337.151        8.927      858.029
03/27/2014  12:49:00     -247.673     -190.513        6.499      211.040      151.495      101.522    44537.785    22950.710    10306.654        8.772        3.890      312.469      114.464        0.134      337.388        9.327      858.041
03/27/2014  12:50:00     -579.513     -226.005       12.781      325.843      290.710      142.126   106173.533    84512.165    20199.886       29.894       10.544      622.024      172.237        0.077      337.110        8.862      858.046
03/27/2014  12:51:00     -686.752     -159.770       -1.412      263.751      230.056      122.675    69564.826    52925.729    15049.219       31.732        6.877      705.092      123.705        0.031      336.905        8.517      858.095
03/27/2014  12:52:00     -649.381     -335.390       -0.774      307.891      228.719      120.272    94797.048    52312.333    14465.275       34.785        8.079      730.878      150.285        0.042      336.833        8.397      858.150
03/27/2014  12:53:00     -526.535     -345.041       13.463      301.179      195.349      116.824    90708.565    38161.348    13647.956       26.947        7.126      629.517      138.536        0.048      336.756        8.267      858.170
03/27/2014  12:54:00     -414.825     -248.659        9.912      237.022      195.240      116.181    56179.627    38118.629    13498.042       17.088        5.390      483.643      126.368        0.068      337.044        8.749      858.194
03/27/2014  12:55:00     -375.071     -223.465        3.307      252.129      179.167      116.372    63569.195    32100.731    13542.485       14.990        5.461      436.595      134.278        0.095      337.122        8.880      858.158
03/27/2014  12:56:00     -425.846     -307.131       -3.901      260.491      178.851      113.777    67855.791    31987.543    12945.104       19.422        5.639      525.047      119.646        0.052      337.146        8.920      858.165
03/27/2014  12:57:00     -547.831     -338.859      -11.744      276.229      219.464      124.365    76302.497    48164.547    15466.579       27.748        6.997      644.162      151.920        0.056      337.080        8.809      858.168
03/27/2014  12:58:00     -635.636     -429.079      -23.437      222.711      257.214      115.751    49600.342    66158.875    13398.211       35.890        6.458      766.904      133.056        0.030      336.795        8.333      858.192
03/27/2014  12:59:00     -395.813     -246.237       -8.600      247.334      192.673      100.528    61174.275    37122.757    10105.975       16.287        5.420      466.155      118.763        0.065      336.952        8.596      858.204
03/27/2014  13:00:00     -425.541     -196.667       -9.242      212.749      214.861      108.997    45262.270    46165.056    11880.328       16.156        5.165      468.789       99.377        0.045      336.978        8.638      858.232
03/27/2014  13:01:00     -366.260      -98.700        0.051      204.689      149.810       84.264    41897.752    22442.959     7100.374       10.765        3.572      379.325       69.176        0.033      337.077        8.804      858.249
03/27/2014  13:02:00     -361.102     -214.390       -2.968      323.306      230.345      107.026   104526.560    53058.830    11454.607       17.267        8.452      419.950      143.001        0.116      337.150        8.927      858.228
03/27/2014  13:03:00     -398.124     -281.888       21.588      243.229      202.886      113.240    59160.490    41162.763    12823.214       17.577        5.657      487.815      121.827        0.062      336.973        8.631      858.242
03/27/2014  13:04:00     -395.042     -262.992        8.717      233.526      157.696      112.005    54534.428    24868.124    12545.041       15.860        4.597      474.577      116.274        0.060      336.899        8.506      858.247
03/27/2014  13:05:00     -376.561     -252.880        0.324      197.937      184.037       88.189    39179.038    33869.628     7777.227       14.327        4.041      453.593       89.862        0.039      336.925        8.550      858.195
03/27/2014  13:06:00     -482.410     -286.083       -1.388      282.287      202.663      101.580    79686.055    41072.443    10318.595       22.280        6.554      560.859      112.206        0.040      336.976        8.635      858.222
03/27/2014  13:07:00     -607.939     -464.221       -7.172      347.352      267.583      130.224   120653.129    71600.664    16958.344       39.714       10.461      764.912      144.231        0.036      336.758        8.271      858.214
03/27/2014  13:08:00     -515.603     -348.717        3.731      317.461      246.185      135.621   100781.247    60607.172    18392.989       28.359        8.989      622.455      159.298        0.065      336.802        8.344      858.216
03/27/2014  13:09:00     -520.845     -251.908      -22.776      319.116      215.835      108.588   101835.066    46584.753    11791.284       24.770        8.011      578.565      119.858        0.043      336.933        8.563      858.189
03/27/2014  13:10:00     -480.190     -309.301       -8.948      272.887      160.170      108.556    74467.047    25654.342    11784.440       21.910        5.595      571.182      127.302        0.050      336.841        8.410      858.138
03/27/2014  13:11:00     -652.100     -350.991       -5.163      318.707      231.314      122.190   101574.241    53505.954    14930.474       35.920        8.501      740.560      143.817        0.038      336.718        8.204      858.143
03/27/2014  13:12:00     -370.031     -300.276       -1.234      233.440      197.449      109.100    54494.313    38985.990    11902.782       16.622        5.269      476.538      117.486        0.061      336.912        8.529      858.129
03/27/2014  13:13:00     -468.697     -141.092      -21.772      185.853      211.296       81.144    34541.519    44646.169     6584.343       16.290        4.289      489.473       88.086        0.032      337.070        8.792      858.109
03/27/2014  13:14:00     -403.639     -290.855       15.160      312.958      243.136      127.675    97942.413    59114.905    16300.968       21.052        8.668      497.515      157.980        0.101      337.042        8.746      858.183
03/27/2014  13:15:00     -511.255     -330.586       -4.730      248.464      222.144      112.235    61734.147    49348.120    12596.734       24.716        6.184      608.826      128.945        0.045      336.758        8.272      858.135
03/27/2014  13:16:00     -503.066     -350.619       -0.847      284.818      229.779      125.890    81121.181    52798.607    15848.314       26.286        7.488      613.196      139.471        0.052      336.617        8.037      858.155
03/27/2014  13:17:00     -594.915     -291.242      -29.569      265.197      160.036       96.422    70329.330    25611.643     9297.117       27.241        5.262      662.379      104.034        0.025      336.624        8.047      858.163
03/27/2014  13:18:00     -359.700     -205.826       -3.355      267.762      181.021       96.106    71696.512    32768.491     9236.328       14.271        5.685      414.426       95.197        0.053      336.889        8.490      858.142
03/27/2014  13:19:00     -484.014     -300.588       12.713      316.533      262.877      132.152   100192.943    69104.431    17464.131       25.574        9.338      569.757      148.715        0.068      336.907        8.520      858.111
03/27/2014  13:20:00     -402.883     -156.552       -6.213      216.602      151.561       84.838    46916.275    22970.810     7197.433       13.196        3.854      432.230       95.728        0.049      337.092        8.830      858.178
03/27/2014  13:21:00     -493.529     -336.079      -29.233      249.051      187.950       96.935    62026.499    35325.318     9396.357       23.204        5.337      597.093       97.344        0.027      336.787        8.319      858.137
03/27/2014  13:22:00     -483.670     -338.850      -33.969      264.133      266.749      116.169    69766.074    71155.104    13495.245       25.213        7.721      590.556      125.330        0.045      336.885        8.484      858.106
03/27/2014  13:23:00     -620.628     -447.769      -33.739      359.103      245.642      134.854   128955.252    60339.846    18185.575       39.711       10.374      765.295      166.356        0.047      336.837        8.403      858.103
03/27/2014  13:24:00     -656.095     -397.658      -37.972      292.784      242.444      123.499    85722.182    58778.937    15252.020       37.486        7.988      767.198      130.308        0.029      336.879        8.471      858.036
03/27/2014  13:25:00     -441.528     -314.842       -4.760      268.856      227.165      125.513    72283.704    51604.132    15753.580       21.684        6.982      542.284      149.697        0.076      337.119        8.874      858.075
03/27/2014  13:26:00     -345.302     -217.381      -12.318      185.722      172.365      101.985    34492.513    29709.728    10400.998       12.061        3.730      408.029      114.855        0.079      337.213        9.032      858.086
03/27/2014  13:27:00     -319.225      -99.017        7.389      224.368      156.336      101.126    50340.996    24440.798    10226.424        9.837        4.250      334.229      107.549        0.104      337.442        9.415      858.073
03/27/2014  13:28:00     -620.896     -226.028      -24.587      234.607      207.218      106.463    55040.545    42939.167    11334.445       27.324        5.466      660.758       89.859        0.018      337.132        8.896      858.073
03/27/2014  13:29:00     -652.103     -485.082       -5.613      338.768      277.098      155.984   114764.048    76783.442    24331.158       43.818       10.794      812.738      164.531        0.041      336.929        8.557      858.049
03/27/2014  13:30:00     -604.465     -428.226      -21.980      292.432      287.267      124.765    85516.389    82522.483    15566.331       36.638        9.180      740.780      144.259        0.038      336.860        8.442      858.096
03/27/2014  13:31:00     -632.687     -264.155      -16.826      282.929      265.253      133.743    80048.733    70359.106    17887.080       31.929        8.415      685.617      140.902        0.042      336.891        8.493      858.080
03/27/2014  13:32:00     -505.719     -209.106       -8.725      244.366      218.510      104.604    59714.540    47746.455    10941.972       20.895        5.920      547.245      127.261        0.054      337.086        8.820      858.113
03/27/2014  13:33:00     -517.366     -255.639        7.063      222.532      180.815      102.129    49520.630    32694.047    10430.335       21.284        4.632      577.078      107.935        0.035      337.194        9.000      858.106
03/27/2014  13:34:00     -612.600     -353.168      -27.491      336.162      232.293      121.789   113005.091    53960.018    14832.557       34.124        9.090      707.111      128.075        0.033      337.005        8.684      858.050
03/27/2014  13:35:00     -591.222     -513.373      -37.436      327.866      287.958      163.651   107496.154    82919.862    26781.518       41.580       10.860      783.004      172.682        0.049      336.810        8.359      858.099
03/27/2014  13:36:00     -526.730     -390.657      -30.014      224.721      194.408      117.604    50499.696    37794.643    13830.709       26.652        5.106      655.788      115.190        0.031      336.824        8.382      858.113
03/27/2014  13:37:00     -498.664     -362.243       -0.481      279.824      204.628      131.805    78301.454    41872.637    17372.674       25.869        6.877      616.349      143.085        0.054      336.891        8.494      858.136
03/27/2014  13:38:00     -408.486     -190.555      -10.302      253.782      207.621      118.260    64405.161    43106.534    13985.439       16.236        6.075      450.747      117.381        0.068      336.975        8.634      858.225
03/27/2014  13:39:00     -429.996     -275.649      -13.291      237.776      145.318      108.020    56537.644    21117.298    11668.218       17.517        4.466      510.764      114.186        0.050      336.814        8.366      858.244
03/27/2014  13:40:00     -364.687     -119.970       -1.994      225.037      181.782      105.002    50641.794    33044.865    11025.459       12.103        4.736      383.913      113.845        0.088      337.003        8.680      858.169
03/27/2014  13:41:00     -316.016     -162.761       -5.586      268.713      162.215      102.197    72206.549    26313.816    10444.191       11.765        5.448      355.468      113.369        0.102      337.126        8.888      858.138
03/27/2014  13:42:00     -430.675      -82.670      -12.914      220.486      179.344       97.235    48613.985    32164.098     9454.673       14.134        4.512      438.538       99.523        0.052      337.153        8.932      858.138
03/27/2014  13:43:00     -414.735     -176.335        4.813      190.373      203.437       95.715    36242.042    41386.659     9161.340       14.494        4.340      450.665       86.640        0.037      337.190        8.995      858.162
03/27/2014  13:44:00     -563.252     -356.834       -8.422      245.320      180.409       99.541    60181.744    32547.472     9908.480       27.363        5.132      666.771      106.874        0.026      336.879        8.474      858.218
03/27/2014  13:45:00     -450.308     -287.656      -15.790      238.763      179.130       97.141    57007.729    32087.640     9436.419       19.213        4.927      534.344      115.003        0.046      336.749        8.258      858.148
03/27/2014  13:46:00     -547.318     -334.614      -19.629      200.398      153.142       99.372    40159.212    23452.415     9874.894       24.268        3.674      641.500       97.660        0.023      336.913        8.531      858.121
03/27/2014  13:47:00     -383.789     -261.147      -10.004      181.097      134.662       82.108    32796.199    18133.918     6741.713       13.662        2.884      464.211       83.568        0.032      337.163        8.948      858.150
03/27/2014  13:48:00     -245.730     -173.759        8.213      192.690      141.432       66.355    37129.544    20003.060     4402.943        7.608        3.077      300.958       77.807        0.067      337.178        8.975      858.134
03/27/2014  13:49:00     -315.506     -212.448        2.592      173.894      180.177       85.108    30239.192    32463.754     7243.360       10.730        3.497      380.366       92.691        0.059      337.311        9.197      858.138
03/27/2014  13:50:00     -287.469     -137.883       -3.237      158.223      143.682       70.542    25034.489    20644.539     4976.186        7.615        2.533      318.826       78.214        0.060      337.599        9.678      858.156
03/27/2014  13:51:00     -224.849      -66.901       -1.067      151.195      153.435       81.570    22860.068    23542.177     6653.674        5.403        2.653      234.591       68.913        0.086      337.619        9.713      858.185
03/27/2014  13:52:00     -296.114     -123.702       -4.824      157.633      110.017       80.047    24848.164    12103.737     6407.534        7.318        2.168      320.914       78.996        0.061      337.479        9.479      858.155
03/27/2014  13:53:00     -360.747      -90.526      -12.123      258.239      139.797       89.985    66687.280    19543.290     8097.384       11.639        4.716      371.932      105.042        0.080      337.453        9.434      858.132
03/27/2014  13:54:00     -429.473     -211.316       -5.510      259.290      236.177      122.647    67231.063    55779.586    15042.215       18.356        6.903      478.645      146.111        0.093      337.224        9.052      858.119
03/27/2014  13:55:00     -454.429     -282.781       -9.750      286.756      188.168      101.551    82229.255    35407.152    10312.505       20.723        6.397      535.230      132.271        0.061      337.057        8.773      858.092
03/27/2014  13:56:00     -494.826     -253.644      -14.497      291.691      200.920      112.781    85083.648    40368.970    12719.452       22.376        6.909      556.047      139.275        0.063      337.064        8.783      858.093
03/27/2014  13:57:00     -586.994     -232.204        2.701      299.196      253.850      134.360    89518.058    64439.842    18052.718       28.522        8.601      631.254      154.386        0.060      337.055        8.769      858.065
03/27/2014  13:58:00     -404.154     -187.178      -15.898      230.480      234.229      104.300    53120.936    54863.396    10878.592       15.872        5.943      445.395      109.145        0.060      337.163        8.949      858.040
03/27/2014  13:59:00     -261.997      -99.387       36.758      306.615      264.746      131.087    94012.703    70090.285    17183.791       13.054        9.064      280.215      157.022        0.314      337.425        9.388      857.986
03/27/2014  14:00:00     -576.390     -369.570       11.036      344.914      285.696      131.378   118965.564    81621.938    17260.138       34.335       10.892      684.695      176.658        0.067      337.244        9.085      857.988
03/27/2014  14:01:00     -580.183     -394.785      -17.497      344.493      260.888      159.247   118675.429    68062.501    25359.589       35.239       10.605      701.760      184.245        0.069      337.156        8.937      857.979
03/27/2014  14:02:00     -484.107     -212.867      -25.041      266.942      265.550      142.726    71257.797    70516.823    20370.648       22.119        8.107      528.840      143.030        0.073      337.054        8.767      858.024
03/27/2014  14:03:00     -432.231     -293.063       -0.761      282.610      212.335      114.169    79868.599    45086.158    13034.644       20.532        6.899      522.216      132.557        0.064      337.350        9.262      857.950
03/27/2014  14:04:00     -464.024     -319.462      -31.779      288.640      200.448      139.499    83313.323    40179.568    19460.108       23.064        7.148      563.360      150.140        0.071      337.286        9.153      857.923
03/27/2014  14:05:00     -464.447     -368.258        2.617      333.639      253.185      142.067   111314.872    64102.592    20182.933       27.343        9.780      592.727      185.381        0.098      337.511        9.533      857.957
03/27/2014  14:06:00     -534.839     -268.737        9.374      321.502      233.635      126.253   103363.250    54585.544    15939.795       26.609        8.694      598.559      142.544        0.057      337.293        9.167      857.939
03/27/2014  14:07:00     -654.368     -475.784      -11.583      320.386      293.621      154.327   102647.477    86213.372    23816.711       43.365       10.634      809.054      165.532        0.042      337.168        8.958      857.950
03/27/2014  14:08:00     -598.180     -295.269      -12.436      338.954      303.419      132.902   114889.561    92062.844    17662.815       33.484       11.231      667.086      147.599        0.049      337.182        8.980      857.965
03/27/2014  14:09:00     -379.588     -195.310      -18.261      275.394      233.932      123.148    75841.755    54724.387    15165.422       16.412        7.287      426.888      147.551        0.119      337.207        9.022      858.048
03/27/2014  14:10:00     -458.612     -137.836        0.339      299.938      218.728      106.603    89962.995    47841.896    11364.139       18.922        7.458      478.878      118.771        0.062      337.269        9.126      858.056
03/27/2014  14:11:00     -556.297     -289.057      -14.198      333.581      219.249      146.223   111276.335    48069.914    21381.154       28.694        9.036      626.913      159.139        0.064      337.154        8.934      858.106
03/27/2014  14:12:00     -444.150     -307.126       -2.552      319.827      215.473      115.317   102289.549    46428.519    13298.018       22.678        8.101      539.995      126.738        0.055      337.116        8.870      858.145
03/27/2014  14:13:00     -359.505     -155.185        9.136      241.710      195.367      120.617    58423.804    38168.095    14548.499       13.225        5.557      391.569      136.501        0.122      337.190        8.993      858.131
03/27/2014  14:14:00     -465.511     -218.529       -4.096      198.285      124.361       75.934    39316.884    15465.738     5766.018       16.250        3.027      514.252       92.084        0.032      337.338        9.242      858.129
03/27/2014  14:15:00     -394.510     -153.512        5.534      215.771      174.436       87.915    46557.152    30427.929     7729.131       13.196        4.236      423.325      103.176        0.059      337.540        9.579      858.134
03/27/2014  14:16:00     -368.228        5.574       -8.737      197.422      188.054       80.088    38975.400    35364.192     6414.149       10.821        4.038      368.270       91.245        0.061      337.388        9.324      858.068
03/27/2014  14:17:00     -365.909     -238.448        7.825      259.722      175.953      110.012    67455.363    30959.507    12102.661       15.064        5.526      436.746      122.806        0.079      337.655        9.772      858.051
03/27/2014  14:18:00     -424.470     -284.647        7.368      264.064      229.365      109.308    69729.744    52608.310    11948.341       19.774        6.714      511.076      120.946        0.056      337.572        9.634      858.023
03/27/2014  14:19:00     -329.962     -334.473        0.185      226.965      190.769       93.505    51513.210    36392.849     8743.266       15.868        4.832      469.838      102.435        0.048      337.560        9.613      857.980
03/27/2014  14:20:00     -442.739     -191.918       -9.702      210.229      198.280       95.973    44196.145    39314.768     9210.762       16.281        4.636      482.545      106.038        0.048      337.677        9.809      857.907
03/27/2014  14:21:00     -649.174     -429.341      -10.955      293.856      210.656      135.819    86351.570    44375.977    18446.806       37.750        7.459      778.306      140.855        0.033      337.610        9.697      857.852
03/27/2014  14:22:00     -488.781     -411.898       -9.236      325.518      245.508      135.506   105962.012    60274.159    18361.783       29.659        9.230      639.192      160.037        0.063      337.477        9.473      857.921
03/27/2014  14:23:00     -439.508     -359.078        3.438      278.168      209.709      115.929    77377.493    43977.972    13439.472       22.843        6.740      567.543      134.138        0.056      337.212        9.030      857.968
03/27/2014  14:24:00     -494.248     -256.831        1.897      256.831      207.172      113.728    65962.265    42920.355    12933.993       21.601        6.091      556.995      127.716        0.053      337.443        9.417      857.962
03/27/2014  14:25:00     -528.150     -369.846        1.681      254.576      238.778      135.187    64809.181    57014.910    18275.451       27.789        7.005      644.770      141.150        0.048      337.332        9.231      857.973
03/27/2014  14:26:00     -574.283     -399.158      -16.388      282.252      219.631      119.461    79666.158    48237.813    14270.921       31.576        7.109      699.377      139.677        0.040      337.340        9.244      857.984
03/27/2014  14:27:00     -422.991     -316.585      -10.438      245.018      193.873      107.559    60033.720    37586.840    11568.921       19.420        5.459      528.344      103.584        0.038      337.327        9.224      857.973
03/27/2014  14:28:00     -639.185     -392.306      -21.996      301.255      251.226      145.228    90754.737    63114.277    21091.189       36.892        8.748      749.975      155.374        0.043      337.214        9.035      857.940
03/27/2014  14:29:00     -557.013     -350.719       -2.166      245.967      215.008      126.249    60499.948    46228.342    15938.799       27.795        6.133      658.231      138.590        0.044      337.317        9.207      857.926
03/27/2014  14:30:00     -417.347     -251.536       14.597      313.289      222.922      113.274    98149.784    49694.345    12831.110       19.914        8.034      487.287      126.595        0.067      337.480        9.479      857.976
03/27/2014  14:31:00     -542.014     -353.200       -4.313      261.330      176.489      110.411    68293.268    31148.260    12190.519       26.507        5.582      646.938      120.166        0.035      337.228        9.057      857.941
03/27/2014  14:32:00     -612.692     -372.163      -15.086      320.815      240.958      132.227   102922.430    58060.808    17484.083       34.626        8.923      716.866      147.200        0.042      337.260        9.112      857.930
03/27/2014  14:33:00     -553.119     -227.862       -5.296      280.651      230.204      120.527    78764.817    52993.717    14526.641       25.206        7.314      598.216      133.730        0.050      337.236        9.070      857.971
03/27/2014  14:34:00     -619.124     -260.093       -4.067      311.903      242.896      120.135    97283.264    58998.300    14432.336       31.081        8.536      671.538      129.824        0.037      337.113        8.865      857.986
03/27/2014  14:35:00     -601.519      -57.640      -31.547      273.809      184.918      102.017    74971.305    34194.809    10407.570       24.283        5.979      604.275      125.482        0.043      337.119        8.875      858.015
03/27/2014  14:36:00     -520.077      -30.376      -22.474      229.184      190.849       90.291    52525.077    36423.509     8152.529       18.449        4.855      520.963       84.573        0.026      337.254        9.101      858.057
03/27/2014  14:37:00     -436.356      -79.105        3.224      260.003      205.559      110.527    67601.544    42254.323    12216.239       15.935        6.104      443.469      114.973        0.067      337.418        9.375      858.079
03/27/2014  14:38:00     -617.114     -343.168      -20.423      308.377      248.155      116.399    95096.422    61580.667    13548.823       33.458        8.511      706.112      136.070        0.037      337.243        9.083      858.080
03/27/2014  14:39:00     -528.209     -217.026       13.998      365.408      200.560      116.083   133523.321    40224.209    13475.245       25.672        9.361      571.056      155.878        0.075      337.352        9.266      858.063
03/27/2014  14:40:00     -572.722     -326.398      -34.148      293.443      281.563      128.789    86109.057    79277.987    16586.510       30.881        9.099      659.201      138.698        0.044      337.332        9.232      857.986
03/27/2014  14:41:00     -502.889     -222.462      -19.117      352.774      231.935      121.825   124449.798    53794.010    14841.386       24.788        9.654      549.897      152.978        0.077      337.639        9.745      858.014
03/27/2014  14:42:00     -577.113     -136.339      -21.341      227.899      209.110      103.249    51937.730    43727.067    10660.388       22.919        5.316      592.999      106.942        0.033      337.474        9.470      857.998
03/27/2014  14:43:00     -559.361     -274.346      -27.023      295.260      199.936      100.914    87178.685    39974.315    10183.703       26.308        6.867      623.017      127.181        0.042      337.510        9.531      857.960
03/27/2014  14:44:00     -508.291     -369.498      -20.737      228.220      217.437      125.984    52084.377    47278.999    15872.028       25.525        5.762      628.402      120.533        0.037      337.374        9.302      857.985
03/27/2014  14:45:00     -439.193     -174.132        5.490      256.718      194.655      113.382    65904.082    37890.571    12855.576       16.992        5.833      472.453      123.522        0.068      337.510        9.529      857.938
03/27/2014  14:46:00     -342.629     -218.294        8.068      229.360      171.780       96.552    52605.859    29508.208     9322.231       12.826        4.572      406.259      104.063        0.066      337.621        9.716      857.895
03/27/2014  14:47:00     -332.169     -142.901       11.500      201.421      202.651      100.080    40570.261    41067.629    10015.958       11.125        4.583      361.603      107.304        0.088      337.554        9.604      857.889
03/27/2014  14:48:00     -285.872     -180.489       17.742      262.152      189.537      107.324    68723.544    35924.418    11518.546       11.537        5.808      338.082      133.612        0.156      337.634        9.740      857.875
03/27/2014  14:49:00     -486.206     -107.012      -18.808      326.545      173.058      107.498   106631.472    29949.147    11555.867       19.814        7.407      497.843      146.087        0.086      337.575        9.640      857.868
03/27/2014  14:50:00     -371.066      -87.322        7.732      263.599      205.773       98.592    69484.642    42342.348     9720.401       13.344        6.077      381.202      109.142        0.082      337.766        9.959      857.865
03/27/2014  14:51:00     -344.171      -41.787      -16.255      196.310      153.203       78.416    38537.485    23471.242     6149.114        9.430        3.408      346.698       89.102        0.066      337.816       10.043      857.839
03/27/2014  14:52:00     -502.371      -10.915      -34.907      221.736      202.436       91.150    49167.071    40980.433     8308.408       17.607        4.923      502.489      101.465        0.041      337.532        9.565      857.837
03/27/2014  14:53:00     -515.739     -154.703      -33.752      171.114      181.114       86.940    29280.120    32802.199     7558.566       18.034        3.482      538.442       74.663        0.019      337.478        9.476      857.850
03/27/2014  14:54:00     -359.466     -137.765      -22.676      198.533      145.211       91.522    39415.178    21086.321     8376.271       10.878        3.444      384.961       97.665        0.064      337.530        9.563      857.880
03/27/2014  14:55:00     -453.729     -369.231      -13.047      225.237      212.676      101.280    50731.619    45230.909    10257.590       22.427        5.311      584.980      103.141        0.031      337.455        9.438      857.861
03/27/2014  14:56:00     -311.153     -252.811      -13.169      215.056      182.101       93.735    46248.888    33160.780     8786.159       12.453        4.410      400.911       83.395        0.043      337.785        9.990      857.860
03/27/2014  14:57:00     -571.190     -399.286        2.519      368.734      290.876      157.480   135964.884    84608.658    24799.802       36.548       12.269      696.913      179.386        0.066      337.446        9.422      857.850
03/27/2014  14:58:00     -378.180     -207.219      -15.140      139.088      164.028       83.504    19345.529    26905.174     6972.879       11.970        2.661      431.231       65.922        0.023      337.509        9.528      857.937
03/27/2014  14:59:00     -637.165      -51.694      -38.575      205.612      233.296       84.424    42276.171    54427.205     7127.328       25.696        5.192      639.259       91.321        0.020      337.368        9.291      857.944
03/27/2014  15:00:00     -330.980     -118.628      -11.526      199.193      178.395      100.811    39677.811    31824.953    10162.768       10.269        4.083      351.597       98.714        0.079      337.463        9.451      857.900
03/27/2014  15:01:00     -477.590      -88.349      -15.383      209.025      200.060      104.182    43691.284    40023.813    10853.848       16.533        4.728      485.693       99.043        0.042      337.419        9.377      857.863
03/27/2014  15:02:00     -497.715     -187.815       -4.210      249.172      231.097       93.224    62086.490    53406.014     8690.739       20.357        6.209      531.972      109.891        0.043      337.538        9.577      857.912
03/27/2014  15:03:00     -428.412     -217.763      -15.074      216.845      185.472       84.178    47021.900    34399.716     7085.864       15.983        4.425      480.580       91.478        0.036      337.171        8.963      857.891
03/27/2014  15:04:00     -315.525     -197.985       11.732      337.760      204.240      110.585   114081.960    41713.779    12228.976       15.342        8.401      372.497      160.058        0.185      337.626        9.725      857.833
03/27/2014  15:05:00     -397.759     -101.090        4.963      245.759      198.530      114.946    60397.391    39414.196    13212.603       14.072        5.651      410.404      116.106        0.080      337.459        9.444      857.889
03/27/2014  15:06:00     -423.736     -129.496      -28.459      205.708      223.160       81.537    42315.675    49800.379     6648.274       14.793        4.938      443.081       82.701        0.035      337.408        9.358      857.872
03/27/2014  15:07:00     -464.843     -284.026       -7.327      246.323      207.874      112.974    60674.895    43211.692    12763.213       20.670        5.832      544.747      108.146        0.039      337.474        9.469      857.819
03/27/2014  15:08:00     -426.282     -250.116       16.739      310.996      231.291      115.726    96718.790    53495.545    13392.483       20.405        8.180      494.241      129.410        0.069      337.579        9.644      857.855
03/27/2014  15:09:00     -511.457     -224.542       -4.512      299.285      218.669      121.600    89571.560    47815.988    14786.568       23.207        7.609      558.576      138.729        0.062      337.519        9.545      857.886
03/27/2014  15:10:00     -415.353     -166.200       11.380      315.960      190.516      109.362    99830.427    36296.232    11960.083       17.415        7.404      447.371      144.959        0.105      337.476        9.474      857.928
03/27/2014  15:11:00     -362.430     -113.561        6.148      193.980      174.847       88.934    37628.424    30571.492     7909.234       11.019        3.805      379.805       83.646        0.049      337.451        9.431      857.949
03/27/2014  15:12:00     -517.186     -302.471        0.121      240.650      237.918      112.156    57912.352    56604.940    12578.975       24.301        6.355      599.141      127.663        0.045      337.302        9.181      857.955
03/27/2014  15:13:00     -424.609     -213.927       -1.069      266.752      159.752       95.620    71156.619    25520.748     9143.094       16.592        5.291      475.455      112.501        0.056      337.429        9.395      857.961
03/27/2014  15:14:00     -585.835     -293.680      -37.702      257.548      236.833      115.697    66330.957    56089.781    13385.826       28.332        6.790      655.325      124.773        0.036      337.367        9.290      857.965
03/27/2014  15:15:00     -498.793     -226.828      -12.689      327.095      278.081      119.086   106990.855    77329.252    14181.519       24.942        9.925      547.946      146.107        0.071      337.525        9.556      857.999
03/27/2014  15:16:00     -468.043     -254.234      -10.955      253.837      180.147      123.166    64432.982    32452.903    15169.812       19.792        5.603      532.634      118.375        0.049      337.450        9.428      858.089
03/27/2014  15:17:00     -474.145     -296.013      -20.456      236.029      207.403      120.100    55709.498    43016.101    14423.928       21.298        5.657      558.961      130.663        0.055      337.375        9.303      858.043
03/27/2014  15:18:00     -382.878     -285.748      -14.925      233.661      208.961      101.498    54597.310    43664.689    10301.908       16.850        5.428      477.753      108.622        0.052      337.504        9.518      858.002
03/27/2014  15:19:00     -359.866     -238.009        5.201      195.908      188.778       98.495    38379.847    35636.961     9701.281       13.493        4.186      431.453       99.129        0.053      337.524        9.553      857.959
03/27/2014  15:20:00     -341.591     -135.620        7.340      235.097      174.223       88.447    55270.408    30353.824     7822.811       11.427        4.672      367.528       92.819        0.064      337.661        9.783      857.953
03/27/2014  15:21:00     -436.283     -316.796       -0.057      225.261      230.914      116.663    50742.554    53321.445    13610.252       20.417        5.884      539.168      112.306        0.043      337.609        9.696      857.950
03/27/2014  15:22:00     -298.637     -172.457       10.984      178.623      129.529       87.873    31906.353    16777.786     7721.599        8.772        2.820      344.856      102.345        0.088      337.767        9.960      858.000
03/27/2014  15:23:00     -304.643     -197.846       18.647      238.248      144.708       91.099    56762.214    20940.497     8298.953       10.914        4.300      363.249      111.658        0.094      337.773        9.970      857.992
03/27/2014  15:24:00     -579.728     -331.440      -14.318      273.520      196.050      105.175    74813.307    38435.418    11061.695       28.521        6.216      667.785      106.353        0.025      337.297        9.173      857.932
03/27/2014  15:25:00     -317.799     -233.711        5.647      242.059      190.625      103.080    58592.558    36337.731    10625.536       13.058        5.278      394.483       96.916        0.060      337.478        9.476      857.939
03/27/2014  15:26:00     -451.210     -229.519       -1.686      181.321      210.860       99.649    32877.351    44462.047     9929.978       17.176        4.363      506.231      101.966        0.041      337.451        9.431      857.912
03/27/2014  15:27:00     -408.320     -238.356       -4.772      193.742      178.233       99.592    37535.917    31767.061     9918.548       15.138        3.961      472.798      107.178        0.051      337.462        9.448      857.897
03/27/2014  15:28:00     -580.785     -379.038       -1.699      242.204      178.277       98.663    58662.580    31782.681     9734.402       29.056        5.009      693.528       84.698        0.015      337.217        9.038      857.915
03/27/2014  15:29:00     -335.071     -294.061       -9.532      178.416      124.351       76.521    31832.163    15463.229     5855.514       12.598        2.658      445.807       73.326        0.027      337.254        9.102      857.892
03/27/2014  15:30:00     -219.259     -146.671        0.230      191.295      134.768       71.547    36593.828    18162.376     5118.987        6.472        2.994      263.793       72.341        0.075      337.436        9.408      857.869
03/27/2014  15:31:00     -488.159     -338.301       -8.613      292.104      199.829       94.854    85324.588    39931.657     8997.245       24.351        6.713      593.925      107.653        0.033      337.396        9.338      857.831
03/27/2014  15:32:00     -423.988     -243.380      -14.854      154.649      207.575       94.595    23916.372    43087.210     8948.290       15.757        3.798      488.876       83.597        0.029      337.318        9.208      857.907
03/27/2014  15:33:00     -250.958     -188.938       12.715      198.107      173.026       99.983    39246.347    29938.052     9996.506        8.900        3.959      314.130      120.295        0.147      337.525        9.554      857.883
03/27/2014  15:34:00     -462.389     -267.341      -17.854      201.094      254.862       97.560    40438.942    64954.779     9517.908       20.023        5.746      534.111      107.263        0.040      337.535        9.570      857.884
03/27/2014  15:35:00     -404.094     -246.904        7.534      281.941      197.599      135.702    79490.704    39045.280    18415.032       18.061        6.848      473.555      153.998        0.106      337.441        9.414      857.885
03/27/2014  15:36:00     -297.493     -190.390       -3.729      268.989      190.552      108.843    72355.257    36310.077    11846.818       12.262        6.026      353.201      139.364        0.156      337.609        9.697      857.867
03/27/2014  15:37:00     -301.883     -201.382       -5.610      194.099      125.889       83.550    37674.460    15848.029     6980.606        9.610        3.025      362.889       93.193        0.066      337.618        9.711      857.878
03/27/2014  15:38:00     -384.309     -241.757       -9.629      188.394      141.840       85.948    35492.298    20118.624     7387.070       13.460        3.150      454.026       92.541        0.042      337.641        9.749      857.877
03/27/2014  15:39:00     -355.065     -161.183        2.455      219.585      147.581       85.560    48217.562    21780.070     7320.515       11.467        3.866      389.937      103.946        0.071      337.658        9.778      857.873
03/27/2014  15:40:00     -642.980     -261.280      -36.049      221.839      228.611      101.739    49212.348    52262.863    10350.788       29.739        5.591      694.039       95.660        0.019      337.401        9.349      857.911
03/27/2014  15:41:00     -397.726     -225.446       -2.705      260.438      216.335      116.566    67828.054    46800.713    13587.520       16.860        6.411      457.178      139.946        0.094      337.476        9.475      857.917
03/27/2014  15:42:00     -332.541     -185.034       -4.318      193.314      166.052       84.816    37370.204    27573.288     7193.760       10.848        3.607      380.553       90.393        0.056      337.537        9.574      857.950
03/27/2014  15:43:00     -356.067     -259.341       -8.723      196.415      152.343      114.595    38579.048    23208.480    13132.048       13.451        3.746      440.501      102.070        0.054      337.325        9.219      857.896
03/27/2014  15:44:00     -355.471     -146.142      -14.605      164.418      181.157       83.610    27033.391    32817.718     6990.667       10.737        3.342      384.340       76.848        0.040      337.520        9.547      857.861
03/27/2014  15:45:00     -293.735     -188.654       -7.879      244.318      160.068       97.708    59691.225    25621.833     9546.865       10.838        4.743      349.100      107.724        0.095      337.785        9.990      857.869
03/27/2014  15:46:00     -533.151     -424.156      -33.160      232.165      180.564      113.660    53900.666    32603.402    12918.594       28.232        4.971      681.292      104.010        0.023      337.384        9.318      857.907
03/27/2014  15:47:00     -456.538     -306.258      -21.605      247.347      162.033       95.090    61180.770    26254.613     9042.021       19.957        4.824      549.746      110.133        0.040      337.343        9.249      857.932
03/27/2014  15:48:00     -665.953     -470.825      -28.098      307.885      230.055      121.144    94793.310    52925.506    14675.890       41.415        8.120      815.579      121.643        0.022      337.209        9.025      857.872
03/27/2014  15:49:00     -437.802     -297.053       -9.358      224.676      173.533      106.393    50479.209    30113.847    11319.575       18.594        4.596      529.066      115.590        0.048      337.270        9.127      857.949
03/27/2014  15:50:00     -374.138     -347.044       -8.186      256.651      175.896      112.766    65869.677    30939.494    12716.256       18.499        5.476      510.313      126.388        0.061      337.345        9.254      857.895
03/27/2014  15:51:00     -279.092     -222.570       -1.107      188.453      158.225       86.538    35514.415    25035.277     7488.752        9.772        3.402      356.973       87.586        0.060      337.585        9.656      857.933
03/27/2014  15:52:00     -239.456     -205.506       14.079      146.977      151.769       72.105    21602.162    23033.819     5199.068        7.479        2.492      315.550       71.530        0.051      337.548        9.593      857.942
03/27/2014  15:53:00     -298.173     -257.242        9.015      251.532      181.998      110.965    63268.458    33123.355    12313.330       13.192        5.435      393.802      138.182        0.123      337.674        9.805      857.921
03/27/2014  15:54:00     -492.631     -331.690       -5.320      339.055      216.964      121.098   114958.233    47073.232    14664.844       26.468        8.835      593.888      149.094        0.063      337.614        9.705      857.958
03/27/2014  15:55:00     -541.486     -268.614      -23.173      258.757      243.594      113.026    66955.299    59338.136    12774.896       25.246        6.953      604.450      119.248        0.039      337.336        9.238      858.001
03/27/2014  15:56:00     -629.629     -240.495      -26.136      267.146      244.219      109.920    71366.970    59642.983    12082.374       29.900        7.155      673.996      121.562        0.033      337.255        9.103      858.029
03/27/2014  15:57:00     -492.236     -162.585       -0.428      276.807      237.558      107.824    76622.125    56433.836    11625.976       20.668        7.234      518.392      129.347        0.062      337.449        9.427      858.035
03/27/2014  15:58:00     -578.069     -376.486      -19.263      346.211      226.423      135.027   119862.176    51267.305    18232.334       33.279        9.468      689.859      157.753        0.052      337.383        9.316      858.099
03/27/2014  15:59:00     -587.695     -224.939      -18.500      257.633      194.928      102.948    66374.925    37996.816    10598.387       25.563        5.749      629.271      101.448        0.026      337.214        9.034      858.072
03/27/2014  16:00:00     -423.018     -247.338      -10.790      255.144      231.073      102.503    65098.577    53394.713    10506.916       18.460        6.450      490.020      132.481        0.073      337.323        9.216      858.056
03/27/2014  16:01:00     -349.058     -226.904       18.323      243.506      192.818       99.127    59295.201    37178.805     9826.224       13.996        5.315      416.325      107.442        0.067      337.503        9.518      858.101
03/27/2014  16:02:00     -500.801     -287.049       -6.576      273.885      197.501      103.449    75012.851    39006.803    10701.749       22.896        6.236      577.234      128.872        0.050      337.271        9.129      858.061
03/27/2014  16:03:00     -453.814     -352.425       -8.475      233.586      181.154      107.029    54562.368    32816.800    11455.304       21.451        4.942      574.587      110.288        0.037      337.380        9.310      858.118
03/27/2014  16:04:00     -521.232     -330.073       11.322      327.936      247.509      125.212   107541.846    61260.908    15678.041       28.259        9.224      616.953      149.191        0.058      337.391        9.329      858.101
03/27/2014  16:05:00     -519.352     -213.775       -0.059      307.915      225.076      112.596    94811.476    50659.057    12677.798       23.676        7.907      561.628      131.347        0.055      337.470        9.463      858.154
03/27/2014  16:06:00     -456.492     -334.303      -21.494      201.422      176.929      101.647    40570.808    31303.723    10332.094       20.139        4.110      565.813      105.625        0.035      337.386        9.321      858.184
03/27/2014  16:07:00     -317.526     -244.900       17.558      267.990      174.408      117.264    71818.482    30417.986    13750.773       13.853        5.799      400.997      134.918        0.113      337.470        9.463      858.151
03/27/2014  16:08:00     -438.959     -389.017        9.072      320.816      250.858      130.998   102922.987    62929.687    17160.576       26.353        9.151      586.531      141.042        0.058      337.410        9.361      858.169
03/27/2014  16:09:00     -644.748     -477.544      -12.546      271.196      245.471      129.238    73547.062    60256.216    16702.548       39.718        7.525      802.339      143.992        0.032      337.195        9.002      858.152
03/27/2014  16:10:00     -411.763     -322.547      -25.150      224.705      229.597      118.412    50492.343    52714.755    14021.353       19.570        5.861      523.054      105.649        0.041      337.373        9.298      858.211
03/27/2014  16:11:00     -366.809      -44.090        9.230      295.414      203.585      113.327    87269.662    41447.003    12843.041       13.905        7.078      369.449      126.943        0.118      337.365        9.288      858.244
03/27/2014  16:12:00     -462.465      -66.050      -23.654      216.867      156.357       75.470    47031.111    24447.584     5695.781       14.797        3.859      467.157       73.249        0.025      337.458        9.442      858.245
03/27/2014  16:13:00     -387.502     -247.422      -15.053      233.310      166.556       99.204    54433.677    27740.738     9841.402       15.179        4.601      459.756       93.899        0.042      337.497        9.508      858.272
03/27/2014  16:14:00     -450.229     -360.387        0.614      244.501      211.770      110.061    59780.856    44846.660    12113.499       22.464        5.837      576.702      125.629        0.047      337.444        9.417      858.238
03/27/2014  16:15:00     -404.821     -290.517        8.169      208.619      189.630      107.186    43521.716    35959.486    11488.921       16.964        4.549      498.277      119.618        0.058      337.558        9.609      858.209
03/27/2014  16:16:00     -359.846     -224.557       -1.304      223.617      185.292      114.722    50004.698    34333.035    13161.105       13.869        4.875      424.164      129.117        0.093      337.658        9.776      858.188
03/27/2014  16:17:00     -354.107     -115.226       -7.735      275.289      184.513       94.559    75784.178    34044.931     8941.345       12.873        5.939      372.382      101.498        0.074      337.607        9.692      858.221
03/27/2014  16:18:00     -490.972     -259.289      -21.403      248.728      212.425      125.910    61865.733    45124.576    15853.333       21.577        6.142      555.234      135.664        0.060      337.416        9.373      858.172
03/27/2014  16:19:00     -359.232     -175.309        9.732      248.996      154.237      103.195    61998.884    23789.185    10649.155       12.814        4.822      399.726      118.644        0.088      337.458        9.443      858.190
03/27/2014  16:20:00     -582.132     -386.344       -8.271      281.407      249.550      121.689    79189.951    62275.014    14808.168       32.221        7.814      698.670      138.985        0.040      337.214        9.035      858.183
03/27/2014  16:21:00     -534.417     -354.543      -11.941      273.720      231.272      106.214    74922.903    53486.806    11281.493       27.554        6.985      641.328      115.176        0.032      337.196        9.004      858.183
03/27/2014  16:22:00     -332.255     -308.775       -2.747      214.744      181.529      105.153    46114.797    32952.743    11057.167       14.792        4.506      453.581      112.345        0.061      337.252        9.098      858.201
03/27/2014  16:23:00     -446.995     -353.487       -8.391      287.436      180.799      101.637    82619.310    32688.364    10330.001       22.521        6.282      569.875      108.358        0.036      337.242        9.081      858.196
03/27/2014  16:24:00     -394.692     -217.293        5.869      218.361      165.712       90.832    47681.590    27460.459     8250.369       14.320        4.170      450.553      104.907        0.054      337.368        9.292      858.215
03/27/2014  16:25:00     -376.179     -281.905        3.297      240.051      228.007      104.272    57624.660    51987.108    10872.712       17.072        6.024      470.086      108.842        0.054      337.374        9.301      858.255
03/27/2014  16:26:00     -486.519     -279.697       -3.649      296.918      194.158      134.126    88160.153    37697.490    17989.723       22.937        7.192      561.187      152.845        0.074      337.318        9.208      858.228
03/27/2014  16:27:00     -483.087     -157.960      -10.077      231.748      185.000       94.358    53707.276    34225.026     8903.383       17.761        4.842      508.256      100.952        0.039      337.400        9.346      858.255
03/27/2014  16:28:00     -637.475     -380.811      -23.439      250.756      218.100      112.387    62878.479    47567.791    12630.814       33.749        6.154      742.557      121.170        0.027      337.148        8.924      858.255
03/27/2014  16:29:00     -545.470     -370.989      -15.552      263.330      215.295      115.444    69342.783    46352.129    13327.271       28.220        6.451      659.674      108.405        0.027      337.210        9.027      858.199
03/27/2014  16:30:00     -389.134     -240.138        0.904      206.396      128.947       79.226    42599.491    16627.336     6276.751       13.729        3.275      457.266       80.440        0.031      337.369        9.292      858.213
03/27/2014  16:31:00     -418.615     -202.178       -6.706      213.573      154.322       85.225    45613.454    23815.152     7263.319       14.641        3.835      464.881       86.994        0.035      337.323        9.216      858.154
03/27/2014  16:32:00     -400.610     -230.180        3.797      238.361      175.814       96.571    56815.866    30910.459     9325.864       15.525        4.853      462.029      108.711        0.055      337.317        9.207      858.178
03/27/2014  16:33:00     -537.144     -274.191      -25.460      219.958      188.608      104.403    48381.318    35572.849    10899.885       22.959        4.743      603.079      112.013        0.034      337.314        9.202      858.140
03/27/2014  16:34:00     -304.948     -185.807       -0.201      207.723      180.059       71.645    43148.875    32421.124     5133.039       10.410        4.035      357.096       85.004        0.057      337.477        9.475      858.151
03/27/2014  16:35:00     -482.432     -122.420       -3.300      254.612      195.515       96.078    64827.170    38225.981     9231.047       17.999        5.614      497.722      116.854        0.055      337.413        9.368      858.083
03/27/2014  16:36:00     -482.162     -216.240        1.646      238.725      167.284      101.520    56989.646    27983.830    10306.253       18.725        4.764      528.431      105.866        0.040      337.342        9.247      858.100
03/27/2014  16:37:00     -639.651     -389.826      -21.890      243.110      213.023      110.140    59102.417    45378.928    12130.868       33.908        5.831      749.078      125.386        0.028      337.241        9.079      858.059
03/27/2014  16:38:00     -440.923     -221.047        3.049      215.088      149.337       90.301    46263.035    22301.583     8154.302       15.999        3.836      493.229       97.483        0.039      337.305        9.187      858.087
03/27/2014  16:39:00     -331.346      -53.931        8.819      194.727      184.624       93.504    37918.437    34086.159     8742.981        9.675        4.037      335.706      104.030        0.096      337.340        9.246      858.057
03/27/2014  16:40:00     -393.104      -91.737      -36.790      148.801      125.199       70.015    22141.710    15674.686     4902.138       10.350        2.136      403.666       76.968        0.036      337.379        9.310      858.030
03/27/2014  16:41:00     -347.759      -82.545       -2.963      208.770      131.301       82.040    43584.766    17239.941     6730.506        9.765        3.378      357.421       78.078        0.048      337.556        9.607      858.076
03/27/2014  16:42:00     -176.587      -90.244        8.925      158.417      161.096       75.056    25095.875    25951.885     5633.368        4.803        2.834      198.310       85.104        0.184      337.581        9.651      858.023
03/27/2014  16:43:00     -404.105     -272.634      -14.675      228.810      203.488      105.239    52354.233    41407.567    11075.329       17.132        5.242      487.474      103.620        0.045      337.475        9.471      857.984
03/27/2014  16:44:00     -536.864     -201.414      -22.979      260.837      198.533      100.706    68036.129    39415.194    10141.775       22.344        5.880      573.403       97.077        0.029      337.336        9.238      858.000
03/27/2014  16:45:00     -482.410     -279.620       -8.551      186.078      151.597       88.997    34624.912    22981.627     7920.378       18.824        3.276      557.591       88.185        0.025      337.234        9.066      858.038
03/27/2014  16:46:00     -347.208     -120.704       -5.607      158.180      141.085       87.948    25021.011    19904.988     7734.881        9.390        2.633      367.591       82.005        0.050      337.301        9.180      858.004
03/27/2014  16:47:00     -415.336     -271.907        1.663      207.362      174.129      103.469    42998.951    30320.938    10705.744       16.522        4.201      496.424      115.680        0.054      337.327        9.224      858.006
03/27/2014  16:48:00     -440.390     -264.654       -8.554      194.004      136.931       93.835    37637.512    18749.971     8805.043       16.461        3.260      513.795      101.095        0.039      337.463        9.450      857.989
03/27/2014  16:49:00     -503.004     -247.594        2.451      313.665      223.870      104.888    98385.913    50117.582    11001.426       23.689        7.975      560.638      130.779        0.054      337.357        9.274      857.979
03/27/2014  16:50:00     -429.334     -311.283       -0.508      235.648      243.222      115.143    55530.193    59157.135    13257.968       20.456        6.397      530.307      129.356        0.060      337.292        9.164      857.956
03/27/2014  16:51:00     -677.851     -324.143      -54.748      252.403      227.138      115.088    63707.051    51591.601    13245.221       34.802        6.427      751.366      113.974        0.023      337.209        9.026      857.931
03/27/2014  16:52:00     -443.079     -190.145       -9.142      269.201      211.173      125.844    72469.415    44593.952    15836.681       18.271        6.645      482.156      161.486        0.112      337.361        9.280      857.951
03/27/2014  16:53:00     -368.064     -285.120        0.035      237.994      183.232      112.662    56641.187    33574.090    12692.674       15.982        5.145      465.580      126.006        0.073      337.373        9.300      857.912
03/27/2014  16:54:00     -412.656     -191.581        4.764      238.442      179.842      103.846    56854.779    32343.216    10783.935       15.348        4.999      454.959      111.160        0.060      337.429        9.396      857.910
03/27/2014  16:55:00     -408.250     -407.375       -2.310      272.705      224.157      143.289    74368.093    50246.255    20531.679       23.886        7.257      576.734      142.320        0.061      337.441        9.414      857.895
03/27/2014  16:56:00     -492.881     -229.022       -1.836      318.918      228.878      111.954   101708.983    52385.064    12533.636       23.098        8.331      543.492      133.825        0.061      337.355        9.270      857.946
03/27/2014  16:57:00     -407.225     -362.432        0.628      258.306      201.484      111.697    66721.789    40595.859    12476.122       20.847        5.990      545.151      125.407        0.053      337.316        9.205      857.902
03/27/2014  16:58:00     -452.582     -280.754       -8.192      196.154      170.282       93.970    38476.403    28996.068     8830.345       18.000        3.815      532.591       98.689        0.034      337.394        9.335      857.893
03/27/2014  16:59:00     -304.970     -132.566       10.732      222.755      155.815       86.534    49619.887    24278.433     7488.113        9.603        4.069      332.536      113.337        0.116      337.473        9.469      857.842
03/27/2014  17:00:00     -373.996     -209.784        7.417      242.079      192.730      101.034    58602.075    37144.772    10207.956       14.493        5.298      428.815      127.537        0.088      337.542        9.583      857.855
03/27/2014  17:01:00     -536.255     -322.927      -23.069      227.132      172.780      110.836    51588.860    29852.958    12284.614       24.304        4.686      625.981      118.914        0.036      337.431        9.396      857.829
03/27/2014  17:02:00     -393.445     -326.673        9.066      222.291      200.240      111.631    49413.128    40096.008    12461.524       18.177        5.099      511.385      126.571        0.061      337.562        9.617      857.834
03/27/2014  17:03:00     -572.852     -324.628      -11.044      249.569      214.989      132.482    62284.786    46220.444    17551.410       27.984        6.303      658.439      139.123        0.045      337.432        9.400      857.838
03/27/2014  17:04:00     -534.935     -303.851       -1.965      234.256      270.554      136.850    54875.821    73199.285    18727.887       26.262        7.340      615.208      147.201        0.057      337.469        9.460      857.819
03/27/2014  17:05:00     -557.245     -282.489      -29.357      238.617      205.340      116.874    56938.168    42164.379    13659.647       25.195        5.638      624.758      115.609        0.034      337.526        9.555      857.814
03/27/2014  17:06:00     -520.866     -264.186       -9.559      279.711      211.860      125.546    78238.031    44884.603    15761.809       24.001        6.944      584.034      147.783        0.064      337.553        9.601      857.810
03/27/2014  17:07:00     -400.037     -217.528       12.000      221.951      190.851      100.062    49262.434    36424.015    10012.330       15.158        4.785      455.355      103.382        0.052      337.635        9.738      857.862
03/27/2014  17:08:00     -568.011     -305.631       -8.571      243.243      204.527      109.938    59167.083    41831.250    12086.455       26.458        5.654      645.017      116.109        0.032      337.301        9.180      857.859
03/27/2014  17:09:00     -558.632     -449.667       -9.642      271.645      259.839      134.181    73790.780    67516.390    18004.510       33.681        7.966      717.126      155.631        0.047      337.300        9.177      857.857
03/27/2014  17:10:00     -574.045     -344.062      -19.169      253.806      207.570       94.415    64417.626    43085.444     8914.267       28.233        5.821      669.258      111.709        0.028      337.283        9.149      857.860
03/27/2014  17:11:00     -537.319     -379.130       -4.120      277.328      227.077      126.670    76910.549    51564.119    16045.242       28.847        7.226      657.610      135.031        0.042      337.256        9.104      857.845
03/27/2014  17:12:00     -373.788     -256.553       -0.684      193.063      174.064       87.781    37273.306    30298.127     7705.484       14.039        3.764      453.362       85.995        0.036      337.408        9.359      857.873
03/27/2014  17:13:00     -391.549     -276.715       -2.975      174.860      203.518       92.142    30575.968    41419.704     8490.146       15.517        4.024      479.460       92.367        0.037      337.393        9.334      857.901
03/27/2014  17:14:00     -447.461     -254.230       -4.342      228.051      205.133       89.481    52007.090    42079.590     8006.869       18.347        5.105      514.640       97.107        0.036      337.370        9.295      857.893
03/27/2014  17:15:00     -428.575     -171.071      -19.117      258.187      183.804       96.660    66660.377    33784.033     9343.183       16.153        5.489      461.456      114.650        0.062      337.556        9.606      857.905
03/27/2014  17:16:00     -503.470     -135.283       -2.123      230.037      202.212      109.636    52916.962    40889.566    12020.055       18.879        5.291      521.328      114.283        0.048      337.513        9.535      857.926
03/27/2014  17:17:00     -430.567     -125.164        7.758      260.809      205.432      110.868    68021.326    42202.274    12291.664       16.179        6.126      448.390      125.452        0.078      337.576        9.640      857.936
03/27/2014  17:18:00     -332.559      -82.449       23.915      273.882      205.994       99.055    75011.376    42433.420     9811.949       12.259        6.363      342.627      112.024        0.107      337.716        9.875      857.956
03/27/2014  17:19:00     -488.713     -215.028       -3.053      283.051      264.542      129.486    80117.614    69982.723    16766.693       22.595        8.343      533.927      150.954        0.080      337.422        9.383      857.979
03/27/2014  17:20:00     -486.034     -238.927      -22.158      243.097      182.777       97.587    59096.064    33407.388     9523.317       19.790        5.101      541.586       94.448        0.030      337.426        9.388      857.990
03/27/2014  17:21:00     -305.276     -206.224        2.773      200.976      152.613       86.834    40391.536    23290.869     7540.095       10.346        3.561      368.404       90.510        0.060      337.388        9.324      857.987
03/27/2014  17:22:00     -386.283     -292.310       -5.340      210.607      185.322      108.855    44355.494    34344.241    11849.464       16.260        4.527      484.416      121.170        0.063      337.470        9.463      857.981
03/27/2014  17:23:00     -290.444     -180.922        2.506      270.053      157.171      102.695    72928.361    24702.652    10546.338       11.262        5.409      342.185      140.151        0.168      337.652        9.767      857.994
03/27/2014  17:24:00     -298.593     -134.497        0.005      168.277      145.385       76.571    28317.298    21136.712     5863.045        8.127        2.766      327.486       84.564        0.067      337.666        9.792      857.988
03/27/2014  17:25:00     -365.439     -175.035       -8.135      249.655      176.987       94.604    62327.512    31324.333     8949.946       13.341        5.130      405.195      110.928        0.075      337.612        9.701      857.961
03/27/2014  17:26:00     -428.489     -117.239       -2.850      328.393      267.562      119.542   107841.994    71589.665    14290.215       19.551        9.686      444.239      160.576        0.131      337.472        9.466      857.947
03/27/2014  17:27:00     -541.880     -416.542      -31.183      243.360      219.183      109.878    59223.898    48041.218    12073.210       29.371        5.967      683.477      101.078        0.022      337.155        8.935      857.941
03/27/2014  17:28:00     -463.201     -263.471       -1.797      288.926      204.592      115.719    83478.175    41857.883    13390.966       21.133        6.936      532.890      144.990        0.074      337.308        9.192      857.950
03/27/2014  17:29:00     -368.538     -272.344        2.392      281.877      202.680      113.405    79454.612    41078.991    12860.716       17.167        6.670      458.248      137.834        0.090      337.408        9.357      857.994
03/27/2014  17:30:00     -574.433     -229.219      -34.988      248.109      200.692      114.226    61557.896    40277.263    13047.649       24.929        5.744      618.478      121.063        0.038      337.400        9.346      857.992
03/27/2014  17:31:00     -532.771     -244.698      -14.639      278.660      212.793      115.823    77651.672    45281.023    13414.946       24.012        6.817      586.278      133.565        0.052      337.347        9.258      857.982
03/27/2014  17:32:00     -514.817     -371.875      -34.393      232.376      198.731      110.763    53998.531    39494.193    12268.364       25.512        5.288      635.081      107.481        0.029      337.313        9.200      857.984
03/27/2014  17:33:00     -373.162     -178.925        3.548      244.784      178.336      106.653    59919.211    31803.593    11374.915       13.717        5.155      413.841      111.193        0.072      337.358        9.275      858.011
03/27/2014  17:34:00     -447.091     -148.517       13.564      336.842      276.460      146.079   113462.475    76429.873    21339.094       21.665       10.562      471.113      151.708        0.104      337.359        9.277      858.000
03/27/2014  17:35:00     -473.917     -228.462       -9.661      377.328      286.131      151.128   142376.060    81870.759    22839.744       26.194       12.354      526.111      198.150        0.142      337.232        9.065      857.992
03/27/2014  17:36:00     -589.963     -269.150      -15.405      258.007      226.318      112.743    66567.732    51220.000    12710.974       27.560        6.525      648.458      119.562        0.034      337.206        9.021      858.006
03/27/2014  17:37:00     -454.870     -316.108       -4.608      312.049      261.107      133.620    97374.370    68176.749    17854.395       24.510        9.170      553.923      154.619        0.078      337.196        9.003      858.034
03/27/2014  17:38:00     -439.141     -293.017        8.552      378.724      238.700      148.243   143432.158    56977.690    21976.079       25.054       11.119      527.925      175.857        0.111      337.107        8.854      857.990
03/27/2014  17:39:00     -550.765     -235.917      -17.632      274.952      236.386      114.875    75598.527    55878.513    13196.316       25.197        7.234      599.165      132.632        0.049      337.118        8.872      858.080
03/27/2014  17:40:00     -397.570     -138.389      -11.859      241.147      201.862      103.986    58151.775    40748.226    10813.150       14.352        5.486      420.967      100.152        0.057      337.132        8.897      858.097
03/27/2014  17:41:00     -400.016     -176.260       -1.479      298.428      251.534      135.167    89059.088    63269.471    18270.084       18.081        8.530      437.128      171.934        0.155      337.203        9.015      858.112
03/27/2014  17:42:00     -441.226     -201.798        0.216      292.363      221.835      105.150    85476.163    49210.925    11056.437       19.055        7.287      485.184      124.664        0.066      337.232        9.064      858.147
03/27/2014  17:43:00     -456.617     -227.446      -15.982      264.087      238.237      117.216    69742.111    56756.947    13739.602       20.034        7.012      510.128      138.299        0.073      337.153        8.931      858.142
03/27/2014  17:44:00     -380.268     -155.691       -2.633      203.445      148.905       85.296    41389.753    22172.659     7275.466       11.983        3.542      410.906       94.914        0.053      337.190        8.993      858.184
03/27/2014  17:45:00     -313.999     -182.233        8.025      189.168      152.168       98.624    35784.479    23155.126     9726.670       10.026        3.433      363.048      100.050        0.076      337.227        9.054      858.197
03/27/2014  17:46:00     -453.372     -249.847      -17.564      215.194      184.239       94.711    46308.612    33943.993     8970.140       17.874        4.461      517.657       96.211        0.035      337.170        8.962      858.177
03/27/2014  17:47:00     -373.527     -214.033      -15.205      211.928      185.140      103.126    44913.422    34276.672    10634.995       13.768        4.491      430.503      101.309        0.055      337.293        9.166      858.192
03/27/2014  17:48:00     -240.117     -134.328       12.693      185.620      149.276       72.705    34454.619    22283.283     5286.057        6.893        3.101      275.136       88.946        0.105      337.452        9.432      858.233
03/27/2014  17:49:00     -397.229     -316.252      -16.393      243.204      214.244      108.250    59148.348    45900.399    11717.987       18.740        5.838      507.746      124.588        0.060      337.240        9.077      858.200
03/27/2014  17:50:00     -421.493     -139.874      -28.318      203.614      245.313       95.338    41458.750    60178.501     9089.429       15.436        5.536      444.096      101.380        0.052      337.348        9.258      858.221
03/27/2014  17:51:00     -581.683     -107.341      -22.534      207.641      236.660      104.618    43114.628    56007.823    10944.927       23.021        5.503      591.504       91.033        0.024      337.258        9.108      858.220
03/27/2014  17:52:00     -400.517      -75.317       -1.402      244.204      137.883       82.289    59635.370    19011.589     6771.548       12.574        4.271      407.537       96.304        0.056      337.311        9.198      858.241
03/27/2014  17:53:00     -275.001     -106.392        8.029      297.390      191.989      115.539    88440.695    36859.666    13349.280       11.281        6.932      294.864      156.938        0.283      337.284        9.153      858.255
03/27/2014  17:54:00     -350.625     -197.241       -2.328      214.397      219.598       86.914    45966.281    48223.155     7554.049       13.178        5.087      402.296      107.011        0.071      337.171        8.962      858.263
03/27/2014  17:55:00     -297.226      -39.358       15.984      214.362      151.188       76.987    45951.277    22857.762     5926.928        8.243        3.737      299.820       79.225        0.070      337.297        9.173      858.261
03/27/2014  17:56:00     -519.435      -65.859       -3.669      215.324      191.316      103.494    46364.370    36601.953    10711.103       18.390        4.684      523.593      105.831        0.041      337.156        8.936      858.300
03/27/2014  17:57:00     -505.938     -195.094      -14.264      246.148      215.386      111.470    60588.758    46391.235    12425.623       20.680        5.970      542.250      129.053        0.057      337.084        8.816      858.319
03/27/2014  17:58:00     -647.924     -244.735      -36.483      265.616      234.694      111.819    70552.055    55081.115    12503.440       30.956        6.907      692.605      130.393        0.035      336.982        8.646      858.329
03/27/2014  17:59:00     -555.354     -193.820       -6.016      308.462      207.226      116.674    95148.755    42942.742    13612.926       24.884        7.585      588.204      130.070        0.049      337.021        8.710      858.347
03/27/2014  18:00:00     -379.096     -200.972      -22.068      188.159      148.521       95.712    35403.667    22058.364     9160.769       12.560        3.331      429.072       96.499        0.051      337.108        8.857      858.398
03/27/2014  18:01:00     -511.786     -198.077      -22.626      217.868      216.211       87.090    47466.314    46746.993     7584.624       20.172        5.090      548.780      107.424        0.038      337.020        8.707      858.394
03/27/2014  18:02:00     -309.473     -236.790       -1.702      261.810      158.866      112.069    68544.561    25238.545    12559.474       12.908        5.317      389.671      120.544        0.096      337.077        8.805      858.400
03/27/2014  18:03:00     -351.592     -217.913       -3.692      190.666      156.881       87.799    36353.354    24611.494     7708.616       11.988        3.434      413.646       78.356        0.036      337.068        8.789      858.401
03/27/2014  18:04:00     -475.547     -210.717      -19.676      217.239      208.248       99.611    47192.845    43367.273     9922.266       18.569        5.024      520.141      117.624        0.051      336.948        8.588      858.397
03/27/2014  18:05:00     -515.412     -109.745      -25.241      238.389      191.868       98.089    56829.106    36813.154     9621.533       19.078        5.163      526.966       92.224        0.031      336.952        8.594      858.412
03/27/2014  18:06:00     -348.644     -240.071        8.934      309.562      227.276      127.480    95828.939    51654.168    16251.096       17.147        8.187      423.305      162.118        0.147      337.011        8.694      858.429
03/27/2014  18:07:00     -237.055     -147.159       18.827      225.097      183.849       99.376    50668.823    33800.570     9875.666        8.626        4.717      279.018      121.428        0.189      337.052        8.762      858.433
03/27/2014  18:08:00     -473.822     -253.706      -21.240      324.261      209.102      107.950   105145.400    43723.591    11653.219       22.490        8.026      537.470      132.521        0.061      336.918        8.539      858.428
03/27/2014  18:09:00     -363.862     -146.348      -11.257      294.532      170.695       81.480    86749.286    29136.889     6638.953       13.821        6.126      392.190      104.383        0.071      337.042        8.747      858.456
03/27/2014  18:10:00     -594.888     -189.330      -66.996      232.217      191.181      107.131    53924.963    36550.215    11477.101       24.807        5.098      624.290      108.890        0.030      336.898        8.505      858.445
03/27/2014  18:11:00     -486.444     -184.045      -30.596      295.851      166.948      104.506    87527.537    27871.655    10921.489       19.886        6.316      520.097      134.388        0.067      336.931        8.558      858.449
03/27/2014  18:12:00     -226.496     -167.850       22.864      193.646      151.325       87.172    37498.796    22899.178     7599.004        7.399        3.400      281.911      102.705        0.133      336.989        8.657      858.468
03/27/2014  18:13:00     -456.446     -146.220      -29.764      180.222      219.792       87.342    32479.969    48308.346     7628.696       15.950        4.421      479.294       86.124        0.032      336.914        8.532      858.495
03/27/2014  18:14:00     -257.421      -44.194      -11.665      193.897      123.912       73.127    37595.982    15354.109     5347.597        6.332        2.915      261.187       90.954        0.121      337.028        8.722      858.494
03/27/2014  18:15:00     -262.416      -80.307       -9.346      210.645      122.447       63.569    44371.171    14993.244     4040.970        6.939        3.170      274.429       66.242        0.058      337.033        8.731      858.521
03/27/2014  18:16:00     -717.885     -166.943      -32.039      322.213      221.012      107.820   103821.217    48846.327    11625.208       35.425        8.215      737.041      122.635        0.028      336.732        8.228      858.474
03/27/2014  18:17:00     -452.618     -152.708      -12.545      266.615      187.297      105.208    71083.712    35080.194    11068.685       17.277        5.862      477.685      134.485        0.079      336.792        8.328      858.498
03/27/2014  18:18:00     -426.073     -189.031      -15.290      194.851      158.864       92.794    37966.878    25237.654     8610.655       14.465        3.591      466.123       83.688        0.032      336.766        8.284      858.539
03/27/2014  18:19:00     -372.295      -33.062        3.229      278.236      166.815      100.647    77415.487    27827.228    10129.880       12.752        5.769      373.760      122.718        0.108      336.785        8.317      858.552
03/27/2014  18:20:00     -531.600     -124.789      -16.654      283.964      168.638      101.074    80635.716    28438.661    10215.989       20.885        5.965      546.050      126.689        0.054      336.668        8.123      858.522
03/27/2014  18:21:00     -472.529      -71.070        0.333      257.291      176.907      100.622    66198.675    31296.130    10124.756       16.796        5.381      477.844      113.030        0.056      336.712        8.195      858.553
03/27/2014  18:22:00     -351.077     -175.453        4.652      194.832      197.278       91.627    37959.437    38918.537     8395.433       11.965        4.264      392.477       84.717        0.047      336.697        8.171      858.541
03/27/2014  18:23:00     -302.647     -205.640      -33.130      205.837      153.112       88.300    42368.694    23443.251     7796.963       10.428        3.680      365.900       77.252        0.045      336.700        8.175      858.541
03/27/2014  18:24:00     -276.552     -120.986        1.231      183.201      174.722       81.552    33562.557    30527.704     6650.766        8.092        3.537      301.858       84.685        0.079      336.756        8.267      858.559
03/27/2014  18:25:00     -382.914     -146.204        7.834      234.369      171.592       98.461    54928.767    29443.730     9694.654       13.105        4.703      409.876      107.206        0.068      336.739        8.240      858.537
03/27/2014  18:26:00     -470.106     -178.711       -7.532      229.097      193.702       90.410    52485.220    37520.280     8173.917       17.557        4.909      502.929      110.151        0.048      336.693        8.162      858.555
03/27/2014  18:27:00     -334.302     -157.387      -12.622      192.393      168.975       93.378    37015.243    28552.549     8719.393       10.547        3.714      369.497      106.958        0.084      336.693        8.164      858.642
03/27/2014  18:28:00     -232.590      -61.117        3.920      145.973      176.515       75.645    21308.184    31157.536     5722.135        5.801        2.909      240.486       71.206        0.088      336.699        8.175      858.657
03/27/2014  18:29:00     -312.301     -116.946       -3.434      257.069      169.413      104.680    66084.558    28700.886    10957.843       10.846        5.287      333.479      137.669        0.170      336.687        8.153      858.628
03/27/2014  18:30:00     -578.830      -98.449      -26.303      241.303      181.433       98.555    58227.029    32917.967     9713.160       22.313        5.043      587.143      110.639        0.036      336.610        8.024      858.638
03/27/2014  18:31:00     -413.940     -126.602       -9.882      264.410      205.427      109.150    69912.582    42200.250    11913.714       15.573        6.201      432.868      135.732        0.098      336.603        8.013      858.690
03/27/2014  18:32:00     -453.863     -225.417      -13.416      268.292      162.638      101.630    71980.389    26451.023    10328.654       18.285        5.438      506.759      117.949        0.054      336.570        7.958      858.732
03/27/2014  18:33:00     -302.323     -176.041       -0.256      239.349      231.551      104.540    57288.069    53615.678    10928.712       12.209        6.092      349.842       92.669        0.070      336.567        7.952      858.760
03/27/2014  18:34:00     -286.500      -64.626       -5.277      177.452      128.237       74.140    31489.050    16444.629     5496.682        6.985        2.672      293.698       87.356        0.088      336.624        8.048      858.791
03/27/2014  18:35:00     -538.059      -64.779      -44.261      251.241      162.091       90.613    63122.106    26273.547     8210.714       19.662        4.880      541.944      102.282        0.036      336.519        7.873      858.784
03/27/2014  18:36:00     -530.958     -119.889      -30.951      275.022      236.126      100.813    75637.361    55755.480    10163.306       21.938        7.078      544.325      113.477        0.043      336.508        7.853      858.769
03/27/2014  18:37:00     -620.167        2.837      -21.343      390.931      217.424      117.174   152827.089    47273.270    13729.705       29.941       10.692      620.173      155.334        0.063      336.493        7.828      858.774
03/27/2014  18:38:00     -318.496      -34.735       -7.567      198.284      172.889       92.379    39316.573    29890.500     8533.864        9.021        3.887      320.385       97.060        0.092      336.562        7.944      858.809
03/27/2014  18:39:00     -441.959     -148.264       -6.690      273.313      207.067      104.874    74700.216    42876.780    10998.536       17.294        6.429      466.165      109.330        0.055      336.527        7.886      858.824
03/27/2014  18:40:00     -486.402     -217.645       -7.419      292.663      260.237      126.357    85651.622    67723.238    15966.044       22.665        8.467      532.875      142.612        0.072      336.495        7.833      858.815
03/27/2014  18:41:00     -505.418     -107.179      -16.874      247.096      170.927      107.121    61056.536    29215.917    11474.803       18.447        5.087      516.658      107.683        0.043      336.492        7.825      858.862
03/27/2014  18:42:00     -408.156       -6.519        8.340      198.850      154.507       99.103    39541.325    23872.554     9821.370       11.996        3.662      408.208      100.940        0.061      336.501        7.841      858.915
03/27/2014  18:43:00     -264.607     -150.856       26.742      249.356      230.448      108.151    62178.278    53106.453    11696.557       11.021        6.349      304.589      110.694        0.132      336.499        7.838      858.948
03/27/2014  18:44:00     -394.219     -256.185       -9.714      228.630      166.861      108.938    52271.875    27842.598    11867.536       15.654        4.599      470.148      121.737        0.067      336.470        7.789      858.968
03/27/2014  18:45:00     -318.838      -85.130      -14.720      229.655      199.294       93.222    52741.583    39718.016     8690.414       10.512        5.058      330.007       90.594        0.075      336.490        7.823      859.027
03/27/2014  18:46:00     -319.717     -223.318        8.633      220.942      181.111      102.301    48815.373    32801.235    10465.582       12.211        4.604      389.987      120.017        0.095      336.466        7.783      859.054
03/27/2014  18:47:00     -218.184     -169.796       14.294      229.567      151.695       97.606    52700.978    23011.456     9526.867        8.093        4.262      276.469      120.846        0.191      336.449        7.754      859.069
03/27/2014  18:48:00     -460.898        0.403      -16.686      209.902      167.358       85.278    44058.687    28008.635     7272.366       14.601        3.967      460.898       91.057        0.039      336.463        7.778      859.109
03/27/2014  18:49:00     -620.938     -144.508      -30.986      196.689      185.813      103.463    38686.468    34526.347    10704.497       24.565        4.196      637.532      101.060        0.025      336.375        7.630      859.099
03/27/2014  18:50:00     -302.240     -172.559        8.186      198.057      147.312       91.750    39226.396    21700.853     8418.023        9.526        3.467      348.031      100.912        0.084      336.371        7.625      859.101
03/27/2014  18:51:00     -405.512      -94.667       -4.167      219.363      213.084       83.472    48120.075    45404.745     6967.564       13.694        5.025      416.416       98.676        0.056      336.430        7.721      859.132
03/27/2014  18:52:00     -410.089     -328.631       -9.456      253.241      203.145      110.042    64131.055    41267.770    12109.158       19.686        5.875      525.520      117.195        0.050      336.385        7.648      859.134
03/27/2014  18:53:00     -286.966      -68.973        7.946      283.228      188.956      103.459    80217.935    35704.504    10703.841       10.688        6.331      295.138      128.185        0.189      336.379        7.637      859.103
03/27/2014  18:54:00     -348.388      -81.323       12.543      333.359      195.938      113.995   111128.471    38391.741    12994.789       14.530        8.126      357.754      145.685        0.166      336.351        7.591      859.079
03/27/2014  18:55:00     -353.393      -94.600      -10.174      253.346      160.154       95.522    64184.008    25649.304     9124.370       11.643        4.948      365.836      121.690        0.111      336.370        7.624      859.106
03/27/2014  18:56:00     -277.467     -122.682       16.054      216.194      150.377       89.280    46739.753    22613.257     7970.931        8.480        3.866      303.379      111.772        0.136      336.374        7.631      859.133
03/27/2014  18:57:00     -393.652     -132.039       -9.913      228.801      185.434       92.478    52350.022    34385.855     8552.219       13.388        4.764      415.206      102.415        0.061      336.353        7.592      859.147
03/27/2014  18:58:00     -466.661     -190.657      -18.374      236.802      160.143       90.722    56075.201    25645.776     8230.416       17.219        4.498      504.105      107.822        0.046      336.324        7.546      859.180
03/27/2014  18:59:00     -546.406     -154.459      -19.494      303.394      186.849      101.231    92048.021    34912.573    10247.633       22.998        6.860      567.818      116.962        0.042      336.308        7.519      859.203
03/27/2014  19:00:00     -209.512     -177.554        9.466      232.943      171.058      117.741    54262.451    29260.977    13862.833        8.643        4.869      274.628      132.368        0.232      336.298        7.503      859.185
03/27/2014  19:01:00     -296.667     -119.565       -9.973      183.353      135.928       90.414    33618.285    18476.295     8174.609        8.133        3.013      319.855      102.496        0.103      336.288        7.486      859.195
03/27/2014  19:02:00     -214.534     -100.728       30.171      264.581      225.154       99.061    70002.892    50694.398     9813.157        9.377        6.526      237.004      110.923        0.219      336.317        7.533      859.190
03/27/2014  19:03:00     -373.087     -271.604      -10.461      157.048      150.047       92.896    24663.940    22514.241     8629.615       13.443        2.790      461.479       76.014        0.027      336.281        7.474      859.210
03/27/2014  19:04:00     -333.660     -229.720       -1.326      193.104      215.236       86.625    37289.199    46326.639     7503.860       12.760        4.556      405.093       95.312        0.055      336.312        7.526      859.215
03/27/2014  19:05:00     -233.807      -85.205        7.669      166.065      150.546       89.938    27577.585    22664.180     8088.789        6.015        2.917      248.848       82.755        0.111      336.323        7.543      859.221
03/27/2014  19:06:00     -418.478     -242.704       14.607      252.162      252.087      125.816    63585.643    63548.032    15829.683       18.858        7.148      483.765      131.526        0.074      336.256        7.430      859.235
03/27/2014  19:07:00     -457.670     -305.887       14.979      258.192      222.351      116.544    66663.085    49440.164    13582.422       21.645        6.484      550.481      123.046        0.050      336.226        7.382      859.187
03/27/2014  19:08:00     -433.124     -155.782      -10.132      232.880      242.781      102.929    54233.169    58942.450    10594.293       16.785        6.188      460.287      116.823        0.064      336.243        7.410      859.205
03/27/2014  19:09:00     -333.103     -182.679        8.642      195.878      121.689       94.454    38368.129    14808.285     8921.514       10.324        3.105      379.907       96.332        0.064      336.241        7.405      859.225
03/27/2014  19:10:00     -423.519     -191.300       -5.646      223.827      140.335      102.475    50098.412    19693.975    10501.227       14.813        4.015      464.720      110.405        0.056      336.262        7.442      859.252
03/27/2014  19:11:00     -551.119     -139.260      -36.923      208.541      200.272      102.331    43489.327    40108.795    10471.675       20.926        4.703      568.441       95.253        0.028      336.259        7.436      859.250
03/27/2014  19:12:00     -281.704      -65.491        6.212      186.421      149.761       74.278    34752.956    22428.391     5517.222        7.318        3.135      289.216       86.058        0.089      336.360        7.606      859.298
03/27/2014  19:13:00     -235.569      -99.322      -12.690      221.609      164.855       93.523    49110.452    27177.279     8746.619        7.526        4.252      255.652      111.326        0.190      336.265        7.447      859.354
03/27/2014  19:14:00     -193.996      -92.355      -12.373      155.286      103.690       78.513    24113.727    10751.604     6164.360        4.367        2.051      214.858       87.478        0.166      336.332        7.559      859.385
03/27/2014  19:15:00     -346.291       24.911      -30.912      134.302      123.829       59.170    18036.895    15333.728     3501.121        7.918        1.844      347.186       57.629        0.028      336.295        7.497      859.441
03/27/2014  19:16:00     -377.960      -98.534      -11.711      182.462      132.947       76.444    33292.233    17674.817     5843.700       10.475        2.841      390.593       79.562        0.041      336.260        7.439      859.450
03/27/2014  19:17:00     -359.082      -88.214      -26.605      166.877       89.338       65.810    27847.965     7981.257     4330.971        8.879        2.008      369.758       73.517        0.040      336.244        7.412      859.465
03/27/2014  19:18:00     -411.327      -68.905       -8.291      147.823      118.588       66.873    21851.618    14063.107     4471.936       10.719        2.019      417.058       74.624        0.032      336.197        7.334      859.495
03/27/2014  19:19:00     -140.087       46.229        3.852       91.010       77.012       51.801     8282.813     5930.848     2683.374        1.933        0.845      147.518       40.187        0.074      336.262        7.443      859.496
03/27/2014  19:20:00     -165.260      -69.306        2.584      164.177       88.788       50.930    26954.228     7883.230     2593.834        3.477        1.872      179.204       45.368        0.064      336.268        7.453      859.488
03/27/2014  19:21:00     -254.166     -133.693       -9.132      205.299      155.832       71.872    42147.754    24283.646     5165.654        7.707        3.580      287.183       88.770        0.096      336.144        7.246      859.495
03/27/2014  19:22:00     -282.329     -162.440      -15.293      246.896      148.173       86.222    60957.745    21955.163     7434.285        9.832        4.517      325.725       62.477        0.037      336.145        7.247      859.482
03/27/2014  19:23:00     -227.577      -50.799        9.159      235.464      140.300       79.914    55443.233    19684.194     6386.316        6.797        4.076      233.178      100.461        0.186      336.175        7.298      859.492
03/27/2014  19:24:00     -446.565      -92.108      -20.049      209.371      130.610       79.774    43836.371    17059.014     6363.934       13.777        3.363      455.965       87.613        0.037      336.131        7.222      859.512
03/27/2014  19:25:00     -477.137     -160.636      -20.253      205.943      170.986       94.218    42412.495    29236.207     8876.942       16.719        4.026      503.452      102.238        0.041      336.129        7.220      859.504
03/27/2014  19:26:00     -234.767     -152.530       15.058      160.451      175.344       73.403    25744.546    30745.352     5388.068        7.023        3.094      279.966       78.509        0.079      336.183        7.310      859.509
03/27/2014  19:27:00     -330.841      -44.513       -4.285      213.152      146.176       83.970    45433.944    21367.302     7050.941        9.264        3.693      333.822       95.632        0.082      336.192        7.326      859.510
03/27/2014  19:28:00     -416.672      -95.243      -18.174      155.035      143.560       76.001    24035.847    20609.429     5776.219       11.671        2.521      427.418       79.395        0.035      336.165        7.280      859.522
03/27/2014  19:29:00     -430.487     -104.094      -16.361      228.616      167.342       97.083    52265.123    28003.389     9425.073       14.304        4.485      442.893      112.311        0.064      336.131        7.224      859.508
03/27/2014  19:30:00     -256.952      -87.622        1.991      207.380      143.782       84.574    43006.557    20673.386     7152.708        7.226        3.542      271.481       97.438        0.129      336.129        7.220      859.501
03/27/2014  19:31:00     -361.561      -95.875      -16.244      209.092      140.184       78.549    43719.365    19651.581     6169.916       10.485        3.477      374.057      100.935        0.073      336.153        7.262      859.466
03/27/2014  19:32:00     -318.847        0.089      -25.830      160.022      107.862       67.029    25607.060    11634.201     4492.875        7.203        2.087      318.847       76.725        0.058      336.159        7.270      859.447
03/27/2014  19:33:00     -367.499      -49.033      -28.141      151.443      135.132       63.176    22934.840    18260.585     3991.186        9.171        2.259      370.755       69.033        0.035      336.108        7.186      859.404
03/27/2014  19:34:00     -511.045     -173.618      -12.807      212.691      166.067       93.204    45237.472    27578.187     8686.966       18.647        4.075      539.731       95.101        0.031      336.076        7.132      859.396
03/27/2014  19:35:00     -292.986      -58.907        7.656      162.642      134.506       73.455    26452.528    18091.906     5395.626        6.965        2.497      298.849       82.667        0.077      336.143        7.244      859.445
03/27/2014  19:36:00     -498.834      -86.524      -23.187      214.846      191.946       96.315    46158.964    36843.102     9276.502       17.455        4.614      506.282      101.433        0.040      336.069        7.122      859.433
03/27/2014  19:37:00     -436.770      -23.754      -14.092      206.503      145.681       73.390    42643.624    21222.885     5386.109       13.038        3.463      437.415       81.942        0.035      336.069        7.120      859.456
03/27/2014  19:38:00     -263.158      -63.890       10.537      168.919      151.725       95.600    28533.665    23020.396     9139.312        6.706        3.035      270.803       92.811        0.117      336.120        7.206      859.433
03/27/2014  19:39:00     -237.908      -46.039       13.439      182.501      130.190       77.171    33306.464    16949.506     5955.372        5.755        2.811      242.322       79.290        0.107      336.124        7.213      859.430
03/27/2014  19:40:00     -287.873     -115.659       10.488      166.243      132.277       78.401    27636.586    17497.110     6146.793        7.381        2.564      310.238       78.197        0.064      336.071        7.125      859.446
03/27/2014  19:41:00     -247.158      -39.184       -8.006      157.838      129.091       68.501    24912.911    16664.512     4692.378        5.447        2.313      250.244       66.302        0.070      336.175        7.296      859.457
03/27/2014  19:42:00     -430.877      -60.883       -2.057      232.105      142.713       89.366    53872.622    20366.981     7986.293       13.578        4.111      435.157       94.454        0.047      336.040        7.071      859.464
03/27/2014  19:43:00     -305.865     -137.803        5.741      170.293      171.903       82.564    28999.626    29550.770     6816.847        8.896        3.268      335.475       90.483        0.073      336.023        7.043      859.494
03/27/2014  19:44:00     -419.847      -76.263      -15.409      203.127      152.765       83.529    41260.678    23337.123     6977.104       12.694        3.579      426.717       81.362        0.036      336.027        7.051      859.494
03/27/2014  19:45:00     -236.680     -110.597      -15.075      174.082      141.841       81.779    30304.378    20118.863     6687.886        6.278        2.856      261.245       89.584        0.118      336.035        7.065      859.517
03/27/2014  19:46:00     -273.842        1.492       -9.888      173.565      151.956       69.734    30124.939    23090.759     4862.865        6.657        2.904      273.846       49.319        0.032      336.070        7.123      859.517
03/27/2014  19:47:00     -330.680      -37.867       -4.015      200.596      129.998       81.482    40238.634    16899.387     6639.393        8.728        3.189      332.841      102.307        0.094      336.043        7.077      859.497
03/27/2014  19:48:00     -204.616      -79.202       12.168      182.087      119.302       66.557    33155.689    14232.891     4429.840        5.004        2.591      219.410       76.344        0.121      336.088        7.154      859.498
03/27/2014  19:49:00     -294.927     -182.994       -8.120      200.657      174.891       93.531    40263.332    30587.017     8747.975       10.005        3.980      347.086      106.117        0.093      336.088        7.152      859.478
03/27/2014  19:50:00     -232.550     -120.103      -12.362      142.314      174.125       88.503    20253.252    30319.471     7832.733        6.352        2.920      261.733       54.816        0.044      336.064        7.111      859.439
03/27/2014  19:51:00     -266.064      -99.883        0.496      152.733      140.016       81.249    23327.249    19604.530     6601.416        6.514        2.477      284.195       75.586        0.071      336.044        7.079      859.407
03/27/2014  19:52:00     -300.067     -157.090       -6.832      201.413      136.985       82.309    40567.064    18764.970     6774.851        9.042        3.305      338.699       80.231        0.056      336.033        7.060      859.373
03/27/2014  19:53:00     -325.873     -127.599       -0.013      189.857      143.400       81.599    36045.776    20563.441     6658.470        9.286        3.163      349.964      104.449        0.089      336.024        7.046      859.375
03/27/2014  19:54:00     -485.197     -120.029      -18.388      206.572      237.549       85.810    42671.947    56429.311     7363.273       17.830        5.323      499.823       93.909        0.035      335.963        6.944      859.370
03/27/2014  19:55:00     -335.728     -129.939       -7.301      223.799      138.632       86.233    50085.894    19218.888     7436.061       10.318        3.837      359.997      107.328        0.089      336.044        7.077      859.353
03/27/2014  19:56:00     -328.130      -29.114      -16.938      147.007      103.493       59.741    21610.965    10710.756     3568.997        7.234        1.795      329.419       60.823        0.034      336.038        7.070      859.354
03/27/2014  19:57:00     -227.557     -115.219      -13.418      183.091       80.784       66.703    33522.453     6526.078     4449.303        5.486        2.225      255.064       73.885        0.084      336.046        7.082      859.366
03/27/2014  19:58:00     -236.919     -159.066        1.264      142.284      125.221       60.945    20244.810    15680.222     3714.306        6.053        1.982      285.364       64.060        0.050      336.072        7.124      859.349
03/27/2014  19:59:00     -297.725     -179.434      -12.990      130.998      110.624       68.904    17160.422    12237.745     4747.704        7.757        1.707      347.616       64.106        0.034      336.078        7.135      859.318
03/27/2014  20:00:00     -216.018     -116.372        1.753      128.026       98.943       74.251    16390.553     9789.664     5513.149        4.595        1.585      245.369       67.266        0.075      336.062        7.108      859.297
03/27/2014  20:01:00     -422.670      -85.320       -9.736      195.021      128.109       82.793    38033.331    16411.866     6854.683       12.365        3.065      431.196       98.685        0.052      336.009        7.021      859.291
03/27/2014  20:02:00     -319.439      -54.200       -6.728      148.168      122.218       52.376    21953.749    14937.173     2743.244        7.232        1.982      324.004       59.214        0.033      336.036        7.065      859.310
03/27/2014  20:03:00     -169.410     -104.845        4.849      114.985      109.378       73.494    13221.575    11963.580     5401.320        3.515        1.529      199.229       67.069        0.113      336.053        7.094      859.299
03/27/2014  20:04:00     -337.385     -148.160       -6.779      167.503      132.317       71.470    28057.189    17507.864     5107.939        9.324        2.534      368.484       74.563        0.041      336.023        7.042      859.274
03/27/2014  20:05:00     -271.261      -43.223       11.004      166.810      150.420      103.324    27825.426    22626.062    10675.804        6.834        3.056      274.683       87.363        0.101      336.020        7.038      859.299
03/27/2014  20:06:00     -320.593      -48.885      -11.797      244.524      170.620      100.818    59791.825    29111.308    10164.220       10.217        4.953      324.298      129.593        0.160      335.996        6.999      859.322
03/27/2014  20:07:00     -363.970     -108.108      -21.412      179.620      150.126       92.477    32263.231    22537.925     8551.921       10.398        3.168      379.686      104.689        0.076      336.011        7.023      859.315
03/27/2014  20:08:00     -325.186      -97.321      -15.706      173.080      102.957       63.187    29956.551    10600.085     3992.626        8.000        2.227      339.437       67.672        0.040      336.003        7.011      859.359
03/27/2014  20:09:00     -361.441     -138.415      -27.210      208.206      124.102       79.305    43349.554    15401.226     6289.259       10.778        3.252      387.038       94.170        0.059      335.994        6.996      859.379
03/27/2014  20:10:00     -375.958      -95.403      -25.406      200.977      188.684       88.152    40391.762    35601.652     7770.850       11.741        4.188      387.874       93.225        0.058      335.982        6.975      859.410
03/27/2014  20:11:00     -298.519     -117.360      -15.460      164.536      116.582       78.857    27072.240    13591.337     6218.497        7.500        2.344      320.760       88.445        0.076      336.000        7.005      859.434
03/27/2014  20:12:00     -383.645        5.239      -14.917      195.868      128.937       77.547    38364.155    16624.775     6013.496       10.421        3.050      383.681       95.174        0.062      335.961        6.939      859.454
03/27/2014  20:13:00     -373.806      -63.712      -20.050      141.782      152.520       71.666    20102.165    23262.465     5135.947        9.634        2.425      379.197       74.110        0.038      335.944        6.912      859.492
03/27/2014  20:14:00     -354.861     -100.642      -10.320      186.877      118.717       71.969    34923.021    14093.712     5179.562        9.517        2.710      368.857       80.552        0.048      335.943        6.909      859.515
03/27/2014  20:15:00     -342.677      -36.492      -14.182      139.936       99.234       63.720    19582.212     9847.388     4060.296        7.622        1.674      344.614       70.394        0.042      335.943        6.909      859.537
03/27/2014  20:16:00     -433.654     -115.878      -28.636      153.240      153.597       81.724    23482.388    23592.124     6678.846       12.802        2.688      448.869       82.719        0.034      335.952        6.927      859.578
03/27/2014  20:17:00     -307.505      -22.733      -13.315      175.299      114.118       59.775    30729.641    13022.939     3573.101        7.128        2.366      308.344       76.508        0.062      335.938        6.902      859.607
03/27/2014  20:18:00     -440.626      -25.168      -32.045      168.006      147.291       83.716    28226.169    21694.559     7008.445       12.636        2.846      441.344       78.820        0.032      335.936        6.899      859.615
03/27/2014  20:19:00     -456.531      -65.878      -45.983      125.008      102.981       67.203    15627.110    10605.046     4516.279       12.281        1.537      461.259       44.801        0.009      335.951        6.923      859.626
03/27/2014  20:20:00     -461.828      -39.205      -20.763      154.293      140.162       78.854    23806.385    19645.429     6217.992       13.245        2.483      463.489       66.348        0.020      335.952        6.927      859.647
03/27/2014  20:21:00     -382.121     -153.402      -14.049      130.995      130.244       66.241    17159.693    16963.391     4387.933       10.412        1.926      411.763       62.866        0.023      335.924        6.878      859.720
03/27/2014  20:22:00     -399.979     -105.785      -18.981      133.353      135.198       67.285    17782.895    18278.504     4527.287       10.605        2.029      413.731       66.916        0.026      335.902        6.842      859.736
03/27/2014  20:23:00     -442.854      -68.886      -41.745      166.600      134.855       65.365    27755.414    18185.794     4272.533       12.640        2.511      448.179       71.916        0.026      335.886        6.815      859.728
03/27/2014  20:24:00     -393.877      -44.954      -27.871      151.307      166.299       88.478    22893.946    27655.523     7828.391       10.815        2.919      396.434       73.068        0.034      335.877        6.799      859.732
03/27/2014  20:25:00     -385.825     -122.597      -14.163      232.391      152.885       92.721    54005.562    23373.929     8597.149       12.502        4.299      404.835      100.734        0.062      335.869        6.786      859.724
03/27/2014  20:26:00     -528.030     -125.822      -23.803      220.537      149.930       93.055    48636.679    22479.068     8659.211       18.748        3.989      542.814      102.345        0.036      335.865        6.780      859.732
03/27/2014  20:27:00     -395.077     -120.850      -12.397      201.504      187.294       91.086    40603.883    35079.013     8296.693       12.740        4.199      413.147      104.027        0.063      335.863        6.776      859.750
03/27/2014  20:28:00     -362.912     -160.411      -16.172      175.296      132.802      100.741    30728.656    17636.358    10148.735       10.810        2.926      396.783      103.813        0.068      335.870        6.790      859.741
03/27/2014  20:29:00     -387.981      -77.788      -30.612      219.594      213.645       94.857    48221.464    45643.981     8997.775       13.017        5.143      395.702      105.482        0.071      335.862        6.774      859.760
03/27/2014  20:30:00     -396.970     -147.466       -1.938      208.371      157.391       97.210    43418.431    24772.023     9449.853       12.847        3.882      423.476      106.070        0.063      335.858        6.769      859.755
03/27/2014  20:31:00     -546.915       14.632      -54.809      193.385      178.654       86.523    37397.947    31917.297     7486.145       18.955        3.840      547.111       77.813        0.020      335.846        6.749      859.799
03/27/2014  20:32:00     -473.536     -122.473      -38.158      191.604      203.352      111.710    36711.973    41351.900    12479.017       16.560        4.527      489.117      100.563        0.042      335.874        6.796      859.802
03/27/2014  20:33:00     -328.760      -28.518      -27.655      213.708      133.952       81.595    45670.904    17943.260     6657.696        8.995        3.514      329.995       92.192        0.078      335.855        6.765      859.811
03/27/2014  20:34:00     -569.119      -75.077      -21.538      262.789      180.689       86.517    69058.058    32648.496     7485.211       21.958        5.460      574.049      111.165        0.038      335.841        6.739      859.827
03/27/2014  20:35:00     -410.653     -143.775       -5.402      202.799      157.445       90.958    41127.431    24788.934     8273.319       13.175        3.709      435.095       95.341        0.048      335.823        6.712      859.824
03/27/2014  20:36:00     -576.116     -116.825      -37.661      195.111      157.879       87.900    38068.170    24925.727     7726.332       20.884        3.536      587.841       87.919        0.022      335.823        6.711      859.822
03/27/2014  20:37:00     -633.583      -55.151      -59.292      215.867      164.728       87.574    46598.770    27135.240     7669.229       24.468        4.070      635.979       91.981        0.021      335.850        6.755      859.823
03/27/2014  20:38:00     -488.344     -180.337      -10.075      212.972      175.412      102.085    45357.155    30769.413    10421.407       17.881        4.327      520.578      101.063        0.038      335.844        6.745      859.808
03/27/2014  20:39:00     -276.734      -50.382      -17.671      147.076      157.966       71.048    21631.228    24953.350     5047.814        6.552        2.582      281.283       77.734        0.076      335.826        6.716      859.810
03/27/2014  20:40:00     -446.318      -44.248      -22.194      220.802      204.089      101.597    48753.480    41652.247    10321.993       15.117        5.036      448.506      107.318        0.057      335.790        6.654      859.812
03/27/2014  20:41:00     -544.120     -104.925      -17.490      249.168      154.413       97.606    62084.555    23843.363     9527.022       20.140        4.773      554.144      103.664        0.035      335.788        6.651      859.786
03/27/2014  20:42:00     -485.578      -82.326      -20.374      154.289      136.605       70.046    23805.238    18661.037     4906.433       14.517        2.369      492.508       65.898        0.018      335.794        6.662      859.825
03/27/2014  20:43:00     -451.930      -53.259      -15.406      172.884      167.820       83.963    29889.017    28163.484     7049.702       13.620        3.255      455.058       75.766        0.028      335.803        6.678      859.806
03/27/2014  20:44:00     -386.660     -138.131      -14.824      195.574      170.579       81.670    38249.065    29097.180     6669.952       12.140        3.701      410.592       89.653        0.048      335.837        6.733      859.815
03/27/2014  20:45:00     -296.526      -99.853      -21.124      201.870      191.304       98.856    40751.453    36597.184     9772.556        9.272        4.356      312.887       87.936        0.079      335.863        6.776      859.779
03/27/2014  20:46:00     -455.247     -129.706      -27.031      270.676      174.602       95.448    73265.718    30485.887     9110.405       16.881        5.643      473.364      109.509        0.054      335.857        6.767      859.736
03/27/2014  20:47:00     -566.384     -113.585      -16.813      229.590      176.640      105.234    52711.702    31201.658    11074.236       21.447        4.749      577.662      112.998        0.038      335.836        6.733      859.696
03/27/2014  20:48:00     -439.942      -78.051      -20.722      177.999      142.581       73.807    31683.611    20329.215     5447.442       12.876        2.873      446.812       72.976        0.027      335.838        6.736      859.674
03/27/2014  20:49:00     -313.711      -63.084        1.177      173.935      142.246       79.782    30253.280    20233.925     6365.231        7.961        2.843      319.990       86.970        0.074      335.858        6.767      859.654
03/27/2014  20:50:00     -445.847     -183.151      -27.507      212.304      160.798       87.842    45073.177    25855.956     7716.266       15.585        3.932      481.999       98.385        0.042      335.852        6.759      859.690
03/27/2014  20:51:00     -272.372      -41.122       -1.554      186.207      117.181       80.922    34673.198    13731.488     6548.440        6.541        2.748      275.459       87.535        0.101      335.879        6.805      859.677
03/27/2014  20:52:00     -313.207     -123.185      -11.125      163.147      150.115       85.988    26616.965    22534.590     7393.944        8.496        2.827      336.561       61.766        0.034      335.888        6.818      859.690
03/27/2014  20:53:00     -535.091      -41.151      -17.161      242.517      186.473      112.208    58814.618    34772.012    12590.742       19.723        5.309      536.671      125.546        0.055      335.873        6.794      859.733
03/27/2014  20:54:00     -556.512     -106.985      -21.506      227.311      166.915       99.543    51670.371    27860.602     9908.800       20.551        4.472      566.702      102.496        0.033      335.879        6.804      859.768
03/27/2014  20:55:00     -503.877      -47.097      -18.504      238.169      192.291       98.120    56724.463    36976.015     9627.474       17.987        5.166      506.073      108.479        0.046      335.887        6.816      859.788
03/27/2014  20:56:00     -595.573      -21.579      -35.474      270.778      177.656      107.156    73320.530    31561.589    11482.318       23.638        5.818      595.964      116.679        0.038      335.855        6.762      859.806
03/27/2014  20:57:00     -487.791     -153.531      -29.391      252.695      172.526       89.868    63854.636    29765.350     8076.248       18.202        5.085      511.383      107.896        0.045      335.850        6.756      859.780
03/27/2014  20:58:00     -477.755     -108.388      -18.606      258.656      174.253       98.582    66902.720    30363.946     9718.354       17.365        5.349      489.896      120.732        0.061      335.853        6.760      859.810
03/27/2014  20:59:00     -503.264     -107.095      -36.354      206.035      175.654       91.652    42450.571    30854.330     8400.169       17.387        4.085      514.533       90.182        0.031      335.826        6.715      859.812
03/27/2014  21:00:00     -535.249     -139.388      -23.613      266.149      181.454      105.053    70835.494    32925.537    11036.113       21.062        5.740      553.101      120.734        0.048      335.818        6.702      859.791
03/27/2014  21:01:00     -477.039      -38.957      -23.536      255.002      185.236      103.456    65025.775    34312.295    10703.194       16.982        5.502      478.627      120.297        0.063      335.806        6.680      859.830
03/27/2014  21:02:00     -406.440      -74.561      -16.255      201.612      141.271       75.452    40647.295    19957.430     5693.017       11.865        3.315      413.223       89.323        0.047      335.793        6.659      859.823
03/27/2014  21:03:00     -351.834      -38.717      -13.398      215.324      162.315       81.692    46364.471    26346.192     6673.641       10.241        3.969      353.958       89.031        0.063      335.801        6.673      859.815
03/27/2014  21:04:00     -402.832      -45.903      -10.002      248.882      143.289       83.265    61942.162    20531.602     6933.119       12.693        4.470      405.439       98.217        0.059      335.803        6.677      859.834
03/27/2014  21:05:00     -483.158      -55.256      -26.643      249.013      183.122      106.678    62007.470    33533.533    11380.269       17.205        5.346      486.307      113.606        0.055      335.832        6.724      859.832
03/27/2014  21:06:00     -474.424      -45.355      -23.737      204.348      152.263       94.142    41758.125    23184.043     8862.631       15.074        3.690      476.587      101.104        0.045      335.821        6.706      859.898
03/27/2014  21:07:00     -324.062        2.049      -14.233      170.442      140.449       74.522    29050.608    19725.868     5553.578        7.977        2.717      324.068       75.282        0.054      335.829        6.720      859.943
03/27/2014  21:08:00     -539.645     -112.201      -20.059      262.992      178.310      102.035    69164.969    31794.375    10411.106       20.777        5.569      551.186      119.938        0.047      335.826        6.715      859.976
03/27/2014  21:09:00     -414.364     -128.635      -24.824      181.132      120.284       75.297    32808.760    14468.342     5669.652       12.090        2.647      433.872       70.792        0.027      335.826        6.715      860.011
03/27/2014  21:10:00     -387.886     -102.599      -23.221      123.046      125.474       74.209    15140.219    15743.739     5506.906        9.895        1.820      401.225       58.671        0.021      335.812        6.692      860.013
03/27/2014  21:11:00     -508.170     -149.379      -13.353      235.374      119.033       69.794    55400.777    14168.902     4871.188       17.757        3.722      529.670       84.642        0.026      335.821        6.708      860.002
03/27/2014  21:12:00     -415.285     -146.590       -5.829      184.629      164.373       89.533    34087.803    27018.371     8016.079       13.154        3.456      440.398       92.728        0.044      335.828        6.717      859.988
03/27/2014  21:13:00     -388.137      -15.918      -10.752      162.567      127.242       78.426    26428.155    16190.617     6150.709        9.989        2.438      388.463       73.117        0.035      335.817        6.701      859.981
03/27/2014  21:14:00     -492.540      -16.272      -37.834      207.865      120.248       72.797    43208.036    14459.638     5299.334       15.362        3.148      492.809       91.732        0.035      335.833        6.725      859.991
03/27/2014  21:15:00     -417.059      -81.903      -25.330      156.695      114.222       67.844    24553.270    13046.640     4602.864       11.174        2.110      425.025       69.731        0.027      335.863        6.777      860.004
03/27/2014  21:16:00     -417.827      -10.275      -13.368      196.907      136.928       72.025    38772.223    18749.165     5187.622       11.878        3.135      417.954       89.370        0.046      335.881        6.806      859.999
03/27/2014  21:17:00     -337.911      -63.961      -30.112      144.799      105.448       62.141    20966.853    11119.303     3861.524        7.756        1.797      343.911       54.504        0.025      335.894        6.828      860.002
03/27/2014  21:18:00     -354.823     -105.318        1.801      194.225      141.533       74.869    37723.232    20031.465     5605.341       10.017        3.168      370.124       81.673        0.049      335.874        6.796      860.005
03/27/2014  21:19:00     -221.433      -85.119       -8.162       91.350       67.468       47.687     8344.891     4551.952     2274.065        3.576        0.759      237.230       43.558        0.034      335.881        6.807      860.023
03/27/2014  21:20:00     -101.940        2.276       10.488      107.938       93.270       56.056    11650.623     8699.310     3142.321        1.700        1.175      101.965       59.537        0.341      335.876        6.800      860.046
03/27/2014  21:21:00     -218.554       24.245       -9.166      126.427      119.468       66.993    15983.740    14272.655     4488.066        4.159        1.737      219.895       61.076        0.077      335.868        6.784      860.059
03/27/2014  21:22:00     -182.454       -4.023       -1.757       97.369       75.718       48.577     9480.703     5733.170     2359.737        2.544        0.879      182.499       45.580        0.062      335.835        6.731      860.064
03/27/2014  21:23:00     -400.454      -63.475      -28.545      147.147      102.895       63.018    21652.180    10587.339     3971.320       10.070        1.811      405.454       66.149        0.027      335.835        6.731      860.058
03/27/2014  21:24:00     -159.496      -60.684       11.446      115.251       79.120       46.107    13282.842     6259.910     2125.863        2.546        1.083      170.650       57.925        0.115      335.820        6.707      860.070
03/27/2014  21:25:00     -183.815      -42.303       -2.240      138.433       87.425       62.544    19163.573     7643.059     3911.797        3.315        1.536      188.620       69.054        0.134      335.840        6.739      860.072
03/27/2014  21:26:00     -165.236      -34.604       -0.984      106.091      105.515       54.039    11255.334    11133.389     2920.225        2.690        1.265      168.821       57.100        0.114      335.864        6.779      860.079
03/27/2014  21:27:00     -177.403      -30.622       -8.234      106.644       75.324       51.371    11372.924     5673.671     2638.963        2.608        0.984      180.026       55.664        0.096      335.866        6.783      860.105
03/27/2014  21:28:00     -162.716       14.754        6.902      123.209       76.681       48.401    15180.578     5879.931     2342.651        2.507        1.170      163.384       55.418        0.115      335.895        6.830      860.118
03/27/2014  21:29:00     -331.841       -5.041      -17.484      128.452       84.243       57.677    16500.026     7096.946     3326.662        6.868        1.346      331.880       65.962        0.040      335.875        6.796      860.164
03/27/2014  21:30:00     -182.087      -12.633      -12.724      117.660       76.167       47.504    13843.976     5801.406     2256.607        2.769        1.095      182.525       47.840        0.069      335.899        6.838      860.178
03/27/2014  21:31:00     -191.552      -10.302       -6.454      107.211       99.134       42.747    11494.097     9827.616     1827.323        2.999        1.157      191.828       37.160        0.038      335.899        6.837      860.190
03/27/2014  21:32:00     -236.321       21.773      -20.103      150.768       99.779       57.634    22731.068     9955.945     3321.662        4.636        1.800      237.322       53.090        0.050      335.906        6.850      860.181
03/27/2014  21:33:00     -232.629      -72.382       -3.828      132.971      143.754       69.434    17681.182    20665.213     4821.047        5.126        2.158      243.630       71.162        0.085      335.903        6.843      860.162
03/27/2014  21:34:00     -214.160      -42.014       -0.262      149.456       89.917       53.922    22336.957     8085.038     2907.629        4.047        1.666      218.243       68.501        0.099      335.871        6.791      860.174
03/27/2014  21:35:00     -278.814     -149.409      -14.705      164.800      119.642       64.067    27159.168    14314.324     4104.640        7.292        2.279      316.323       70.320        0.049      335.920        6.873      860.181
03/27/2014  21:36:00     -186.440      -94.153       -1.189      100.998       98.613       53.779    10200.663     9724.447     2892.168        3.322        1.141      208.865       59.885        0.082      335.919        6.870      860.249
03/27/2014  21:37:00     -184.110      -78.844        3.912      169.106      106.951       63.034    28596.812    11438.439     3973.308        4.206        2.200      200.282       67.682        0.114      335.983        6.977      860.279
03/27/2014  21:38:00     -167.574      -46.030        2.264      185.606      102.708       74.016    34449.592    10548.919     5478.394        4.033        2.524      173.781       87.772        0.255      335.986        6.984      860.299
03/27/2014  21:39:00     -231.798     -163.531       -6.493      144.556      140.552       70.818    20896.435    19754.957     5015.151        6.308        2.283      283.677       76.620        0.073      336.005        7.013      860.348
03/27/2014  21:40:00     -128.255     -121.488        1.213       96.569       77.019       56.019     9325.636     5931.908     3138.118        2.480        0.920      176.660       44.078        0.062      336.030        7.057      860.394
03/27/2014  21:41:00     -114.967     -142.303       16.407      122.376       92.752       42.632    14975.953     8602.951     1817.480        2.956        1.270      182.941       40.855        0.050      336.014        7.029      860.438
03/27/2014  21:42:00      -79.183     -195.068       -3.808       93.019      116.151       43.157     8652.575    13491.096     1862.568        3.417        1.200      210.527       40.483        0.037      336.068        7.119      860.488
03/27/2014  21:43:00      -49.290     -143.002      -14.677       96.801      106.769       51.495     9370.366    11399.615     2651.687        2.325        1.171      151.258       41.739        0.076      336.140        7.240      860.538
03/27/2014  21:44:00      105.345      -53.129       30.035      131.322      105.626       66.848    17245.582    11156.887     4468.683        2.384        1.644      117.984       55.297        0.220      336.048        7.086      860.523
03/27/2014  21:45:00      112.854      -75.670       34.768       55.762       77.801       57.337     3109.369     6053.044     3287.501        1.606        0.622      135.874       55.995        0.170      336.000        7.008      860.557
03/27/2014  21:46:00      187.337     -150.079       -6.750       56.603       72.018       50.339     3203.946     5186.606     2533.965        3.429        0.546      240.039       36.143        0.023      336.005        7.013      860.580
03/27/2014  21:47:00       78.417     -197.817      -44.792       69.730       56.753       34.400     4862.216     3220.882     1183.335        2.828        0.463      212.792       27.697        0.017      336.078        7.134      860.593
03/27/2014  21:48:00      -62.433       -9.343       36.553       80.935       78.796       58.196     6550.484     6208.879     3386.718        1.073        0.807       63.128       56.234        0.794      336.081        7.142      860.608
03/27/2014  21:49:00       16.981     -126.816      -15.009       76.131       88.153       36.204     5795.944     7770.946     1310.721        1.573        0.744      127.948       25.802        0.041      336.111        7.191      860.639
03/27/2014  21:50:00       97.440      -43.230       31.256       89.633       82.331       59.365     8034.130     6778.351     3524.187        1.534        0.917      106.599       67.255        0.398      335.988        6.989      860.639
03/27/2014  21:51:00        9.274      -75.281       33.458       82.705      100.065       77.132     6840.086    10012.987     5949.393        1.483        1.140       75.850       71.292        0.883      336.011        7.024      860.617
03/27/2014  21:52:00       -0.777      -63.615        1.336       36.165       36.873       32.881     1307.934     1359.627     1081.181        0.390        0.187       63.620       15.213        0.057      336.080        7.142      860.713
03/27/2014  21:53:00        1.586      -17.259        9.765       43.132       29.597       23.328     1860.348      875.975      544.188        0.184        0.164       17.332       19.997        1.331      336.035        7.067      860.738
03/27/2014  21:54:00      -56.353      -25.426        3.158       18.739       25.556       17.249      351.153      653.112      297.533        0.257        0.065       61.823       12.554        0.041      335.981        6.976      860.751
03/27/2014  21:55:00      -22.088      -13.802       21.565       20.642       47.846       23.551      426.095     2289.250      554.647        0.221        0.163       26.045       24.780        0.905      335.986        6.984      860.756
03/27/2014  21:56:00       19.047      -45.321       35.944       57.115       60.961       41.234     3262.157     3716.195     1700.206        0.619        0.434       49.160       50.148        1.041      336.019        7.039      860.781
03/27/2014  21:57:00       61.673      -59.653        5.574       46.635       48.039       31.376     2174.781     2307.765      984.466        0.643        0.273       85.802       29.275        0.116      336.073        7.131      860.829
03/27/2014  21:58:00      -31.605       31.322       16.212       58.416       63.981       49.881     3412.373     4093.566     2488.105        0.612        0.500       44.497       48.648        1.195      336.075        7.132      860.846
03/27/2014  21:59:00       83.662       41.280       39.612       13.031       22.188       18.055      169.811      492.300      325.984        0.563        0.049       93.292        5.474        0.003      336.022        7.043      860.836
03/27/2014  22:00:00       11.944       29.763       34.967       34.553       22.852       31.533     1193.892      522.217      994.361        0.248        0.136       32.071       22.538        0.494      336.050        7.091      860.838
03/27/2014  22:01:00        6.951       14.841       54.029       34.181       37.335       27.693     1168.336     1393.910      766.912        0.326        0.166       16.388       26.887        2.692      336.033        7.064      860.846
03/27/2014  22:02:00       23.813      -58.987       14.400       56.406       30.858       25.921     3181.611      952.237      671.910        0.453        0.240       63.612       12.180        0.037      336.053        7.097      860.840
03/27/2014  22:03:00        5.438      -59.438       -0.195       52.405       42.657       27.924     2746.306     1819.604      779.767        0.445        0.267       59.686       21.572        0.131      336.094        7.165      860.845
03/27/2014  22:04:00     -102.780      -37.844        0.540       68.830       56.162       35.766     4737.513     3154.192     1279.219        1.058        0.459      109.525       38.153        0.121      336.078        7.139      860.888
03/27/2014  22:05:00     -103.410       30.232       -1.826       49.590       37.470       31.252     2459.178     1403.964      976.663        0.822        0.242      107.739       17.127        0.025      335.975        6.966      860.894
03/27/2014  22:06:00      -94.153       93.189      -11.816       55.814       56.174       29.077     3115.175     3155.484      845.458        1.240        0.356      132.473       24.001        0.033      335.905        6.849      860.891
03/27/2014  22:07:00      -60.736       31.453      -20.892       77.566       95.480       32.567     6016.497     9116.379     1060.638        1.065        0.810       68.397        9.965        0.021      336.023        7.046      860.845
03/27/2014  22:08:00     -187.457      -30.767       -5.119      103.253       90.643       49.236    10661.210     8216.203     2424.143        2.870        1.065      189.965       59.592        0.098      335.938        6.903      860.869
03/27/2014  22:09:00     -316.936      -21.068       -8.360      155.657       80.533       60.727    24229.155     6485.600     3687.783        6.768        1.720      317.636       78.271        0.061      335.896        6.831      860.856
03/27/2014  22:10:00      -63.184      -41.290       29.240       70.281       60.896       37.324     4939.461     3708.332     1393.068        0.829        0.502       75.479       35.005        0.215      335.900        6.841      860.866
03/27/2014  22:11:00     -114.296      -87.995        4.628       69.994       52.159       32.574     4899.156     2720.555     1061.062        1.475        0.434      144.246       34.018        0.056      335.960        6.940      860.876
03/27/2014  22:12:00      -76.040     -110.291       -7.861       74.576       50.543       28.355     5561.619     2554.575      804.023        1.346        0.446      133.963       30.243        0.051      336.080        7.140      860.882
03/27/2014  22:13:00      -91.376      -83.564       -2.309       57.718       48.756       28.798     3331.394     2377.111      829.323        1.094        0.327      123.825       16.721        0.018      336.090        7.157      860.905
03/27/2014  22:14:00     -133.536      -17.858        5.562       78.893       59.742       38.771     6224.076     3569.121     1503.212        1.474        0.565      134.725       39.229        0.085      335.996        7.000      860.921
03/27/2014  22:15:00      -69.146      -73.336        0.908       81.052       39.531       28.778     6569.453     1562.675      828.149        0.956        0.448      100.793       21.438        0.045      336.013        7.031      860.927
03/27/2014  22:16:00     -142.196      -56.050        5.388       68.998       54.556       27.824     4760.691     2976.382      774.179        1.595        0.426      152.844       31.712        0.043      336.010        7.023      860.960
03/27/2014  22:17:00     -118.134     -117.358       -1.903       49.568       40.110       29.466     2457.006     1608.799      868.222        1.633        0.247      166.519       14.481        0.008      336.004        7.013      860.994
03/27/2014  22:18:00      -62.037      -55.445      -10.842       42.923       37.765       20.846     1842.360     1426.183      434.547        0.537        0.185       83.203       15.147        0.033      336.024        7.046      860.989
03/27/2014  22:19:00     -151.860      -89.749       -8.439       84.483       62.490       30.500     7137.365     3905.003      930.220        2.158        0.599      176.399       33.885        0.037      336.019        7.038      860.986
03/27/2014  22:20:00     -181.407     -101.356       -9.678       44.617       45.691       28.464     1990.692     2087.664      810.218        2.408        0.244      207.802       15.346        0.005      335.969        6.955      860.975
03/27/2014  22:21:00     -188.886      -66.258      -12.801       53.428       63.326       30.390     2854.549     4010.219      923.577        2.401        0.389      200.170       30.591        0.023      335.930        6.888      860.971
03/27/2014  22:22:00     -122.205      -46.086        8.858       98.077       68.149       43.315     9619.086     4644.352     1876.204        1.664        0.807      130.606       35.468        0.074      335.892        6.826      860.967
03/27/2014  22:23:00     -210.254      -65.278       -5.936       74.754       63.133       34.614     5588.123     3985.799     1198.124        2.964        0.539      220.155       33.291        0.023      335.891        6.824      860.979
03/27/2014  22:24:00     -200.253      -92.291        2.622       78.638       59.127       36.627     6183.958     3495.968     1341.541        2.982        0.551      220.497       37.359        0.029      335.845        6.746      860.987
03/27/2014  22:25:00     -182.291      -29.266       -0.881       83.352       63.560       36.301     6947.626     4039.898     1317.781        2.319        0.615      184.625       42.704        0.053      335.832        6.727      861.000
03/27/2014  22:26:00     -156.594      -70.995        3.761       83.269       51.905       32.826     6933.798     2694.166     1077.568        2.014        0.535      171.936       37.064        0.046      335.814        6.696      861.007
03/27/2014  22:27:00     -189.452      -92.357       -6.285       66.891       58.851       32.134     4474.444     3463.492     1032.607        2.671        0.449      210.765       28.353        0.018      335.838        6.735      861.006
03/27/2014  22:28:00     -160.537      -38.887       -8.032       54.562       44.172       31.508     2976.983     1951.177      992.761        1.663        0.296      165.180       31.287        0.036      335.839        6.739      861.011
03/27/2014  22:29:00     -193.841      -66.494      -17.940       47.011       41.730       29.481     2210.069     1741.418      869.145        2.357        0.241      204.928       23.244        0.013      335.838        6.736      861.008
03/27/2014  22:30:00     -175.155      -40.096       -6.917       55.666       57.203       34.391     3098.709     3272.153     1182.743        1.994        0.378      179.685       30.926        0.030      335.807        6.685      861.023
03/27/2014  22:31:00     -195.245      -94.460      -16.643       79.606       85.074       40.073     6337.160     7237.586     1605.864        3.125        0.759      216.894       35.248        0.026      335.795        6.662      861.045
03/27/2014  22:32:00     -164.826      -73.380       -1.937       83.444       58.827       34.992     6962.839     3460.572     1224.426        2.210        0.582      180.423       28.637        0.025      335.789        6.653      861.067
03/27/2014  22:33:00     -131.856      -14.977        2.885       67.161       63.890       45.319     4510.565     4081.939     2053.810        1.413        0.532      132.704       41.497        0.098      335.733        6.563      861.088
03/27/2014  22:34:00     -225.883      -56.329       -2.026      105.981       62.028       44.252    11232.066     3847.471     1958.206        3.562        0.852      232.801       47.180        0.041      335.755        6.598      861.104
03/27/2014  22:35:00     -216.024     -116.450      -10.654      105.553       76.259       45.851    11141.470     5815.420     2102.318        3.970        0.953      245.412       38.677        0.025      335.761        6.607      861.121
03/27/2014  22:36:00     -198.213     -102.670       -7.935      121.228      123.945       62.996    14696.348    15362.272     3968.465        4.195        1.701      223.225       72.211        0.105      335.783        6.644      861.145
03/27/2014  22:37:00     -205.025     -115.906      -25.989       88.014       74.887       49.071     7746.378     5608.129     2407.958        3.595        0.788      235.520       30.235        0.016      335.805        6.679      861.162
03/27/2014  22:38:00     -241.596      -68.971       -0.310      101.181       65.182       48.640    10237.526     4248.639     2365.895        3.999        0.843      251.248       51.686        0.042      335.802        6.674      861.192
03/27/2014  22:39:00      -76.434      -35.050        5.214       95.235       75.346       40.239     9069.641     5676.979     1619.183        1.173        0.818       84.087       45.478        0.293      335.843        6.747      861.206
03/27/2014  22:40:00     -178.522     -101.962      -13.167       87.036       54.955       41.214     7575.247     3020.090     1698.632        2.736        0.615      205.588       28.339        0.019      335.829        6.721      861.218
03/27/2014  22:41:00     -226.122      -85.909      -15.339       66.773       56.705       40.543     4458.591     3215.469     1643.702        3.403        0.466      241.892       33.748        0.019      335.828        6.719      861.248
03/27/2014  22:42:00     -143.182      -26.707       -2.931       52.047       40.136       29.169     2708.923     1610.916      850.843        1.320        0.259      145.651       30.430        0.044      335.829        6.723      861.271
03/27/2014  22:43:00     -103.761      -61.828       -1.608       64.721       62.569       33.906     4188.799     3914.870     1149.597        1.192        0.463      120.785       26.650        0.049      335.873        6.796      861.309
03/27/2014  22:44:00     -119.043     -117.718        8.608       87.031       63.004       48.046     7574.331     3969.498     2308.411        2.098        0.693      167.418       51.279        0.094      335.877        6.801      861.344
03/27/2014  22:45:00     -177.490     -119.235       -0.051       79.537       65.456       41.517     6326.080     4284.535     1723.656        2.902        0.617      213.822       36.344        0.029      335.877        6.800      861.370
03/27/2014  22:46:00     -215.649     -147.075        6.732      100.300       64.473       49.339    10060.186     4156.804     2434.381        4.241        0.833      261.028       59.460        0.052      335.878        6.800      861.391
03/27/2014  22:47:00     -198.515      -57.627      -13.344       65.948       46.526       32.188     4349.088     2164.646     1036.092        2.523        0.377      206.710       28.145        0.019      335.892        6.825      861.408
03/27/2014  22:48:00     -169.014      -41.557        0.063      101.628       62.188       36.902    10328.226     3867.305     1361.723        2.292        0.778      174.048       46.990        0.073      335.813        6.693      861.430
03/27/2014  22:49:00     -131.882      -84.150       -5.936       74.191       79.340       41.868     5504.266     6294.905     1752.927        1.903        0.678      156.442       47.586        0.093      335.842        6.743      861.456
03/27/2014  22:50:00     -103.609      -31.488        2.277       62.720       61.004       32.375     3933.774     3721.523     1048.160        1.022        0.435      108.288       28.824        0.071      335.855        6.766      861.467
03/27/2014  22:51:00     -112.467      -20.539       -6.667       65.488       50.541       29.130     4288.640     2554.369      848.570        1.040        0.385      114.327       28.111        0.060      335.854        6.765      861.472
03/27/2014  22:52:00     -129.964      -56.188       -6.267       40.766       34.376       24.281     1661.841     1181.706      589.578        1.176        0.172      141.590       18.489        0.017      335.843        6.747      861.463
03/27/2014  22:53:00     -143.665      -58.609      -10.045       37.108       47.933       21.345     1377.012     2297.563      455.619        1.415        0.207      155.160       20.004        0.017      335.879        6.805      861.458
03/27/2014  22:54:00     -161.933      -31.714       -8.186       70.453       50.988       28.996     4963.663     2599.820      840.760        1.785        0.420      165.009       30.595        0.034      335.903        6.845      861.441
03/27/2014  22:55:00     -105.915      -97.077        2.095       93.988       68.730       39.757     8833.680     4723.794     1580.647        1.789        0.757      143.673       41.675        0.084      335.932        6.893      861.438
03/27/2014  22:56:00      -67.595     -199.633        1.493       93.151      108.275       53.457     8677.030    11723.581     2857.679        3.384        1.163      210.766       56.025        0.071      335.991        6.989      861.425
03/27/2014  22:57:00     -114.108     -101.270       -3.311       77.554       73.136       44.596     6014.608     5348.856     1988.767        1.832        0.668      152.566       33.226        0.047      335.936        6.900      861.435
03/27/2014  22:58:00        9.154      -16.221       29.435       34.135       38.743       19.579     1165.218     1501.044      383.323        0.213        0.152       18.626       14.067        0.570      335.923        6.879      861.418
03/27/2014  22:59:00      -92.721      -83.299       -5.549       41.529       37.362       23.545     1724.684     1395.923      554.368        0.962        0.184      124.643       15.385        0.015      335.946        6.918      861.404
03/27/2014  23:00:00      -93.171      -62.360       -1.793       42.225       29.359       18.643     1782.967      861.942      347.573        0.778        0.150      112.114       20.194        0.032      335.962        6.944      861.392
03/27/2014  23:01:00     -104.279      -68.743       -2.041       35.419       40.173       19.607     1254.537     1613.848      384.435        0.943        0.163      124.899       13.009        0.011      335.984        6.982      861.375
03/27/2014  23:02:00     -144.402      -60.791       -2.233       72.410       56.241       35.898     5243.191     3163.004     1288.647        1.712        0.485      156.677       39.066        0.062      336.042        7.077      861.364
03/27/2014  23:03:00     -168.691      -35.352      -11.123       60.398       49.544       28.813     3647.939     2454.578      830.191        1.838        0.347      172.356       26.932        0.024      336.082        7.144      861.365
03/27/2014  23:04:00      -93.132      -17.172        5.565       88.787       43.800       33.665     7883.188     1918.431     1133.307        0.997        0.547       94.702       42.308        0.200      336.076        7.136      861.362
03/27/2014  23:05:00     -206.821      -56.344       12.806       98.328       73.982       49.882     9668.478     5473.297     2488.166        3.187        0.881      214.359       50.796        0.056      335.986        6.981      861.365
03/27/2014  23:06:00     -246.084      -73.954      -28.080      103.997       77.210       42.556    10815.346     5961.436     1811.038        4.270        0.929      256.957       17.461        0.005      335.987        6.982      861.370
03/27/2014  23:07:00     -197.762     -108.603       -5.698       86.183       94.156       51.412     7427.527     8865.433     2643.149        3.493        0.947      225.620       41.055        0.033      335.949        6.919      861.362
03/27/2014  23:08:00     -218.730     -136.428       -1.557      100.092       97.586       46.106    10018.334     9523.037     2125.736        4.406        1.083      257.790       35.236        0.019      335.933        6.894      861.372
03/27/2014  23:09:00     -212.560      -89.172       -1.124       74.932       75.069       39.178     5614.852     5635.285     1534.943        3.296        0.639      230.507       36.264        0.025      335.902        6.841      861.383
03/27/2014  23:10:00     -160.323     -151.994      -18.165       50.227       46.718       27.393     2522.740     2182.610      750.362        2.729        0.273      220.920       22.341        0.010      335.963        6.944      861.381
03/27/2014  23:11:00     -158.001     -100.551        3.451       98.137       58.146       41.825     9630.903     3380.956     1749.348        2.492        0.738      187.283       43.609        0.054      335.959        6.938      861.389
03/27/2014  23:12:00      -97.521     -119.239        4.491       76.323       52.681       34.824     5825.212     2775.252     1212.720        1.678        0.491      154.040       34.675        0.051      335.953        6.927      861.417
03/27/2014  23:13:00     -106.599     -110.372       -1.680       54.207       55.946       34.668     2938.361     3129.949     1201.877        1.541        0.364      153.445       27.789        0.033      335.938        6.902      861.463
03/27/2014  23:14:00      -60.464      -33.863        6.039       38.187       36.964       22.089     1458.257     1366.353      487.928        0.408        0.166       69.300       16.764        0.059      335.916        6.868      861.501
03/27/2014  23:15:00      -54.706      -74.964        5.744       59.374       46.375       27.532     3525.229     2150.656      758.007        0.754        0.322       92.802       28.835        0.097      335.992        6.993      861.534
03/27/2014  23:16:00     -112.644      -72.435       -3.285       72.511       55.299       27.249     5257.896     3057.956      742.508        1.350        0.453      133.923       32.802        0.060      335.961        6.942      861.548
03/27/2014  23:17:00     -129.510      -74.781        3.128       93.371       72.419       40.033     8718.188     5244.478     1602.679        1.897        0.778      149.549       37.360        0.062      335.947        6.918      861.546
03/27/2014  23:18:00      -83.143      -85.120       -0.545       77.546       49.244       28.116     6013.444     2424.935      790.524        1.169        0.461      118.989       37.095        0.097      336.019        7.039      861.558
03/27/2014  23:19:00     -206.599      -34.080       -6.870       74.288       59.491       36.223     5518.768     3539.190     1312.136        2.713        0.519      209.391       36.339        0.030      336.019        7.037      861.588
03/27/2014  23:20:00      -97.003      -46.231        9.723       80.564       52.505       36.223     6490.518     2756.813     1312.083        1.110        0.528      107.456       36.171        0.113      336.055        7.101      861.614
03/27/2014  23:21:00        3.279       22.963       18.835       36.664       23.878       23.303     1344.245      570.157      543.007        0.167        0.123       23.195       14.646        0.399      336.027        7.051      861.644
03/27/2014  23:22:00       -4.195       17.272       60.198       14.393       42.957       34.268      207.157     1845.334     1174.298        0.358        0.161       17.774       32.425        3.328      335.884        6.815      861.674
03/27/2014  23:23:00      -22.340       -1.594       19.463       31.206       26.029       29.842      973.825      677.491      890.517        0.171        0.127       22.397       25.046        1.251      335.960        6.940      861.701
03/27/2014  23:24:00      -30.444       11.242       -4.607       34.294       16.268       13.197     1176.105      264.648      174.158        0.134        0.081       32.453        4.672        0.021      335.981        6.975      861.731
03/27/2014  23:25:00        1.878      -26.691       15.549       37.011       57.018       26.730     1369.846     3251.052      714.514        0.315        0.267       26.757       31.528        1.388      335.914        6.864      861.752
03/27/2014  23:26:00      -36.638      -49.125       18.309       32.506       56.492       27.247     1056.660     3191.387      742.409        0.454        0.250       61.283       32.649        0.284      336.027        7.053      861.774
03/27/2014  23:27:00        0.205        9.662       44.687       24.237       40.411       32.741      587.412     1633.031     1071.951        0.269        0.165        9.665       26.187        7.342      335.891        6.827      861.805
03/27/2014  23:28:00       -0.145       24.337       65.010       22.323       41.913       23.223      498.314     1756.711      539.330        0.381        0.140       24.337       18.746        0.593      335.968        6.955      861.812
03/27/2014  23:29:00        1.214       37.740       56.117       12.938       26.137       16.195      167.389      683.128      262.291        0.284        0.056       37.759       16.667        0.195      335.976        6.966      861.802
03/27/2014  23:30:00      -12.416       25.993        5.183       15.479       13.565       18.070      239.590      184.004      326.541        0.080        0.038       28.806        9.719        0.114      335.930        6.891      861.805
03/27/2014  23:31:00      -43.576        1.963       -4.314       29.997       13.049        9.709      899.804      170.274       94.271        0.154        0.058       43.620       12.449        0.081      335.874        6.799      861.818
03/27/2014  23:32:00       36.849       33.772       16.356       34.597       34.436       15.237     1196.957     1185.865      232.158        0.269        0.131       49.984       15.750        0.099      335.872        6.795      861.806
03/27/2014  23:33:00       20.467       35.851       50.964       30.349       29.152       21.925      921.073      849.831      480.685        0.328        0.113       41.281       16.565        0.161      335.810        6.690      861.808
03/27/2014  23:34:00       -1.404      105.229      -15.601       19.231       35.336       15.676      369.845     1248.662      245.735        0.659        0.093      105.239       15.843        0.023      335.882        6.812      861.802
03/27/2014  23:35:00        9.622       79.915        3.217       18.643       56.065       22.988      347.554     3143.249      528.456        0.525        0.201       80.492       12.171        0.023      335.866        6.784      861.779
03/27/2014  23:36:00       79.365       54.186       16.082       42.572       34.007       34.464     1812.351     1156.446     1187.738        0.682        0.208       96.098        8.683        0.008      335.791        6.660      861.742
03/27/2014  23:37:00       20.765       16.284        7.742       57.666       30.694       21.702     3325.350      942.096      470.987        0.275        0.237       26.389       21.247        0.648      335.808        6.690      861.743
03/27/2014  23:38:00     -101.528      -16.327       -5.408       30.534       25.617       20.143      932.299      656.253      405.753        0.630        0.100      102.832       14.246        0.019      335.973        6.962      861.739
03/27/2014  23:39:00     -102.878      -81.497       12.322       73.194       60.495       37.028     5357.415     3659.672     1371.098        1.388        0.519      131.247       41.721        0.101      335.995        6.997      861.737
03/27/2014  23:40:00     -155.952     -152.611       -1.455       82.447       66.624       43.619     6797.585     4438.722     1902.632        3.037        0.657      218.200       37.570        0.030      335.962        6.943      861.739
03/27/2014  23:41:00      -54.565      -44.152        6.779       52.670       39.937       21.614     2774.168     1594.946      467.164        0.490        0.242       70.191       22.422        0.102      336.007        7.019      861.725
03/27/2014  23:42:00      -49.440     -114.049       10.815       59.135       76.244       31.794     3496.986     5813.121     1010.874        1.294        0.516      124.304       34.098        0.075      336.058        7.105      861.730
03/27/2014  23:43:00     -204.015     -110.783       -7.133       74.660       76.813       37.470     5574.044     5900.252     1404.021        3.341        0.644      232.153       27.239        0.014      335.998        7.003      861.736
03/27/2014  23:44:00     -287.760     -143.802      -12.361      109.417      127.364       57.410    11972.088    16221.683     3295.876        6.756        1.574      321.691       62.583        0.038      335.951        6.923      861.736
03/27/2014  23:45:00     -230.941     -176.096       -4.620      172.463      113.129       66.377    29743.374    12798.254     4405.870        6.565        2.347      290.420       85.503        0.087      336.018        7.035      861.725
03/27/2014  23:46:00     -270.422     -172.412       -6.151      126.760       88.581       66.732    16068.223     7846.557     4453.115        6.563        1.418      320.709       63.206        0.039      336.034        7.062      861.705
03/27/2014  23:47:00     -165.418      -68.842        0.043      112.172       81.772       52.001    12582.559     6686.681     2704.067        2.703        1.099      179.171       54.599        0.093      336.031        7.057      861.686
03/27/2014  23:48:00     -222.631      -90.723       -4.270       97.705       59.177       43.507     9546.224     3501.898     1892.847        3.637        0.747      240.406       25.530        0.011      336.002        7.008      861.683
03/27/2014  23:49:00     -116.037      -58.187       15.515       81.314       53.559       40.291     6611.910     2868.545     1623.385        1.410        0.555      129.809       43.546        0.113      335.982        6.976      861.690
03/27/2014  23:50:00     -126.418      -91.938        1.751       50.762       48.193       28.924     2576.784     2322.539      836.622        1.509        0.287      156.314       17.672        0.013      335.996        7.000      861.693
03/27/2014  23:51:00     -219.524     -146.585        6.956      112.640       76.996       51.153    12687.729     5928.325     2616.608        4.548        1.062      263.965       49.993        0.036      335.958        6.933      861.689
03/27/2014  23:52:00     -123.058     -134.241       -1.885       74.446       62.123       34.630     5542.235     3859.303     1199.228        2.188        0.530      182.110       24.393        0.018      335.979        6.972      861.673
03/27/2014  23:53:00     -131.885      -79.501        1.375       87.082       56.210       36.475     7583.225     3159.570     1330.410        1.789        0.604      153.993       37.831        0.060      335.929        6.888      861.652
03/27/2014  23:54:00      -80.062     -128.452       -3.304       46.604       58.305       28.099     2171.888     3399.503      789.550        1.464        0.318      151.359       26.004        0.030      335.970        6.957      861.629
03/27/2014  23:55:00      -56.800      -26.011        2.619       51.870       35.966       24.034     2690.457     1293.550      577.639        0.423        0.228       62.473       23.880        0.146      335.926        6.885      861.600
03/27/2014  23:56:00      -47.743      -44.856        1.454       37.102       35.521       27.773     1376.523     1261.727      771.367        0.385        0.170       65.509       23.614        0.130      335.989        6.988      861.573
03/27/2014  23:57:00        6.630        5.275       21.255       23.585       21.417       14.429      556.239      458.675      208.185        0.087        0.061        8.473        9.534        1.266      335.865        6.782      861.541
03/27/2014  23:58:00       16.865      -98.875      -14.663       62.351       48.501       34.963     3887.603     2352.311     1222.402        0.887        0.373      100.303       28.538        0.081      335.916        6.867      861.508
03/27/2014  23:59:00       27.844      -14.986       20.635       29.733       32.503       23.086      884.026     1056.415      532.961        0.195        0.124       31.621       13.158        0.173      335.877        6.803      861.496
